[[{"header":{"parameterUnit":"m.s-1","parameterCategory":1,"la1":30.6,"la2":29.2853,"lo1":-89.7004,"lo2":-87.6739,"dy":0.0162,"dx":0.0183,"nx":112,"ny":82,"refTime":"2023-08-24T00:00:00:Z","depth":0,"parameterNumber":2,"parameterNumberName":"U-component_of_WINDS"},"data":[0.0,0.0,0.0,0.0,0.0,0.0,0.0,0.0,0.0,0.0,0.0,0.0,0.0,0.0,0.0,0.0,0.0,0.0,0.0,0.0,0.0,0.0,0.0,0.0,0.0,0.0,0.0,0.0,0.0,0.0,0.0,0.0,0.0,0.0,0.0,0.0,0.0,0.0,0.0,0.0,0.0,0.0,0.0,0.0,0.0,0.0,0.0,0.0,0.0,0.0,0.0,0.0,0.0,0.0,0.0,0.0,0.0,0.0,0.0,0.0,0.0,0.0,0.0,0.0,0.0,0.0,0.0,0.0,0.0,0.0,0.0,0.0,0.0,0.0,0.0,0.0,0.0,0.0,0.0,0.0,0.0,0.0,0.0,0.0,0.0,0.0,0.0,0.0,0.0,0.0,-3.8707,-3.8707,-3.8707,-3.8315,-3.74,-3.7221,-3.679,-3.579,0.0,0.0,0.0,0.0,0.0,0.0,0.0,0.0,0.0,0.0,0.0,0.0,0.0,0.0,0.0,0.0,0.0,0.0,0.0,0.0,0.0,0.0,0.0,0.0,0.0,0.0,0.0,0.0,0.0,0.0,0.0,0.0,0.0,0.0,0.0,0.0,0.0,0.0,0.0,0.0,0.0,0.0,0.0,0.0,0.0,0.0,0.0,0.0,0.0,0.0,0.0,0.0,0.0,0.0,0.0,0.0,0.0,0.0,0.0,0.0,0.0,0.0,0.0,0.0,0.0,0.0,0.0,0.0,0.0,0.0,0.0,0.0,0.0,0.0,0.0,0.0,0.0,0.0,0.0,0.0,0.0,0.0,0.0,0.0,0.0,0.0,0.0,0.0,0.0,0.0,0.0,0.0,0.0,0.0,0.0,0.0,0.0,0.0,0.0,0.0,0.0,0.0,0.0,0.0,-3.8707,-3.8707,-3.8707,-3.8456,-3.7863,-3.7438,-3.6956,-3.6327,0.0,0.0,0.0,0.0,0.0,0.0,0.0,0.0,0.0,0.0,0.0,0.0,0.0,0.0,0.0,0.0,0.0,0.0,0.0,0.0,0.0,0.0,0.0,0.0,0.0,0.0,0.0,0.0,0.0,0.0,0.0,0.0,0.0,0.0,0.0,0.0,0.0,0.0,0.0,0.0,0.0,0.0,0.0,0.0,0.0,0.0,0.0,0.0,0.0,0.0,0.0,0.0,0.0,0.0,0.0,0.0,0.0,0.0,0.0,0.0,0.0,0.0,0.0,0.0,0.0,0.0,0.0,0.0,0.0,0.0,0.0,0.0,0.0,0.0,0.0,0.0,0.0,0.0,0.0,0.0,0.0,0.0,0.0,0.0,0.0,0.0,0.0,0.0,0.0,0.0,0.0,0.0,0.0,0.0,0.0,0.0,0.0,0.0,0.0,0.0,0.0,0.0,0.0,-3.8707,-3.8585,-3.8297,-3.8261,-3.7955,-3.715,-3.6895,-3.6559,-3.6017,-3.5723,0.0,0.0,0.0,0.0,0.0,0.0,0.0,0.0,0.0,0.0,0.0,0.0,0.0,0.0,0.0,0.0,0.0,0.0,0.0,0.0,0.0,0.0,0.0,0.0,0.0,0.0,0.0,0.0,0.0,0.0,0.0,0.0,0.0,0.0,0.0,0.0,0.0,0.0,0.0,0.0,0.0,0.0,0.0,0.0,0.0,0.0,0.0,0.0,0.0,0.0,0.0,0.0,0.0,0.0,0.0,0.0,0.0,0.0,0.0,0.0,0.0,0.0,0.0,0.0,0.0,0.0,0.0,0.0,0.0,0.0,0.0,0.0,0.0,0.0,0.0,0.0,0.0,0.0,0.0,0.0,0.0,0.0,0.0,0.0,0.0,0.0,0.0,0.0,0.0,0.0,0.0,0.0,0.0,0.0,0.0,0.0,0.0,0.0,0.0,0.0,0.0,0.0,-3.842,-3.8187,-3.7778,-3.7715,-3.7356,-3.6464,-3.6417,-3.618,-3.5639,-3.5622,0.0,0.0,0.0,0.0,0.0,0.0,0.0,0.0,0.0,0.0,0.0,0.0,0.0,0.0,0.0,0.0,0.0,0.0,0.0,0.0,0.0,0.0,0.0,0.0,0.0,0.0,0.0,0.0,0.0,0.0,0.0,0.0,0.0,0.0,0.0,0.0,0.0,0.0,0.0,0.0,0.0,0.0,0.0,0.0,0.0,0.0,0.0,0.0,0.0,0.0,0.0,0.0,0.0,0.0,0.0,0.0,0.0,0.0,0.0,0.0,0.0,0.0,0.0,0.0,0.0,0.0,0.0,0.0,0.0,0.0,0.0,0.0,0.0,0.0,0.0,0.0,0.0,0.0,0.0,0.0,0.0,0.0,0.0,0.0,0.0,0.0,0.0,0.0,0.0,0.0,0.0,0.0,0.0,0.0,0.0,0.0,0.0,0.0,0.0,0.0,0.0,0.0,-3.7564,-3.7277,-3.7241,-3.7232,-3.7041,-3.6464,-3.6416,-3.618,-3.5639,-3.5622,0.0,0.0,0.0,0.0,0.0,0.0,0.0,0.0,0.0,0.0,0.0,0.0,0.0,0.0,0.0,0.0,0.0,0.0,0.0,0.0,0.0,0.0,0.0,0.0,0.0,0.0,0.0,0.0,0.0,0.0,0.0,0.0,0.0,0.0,0.0,0.0,0.0,0.0,0.0,0.0,0.0,0.0,0.0,0.0,0.0,0.0,0.0,0.0,0.0,0.0,0.0,0.0,0.0,0.0,0.0,0.0,0.0,0.0,0.0,0.0,0.0,0.0,0.0,0.0,0.0,0.0,0.0,0.0,0.0,0.0,0.0,0.0,0.0,0.0,0.0,0.0,0.0,0.0,0.0,0.0,0.0,0.0,0.0,0.0,0.0,0.0,0.0,0.0,0.0,0.0,0.0,0.0,0.0,0.0,0.0,0.0,0.0,0.0,0.0,0.0,0.0,0.0,-3.7484,-3.7053,-3.6751,-3.6706,-3.6463,-3.5921,-3.5887,-3.5819,-3.5622,0.0,0.0,0.0,0.0,0.0,0.0,0.0,0.0,0.0,0.0,0.0,0.0,0.0,0.0,0.0,0.0,0.0,0.0,0.0,0.0,0.0,0.0,0.0,0.0,0.0,0.0,0.0,0.0,0.0,0.0,0.0,0.0,0.0,0.0,0.0,0.0,0.0,0.0,0.0,0.0,0.0,0.0,0.0,0.0,0.0,0.0,0.0,0.0,0.0,0.0,0.0,0.0,0.0,0.0,0.0,0.0,0.0,0.0,0.0,0.0,0.0,0.0,0.0,0.0,0.0,0.0,0.0,0.0,0.0,0.0,0.0,0.0,0.0,0.0,0.0,0.0,0.0,0.0,0.0,0.0,0.0,0.0,0.0,0.0,0.0,0.0,0.0,0.0,0.0,0.0,0.0,0.0,0.0,0.0,0.0,0.0,0.0,0.0,0.0,0.0,0.0,0.0,-3.7663,-3.712,-3.6559,-3.6197,-3.6163,-3.6017,-3.5639,-3.5622,-3.5622,-3.5622,0.0,0.0,0.0,0.0,0.0,0.0,0.0,0.0,0.0,0.0,0.0,0.0,0.0,0.0,0.0,0.0,0.0,0.0,0.0,0.0,0.0,0.0,0.0,0.0,0.0,0.0,0.0,0.0,0.0,0.0,0.0,0.0,0.0,0.0,0.0,0.0,0.0,0.0,0.0,0.0,0.0,0.0,0.0,0.0,0.0,0.0,0.0,0.0,0.0,0.0,0.0,0.0,0.0,0.0,0.0,0.0,0.0,0.0,0.0,0.0,0.0,0.0,0.0,0.0,0.0,0.0,0.0,0.0,0.0,0.0,0.0,0.0,0.0,0.0,0.0,0.0,0.0,0.0,0.0,0.0,0.0,0.0,0.0,0.0,0.0,0.0,0.0,0.0,0.0,0.0,0.0,0.0,0.0,0.0,0.0,0.0,0.0,0.0,0.0,0.0,0.0,0.0,-3.7119,-3.6248,-3.5622,-3.5622,-3.5622,-3.5622,-3.5622,-3.556,-3.556,0.0,0.0,0.0,0.0,0.0,0.0,0.0,0.0,0.0,0.0,0.0,0.0,0.0,0.0,0.0,0.0,0.0,0.0,0.0,0.0,0.0,0.0,0.0,0.0,0.0,0.0,0.0,0.0,0.0,0.0,0.0,0.0,0.0,0.0,0.0,0.0,0.0,0.0,0.0,0.0,0.0,0.0,0.0,0.0,0.0,0.0,0.0,0.0,0.0,0.0,0.0,0.0,0.0,0.0,0.0,0.0,0.0,0.0,0.0,0.0,0.0,0.0,0.0,0.0,0.0,0.0,0.0,0.0,0.0,0.0,0.0,0.0,0.0,0.0,0.0,0.0,0.0,0.0,0.0,0.0,0.0,0.0,0.0,0.0,0.0,0.0,0.0,0.0,0.0,0.0,0.0,0.0,0.0,0.0,0.0,0.0,0.0,0.0,0.0,0.0,0.0,0.0,0.0,-3.6593,-3.6034,-3.5622,-3.5622,-3.5622,-3.5622,-3.5622,-3.5166,-3.5116,-3.556,0.0,0.0,0.0,0.0,0.0,0.0,0.0,0.0,0.0,0.0,0.0,0.0,0.0,0.0,0.0,0.0,0.0,0.0,0.0,0.0,0.0,0.0,0.0,0.0,0.0,0.0,0.0,0.0,0.0,0.0,0.0,0.0,0.0,0.0,0.0,0.0,0.0,0.0,0.0,0.0,0.0,0.0,0.0,0.0,0.0,0.0,0.0,0.0,0.0,0.0,0.0,0.0,0.0,0.0,0.0,0.0,0.0,0.0,0.0,0.0,0.0,0.0,0.0,0.0,0.0,0.0,0.0,0.0,0.0,0.0,0.0,0.0,0.0,0.0,0.0,0.0,0.0,0.0,0.0,0.0,0.0,0.0,0.0,0.0,0.0,0.0,0.0,0.0,0.0,0.0,0.0,0.0,0.0,0.0,0.0,0.0,0.0,0.0,0.0,0.0,0.0,0.0,-3.6376,-3.5921,-3.5622,-3.5622,-3.5346,-3.5183,-3.5183,-3.4594,-3.4363,-3.4807,0.0,0.0,0.0,0.0,0.0,0.0,0.0,0.0,0.0,0.0,0.0,0.0,0.0,0.0,0.0,0.0,0.0,0.0,0.0,0.0,0.0,0.0,0.0,0.0,0.0,0.0,0.0,0.0,0.0,0.0,0.0,0.0,0.0,0.0,0.0,0.0,0.0,0.0,0.0,0.0,0.0,0.0,0.0,0.0,0.0,0.0,0.0,0.0,0.0,0.0,0.0,0.0,0.0,0.0,0.0,0.0,0.0,0.0,0.0,0.0,0.0,0.0,0.0,0.0,0.0,0.0,0.0,0.0,0.0,0.0,0.0,0.0,0.0,0.0,0.0,0.0,0.0,0.0,0.0,0.0,0.0,0.0,0.0,0.0,0.0,0.0,0.0,0.0,0.0,0.0,0.0,0.0,0.0,0.0,0.0,0.0,0.0,0.0,0.0,0.0,0.0,0.0,-3.6248,-3.5887,-3.5622,-3.5622,-3.4987,-3.4588,-3.4601,-3.3951,-3.3517,-3.3614,0.0,0.0,0.0,0.0,0.0,0.0,0.0,0.0,0.0,0.0,0.0,0.0,0.0,0.0,0.0,0.0,0.0,0.0,0.0,0.0,0.0,0.0,0.0,0.0,0.0,0.0,0.0,0.0,0.0,0.0,0.0,0.0,0.0,0.0,0.0,0.0,0.0,0.0,0.0,0.0,0.0,0.0,0.0,0.0,0.0,0.0,0.0,0.0,0.0,0.0,0.0,0.0,0.0,0.0,0.0,0.0,0.0,0.0,0.0,0.0,-3.2101,-3.2884,0.0,0.0,0.0,0.0,0.0,0.0,0.0,0.0,0.0,0.0,0.0,0.0,0.0,0.0,0.0,0.0,0.0,0.0,0.0,0.0,0.0,0.0,0.0,0.0,0.0,0.0,0.0,0.0,0.0,0.0,0.0,0.0,0.0,0.0,0.0,0.0,0.0,0.0,0.0,0.0,-3.574,-3.5673,-3.5622,-3.5622,-3.4987,-3.4605,-3.458,-3.3505,-3.3048,-3.356,-3.2578,0.0,0.0,0.0,0.0,0.0,0.0,0.0,0.0,0.0,0.0,0.0,0.0,0.0,0.0,0.0,0.0,0.0,0.0,0.0,0.0,0.0,0.0,0.0,0.0,0.0,0.0,0.0,0.0,0.0,0.0,0.0,0.0,0.0,0.0,0.0,0.0,0.0,0.0,0.0,0.0,0.0,0.0,0.0,0.0,0.0,0.0,0.0,0.0,0.0,0.0,0.0,0.0,0.0,0.0,0.0,0.0,0.0,0.0,0.0,-3.1881,-3.2314,0.0,0.0,0.0,0.0,0.0,0.0,0.0,0.0,0.0,0.0,0.0,0.0,0.0,0.0,0.0,0.0,0.0,0.0,0.0,0.0,0.0,0.0,0.0,0.0,0.0,0.0,0.0,0.0,0.0,0.0,0.0,0.0,0.0,0.0,0.0,0.0,0.0,0.0,0.0,0.0,-3.5656,-3.5622,-3.5622,-3.5622,-3.4695,-3.4136,-3.4105,-3.2859,-3.2249,-3.2576,-3.188,0.0,0.0,0.0,0.0,0.0,0.0,0.0,0.0,0.0,0.0,0.0,0.0,0.0,0.0,0.0,0.0,0.0,0.0,0.0,0.0,0.0,0.0,0.0,0.0,0.0,0.0,0.0,0.0,0.0,0.0,0.0,0.0,0.0,0.0,0.0,0.0,0.0,0.0,0.0,0.0,0.0,0.0,0.0,0.0,0.0,0.0,0.0,0.0,0.0,0.0,0.0,0.0,0.0,-2.7624,-2.8703,-3.1112,-2.9891,-3.0016,-3.1242,-3.1145,-3.1222,-3.1501,-3.3043,0.0,0.0,0.0,0.0,0.0,0.0,0.0,0.0,0.0,0.0,0.0,0.0,0.0,0.0,0.0,0.0,0.0,0.0,0.0,0.0,0.0,0.0,-4.007,-4.007,-4.007,-4.0222,-4.0646,0.0,0.0,0.0,0.0,0.0,0.0,0.0,0.0,0.0,0.0,0.0,-3.569,-3.5493,-3.5442,-3.5442,-3.4236,-3.3421,-3.3444,-3.2264,-3.1482,-3.1482,-3.1482,-3.1569,0.0,0.0,0.0,0.0,0.0,0.0,0.0,0.0,0.0,0.0,0.0,0.0,0.0,0.0,0.0,0.0,0.0,0.0,0.0,0.0,0.0,0.0,0.0,0.0,0.0,0.0,0.0,0.0,0.0,0.0,0.0,0.0,-2.3124,-2.5714,0.0,0.0,0.0,0.0,0.0,0.0,0.0,0.0,0.0,0.0,0.0,0.0,0.0,-2.5037,-2.6262,-2.5247,-2.5808,-2.804,-2.5888,-2.6703,-2.9945,-2.8209,-2.8638,-3.0714,-3.0221,0.0,-3.1459,-3.2542,0.0,0.0,0.0,0.0,0.0,0.0,0.0,0.0,0.0,0.0,0.0,0.0,0.0,0.0,0.0,0.0,0.0,0.0,0.0,0.0,0.0,0.0,-4.007,-4.007,-4.007,-4.0138,-4.0189,-4.0206,-4.0222,-4.029,-4.0629,-4.0712,0.0,0.0,0.0,0.0,0.0,0.0,-3.569,-3.5099,-3.474,-3.474,-3.3511,-3.2741,-3.273,-3.1983,-3.1482,-3.1482,-3.1482,-3.1747,-3.2324,-3.2397,0.0,0.0,0.0,0.0,0.0,0.0,0.0,0.0,0.0,0.0,0.0,0.0,0.0,0.0,0.0,0.0,0.0,0.0,0.0,0.0,0.0,0.0,0.0,0.0,0.0,0.0,0.0,0.0,0.0,-2.3216,-2.6036,-2.6472,-2.5052,-2.4049,0.0,0.0,0.0,0.0,0.0,0.0,0.0,0.0,0.0,-2.2653,-2.3323,-2.3603,-2.3497,-2.3611,-2.4227,-2.5232,-2.4146,-2.548,-2.8802,-2.7428,-2.7992,-3.0163,-2.9907,-3.0341,-3.1397,-3.2696,-3.3266,-3.3565,0.0,0.0,0.0,0.0,-3.5719,-3.5504,-3.5504,-3.5504,-3.5644,-3.634,0.0,0.0,0.0,0.0,0.0,0.0,0.0,-4.007,-4.007,-4.007,-4.007,-4.007,-4.007,-4.007,-4.007,-3.975,-3.9564,-4.0003,-3.9935,-3.9834,-4.0054,-3.9009,0.0,0.0,0.0,-3.5329,-3.4578,-3.4236,-3.4027,-3.4018,-3.3192,-3.2632,-3.2573,-3.1895,-3.1482,-3.1482,-3.185,-3.2176,-3.2473,-3.2856,-3.3359,0.0,0.0,0.0,0.0,0.0,0.0,0.0,0.0,0.0,0.0,0.0,0.0,0.0,0.0,0.0,0.0,0.0,0.0,0.0,0.0,0.0,0.0,0.0,0.0,0.0,0.0,0.0,0.0,-2.4945,-2.6778,-2.6565,-2.5221,-2.4382,0.0,0.0,0.0,0.0,0.0,0.0,-2.0305,-2.0124,-2.0395,-2.1293,-2.2492,-2.2562,-2.1319,-2.2501,-2.2959,-2.2572,-2.2921,-2.4702,-2.7633,-2.6829,-2.7729,-2.9792,-2.9792,-3.0329,-3.1293,-3.2787,-3.3215,-3.3202,-3.5365,-3.5954,-3.5504,-3.5504,-3.5504,-3.5504,-3.5504,-3.5504,-3.5644,-3.634,-3.7278,-3.8201,-3.898,0.0,0.0,0.0,0.0,-4.007,-4.007,-4.007,-4.007,-4.007,-3.9951,-3.9796,-3.98,-3.9177,-3.8841,-3.9632,-3.9177,-3.8738,-3.9185,-3.7876,0.0,-3.6307,-3.5399,-3.4414,-3.3696,-3.3437,-3.3345,-3.3356,-3.2725,-3.2309,-3.2309,-3.1835,-3.1482,-3.1482,-3.2131,-3.2581,-3.2736,-3.3406,-3.4103,-3.4732,0.0,0.0,0.0,0.0,0.0,0.0,0.0,0.0,0.0,0.0,0.0,0.0,0.0,0.0,0.0,0.0,0.0,0.0,0.0,0.0,0.0,0.0,0.0,0.0,0.0,0.0,0.0,0.0,0.0,-2.6224,-2.4563,0.0,0.0,0.0,0.0,-1.977,-1.9588,-1.9047,-1.7963,-2.0034,-2.1203,-2.1293,-2.2492,-2.2562,-2.1319,-2.2475,-2.2485,-2.1425,-2.2562,-2.4328,-2.6595,-2.6554,-2.7729,-2.9792,-2.9792,-3.0329,-3.1281,-3.2253,-3.3128,-3.4009,-3.5165,-3.5519,-3.5504,-3.5504,-3.5504,-3.5504,-3.5504,-3.5504,-3.5644,-3.634,-3.7594,-3.8974,-3.9784,-4.0054,0.0,0.0,-4.007,-4.007,-4.007,-4.007,-4.007,-4.007,-3.9537,-3.8942,-3.8973,-3.8405,-3.807,-3.8824,-3.8388,-3.7658,-3.7079,0.0,-3.6342,-3.5002,-3.4727,-3.4436,-3.3686,-3.3058,-3.2631,-3.2664,-3.1998,-3.1569,-3.1569,-3.1539,-3.1482,-3.1482,-3.2131,-3.2811,-3.341,-3.4074,-3.4762,-3.5474,-3.5474,0.0,0.0,0.0,0.0,0.0,0.0,0.0,0.0,0.0,0.0,0.0,0.0,0.0,0.0,0.0,0.0,0.0,0.0,0.0,0.0,0.0,0.0,0.0,0.0,0.0,0.0,0.0,0.0,-2.6307,-2.3826,0.0,-2.295,-2.1284,-1.9951,-1.9497,-1.8772,-1.8141,-1.7692,-1.9222,-2.0124,-2.0124,-2.1344,-2.1761,-2.1319,-2.1752,-2.1752,-2.1319,-2.3271,-2.5037,-2.6486,-2.7198,-2.8358,-2.9792,-2.9792,-3.0329,-3.1254,-3.2181,-3.3143,-3.4118,-3.5085,-3.5504,-3.5504,-3.5504,-3.5504,-3.5504,-3.5504,-3.5504,-3.5721,-3.6927,-3.7744,-3.8351,-3.9127,-3.9676,-4.0003,-3.9463,-3.9682,-4.007,-4.007,-4.007,-3.9986,-3.9478,-3.9121,-3.8776,-3.8273,-3.7578,-3.7006,-3.6836,-3.6899,-3.6999,-3.6816,-3.5592,-3.4541,-3.4098,-3.3276,-3.2561,-3.2279,-3.2028,-3.188,-3.188,-3.1687,-3.1482,-3.1482,-3.1482,-3.1702,-3.2131,-3.2755,-3.3457,-3.4139,-3.4762,-3.524,-3.5504,-3.5504,-3.5504,0.0,0.0,0.0,0.0,0.0,0.0,0.0,0.0,0.0,0.0,0.0,0.0,0.0,0.0,0.0,0.0,0.0,0.0,0.0,0.0,0.0,0.0,0.0,0.0,0.0,-2.3268,-2.3441,-2.4523,-2.229,-2.1007,-2.1771,-2.0008,-1.8864,-1.8864,-1.777,-1.7037,-1.7037,-1.8226,-1.9039,-1.9497,-2.0295,-2.0882,-2.1291,-2.1304,-2.1319,-2.1328,-2.372,-2.5432,-2.6557,-2.7584,-2.8737,-2.9792,-2.9792,-3.0329,-3.1254,-3.2212,-3.3168,-3.4118,-3.5085,-3.5504,-3.5504,-3.5504,-3.5504,-3.5504,-3.5504,-3.5659,-3.6031,-3.7074,-3.7582,-3.7883,-3.8372,-3.8893,-3.9265,-3.8997,-3.9306,-3.9763,-4.0037,-3.9901,-3.9573,-3.9021,-3.8518,-3.7947,-3.7219,-3.645,-3.5689,-3.5026,-3.5394,-3.5799,-3.5394,-3.4106,-3.3142,-3.2993,-3.2131,-3.1482,-3.1482,-3.1482,-3.1482,-3.1482,-3.1275,-3.1187,-3.1467,-3.1275,-3.1482,-3.2443,-3.314,-3.3815,-3.449,-3.5165,-3.5504,-3.5504,-3.5504,-3.5644,-3.5859,0.0,0.0,0.0,0.0,0.0,0.0,0.0,0.0,0.0,0.0,0.0,0.0,0.0,0.0,0.0,0.0,0.0,0.0,0.0,0.0,0.0,0.0,0.0,-2.0597,-2.0146,-1.9901,-2.0873,-2.0056,-1.9397,-1.9306,-1.8311,-1.7591,-1.7498,-1.6379,-1.573,-1.573,-1.6943,-1.8226,-1.9405,-1.9422,-2.0065,-2.1298,-2.1282,-2.131,-2.1425,-2.374,-2.5462,-2.6516,-2.7627,-2.875,-2.9792,-2.9792,-3.0316,-3.1255,-3.2136,-3.3101,-3.4089,-3.507,-3.5504,-3.5504,-3.5504,-3.5504,-3.5504,-3.5504,-3.5984,-3.6591,-3.6607,-3.7121,-3.7747,-3.7778,-3.7763,-3.7932,-3.8617,-3.8841,-3.9029,-3.9833,-3.942,-3.8821,-3.8821,-3.7652,-3.6366,-3.5685,-3.4988,-3.4257,-3.363,-3.4015,-3.4015,-3.2703,-3.2524,-3.2279,-3.1599,-3.1482,0.0,-3.1482,-3.1467,-3.1452,-3.1452,-3.0746,-3.0557,-3.1351,-3.0703,-3.0893,-3.2324,-3.3051,-3.3797,-3.4454,-3.5165,-3.5504,-3.5504,-3.5504,-3.5844,-3.6607,0.0,0.0,0.0,0.0,0.0,0.0,0.0,0.0,0.0,0.0,0.0,0.0,0.0,0.0,0.0,0.0,0.0,0.0,0.0,0.0,0.0,-1.4345,-1.6713,-1.9538,-1.9654,-1.9273,-1.8613,-1.8341,-1.7446,-1.5584,-1.5076,-1.4536,-1.3573,-1.3199,-1.3397,-1.4364,-1.5569,-1.6886,-1.8141,-1.8198,-1.9165,-2.129,-2.0394,-2.0878,-2.2669,-2.4939,-2.6195,-2.6527,-2.8484,-2.9512,-2.9792,-2.9792,-2.9932,-3.0291,-3.1164,-3.2128,-3.3122,-3.4857,-3.5504,-3.5504,-3.5504,-3.5504,-3.5504,-3.5504,-3.5644,-3.5859,-3.6451,-3.6733,-3.6956,-3.6911,-3.7359,-3.7717,-3.7329,-3.7621,-3.8157,-3.839,-3.7913,-3.723,-3.6663,-3.5853,-3.5025,-3.4212,-3.392,-3.3576,-3.2919,-3.2919,-3.2946,-3.2542,-3.2494,-3.2279,-3.1599,-3.1482,-3.1482,-3.1482,-3.101,-3.0629,-3.0629,-2.9842,-2.9454,-2.9659,-2.9501,-2.9929,-3.1172,-3.2057,-3.3064,-3.4103,-3.5026,-3.5504,-3.5504,-3.5504,-3.5844,0.0,0.0,0.0,0.0,0.0,0.0,0.0,0.0,0.0,0.0,0.0,0.0,0.0,0.0,0.0,0.0,0.0,0.0,0.0,0.0,0.0,0.0,-1.2818,-1.4638,-1.6101,-1.6771,-1.6664,-1.5308,-1.5259,-1.4709,-1.3149,-1.308,-1.2721,-1.1945,-1.1945,-1.2522,-1.3872,-1.4518,-1.5745,-1.7639,-1.7143,-1.8316,-2.1275,-2.006,-2.0754,-2.3144,-2.4939,-2.6067,-2.6527,-2.8256,-2.9372,-2.9792,-2.9792,-2.9792,-2.9907,-3.1255,-3.2131,-3.2737,0.0,0.0,0.0,0.0,-3.5504,-3.5504,-3.5504,-3.5504,-3.5549,-3.5999,-3.6125,-3.6166,-3.6148,-3.6274,-3.6378,-3.6257,-3.6354,-3.6542,-3.6869,-3.6437,-3.5812,-3.5307,-3.4675,-3.3969,-3.3212,-3.3106,-3.285,-3.2214,-3.2065,0.0,-3.2101,-3.2101,-3.1968,-3.1569,-3.1482,-3.1407,-3.104,-3.06,-3.0162,-2.9817,-2.8969,-2.8607,-2.8968,-2.8682,0.0,0.0,0.0,-3.2317,-3.3914,-3.4996,0.0,0.0,0.0,-3.6155,-3.6622,-3.7747,0.0,0.0,-3.975,-4.007,0.0,0.0,0.0,0.0,0.0,0.0,0.0,0.0,0.0,0.0,0.0,0.0,0.0,0.0,0.0,0.0,-1.1072,-1.1848,-1.175,-1.2716,-1.3006,-1.1848,-1.1848,-1.175,-1.1463,-1.1556,-1.1658,-1.1658,-1.1658,-1.2328,-1.3776,-1.3878,0.0,0.0,0.0,-1.7409,-2.0855,-1.9956,-2.0649,-2.2921,-2.421,-2.5369,-2.6526,-2.761,-2.8737,-2.9792,-2.9792,-2.9792,-2.9932,-3.1694,-3.2574,-3.288,-3.3801,-3.4718,-3.5504,-3.5504,-3.5504,-3.5504,-3.5504,0.0,0.0,-3.5385,-3.534,-3.528,-3.528,-3.4846,-3.454,-3.52,-3.4963,-3.4747,-3.5348,-3.4996,-3.4465,-3.4465,-3.3847,-3.308,-3.2406,-3.2256,-3.2063,-3.1366,-3.1202,-3.1202,-3.1202,-3.1304,-3.1334,-3.1334,-3.1289,-3.0995,-3.0235,-3.0061,-2.9709,-2.8944,-2.8105,0.0,-2.8628,-2.7997,-2.8386,-3.0391,-3.0786,-3.1911,-3.3893,-3.4996,-3.5504,-3.5504,-3.6185,-3.6615,-3.6626,-3.8168,-3.89,-3.8891,-3.975,-4.007,0.0,0.0,0.0,0.0,0.0,0.0,0.0,0.0,0.0,0.0,0.0,0.0,0.0,0.0,0.0,-1.0002,-1.1072,-1.1556,-1.0489,-1.0583,-1.0681,-1.0386,-1.1263,-1.1068,-0.892,-0.9702,-1.0386,-1.0386,-1.0386,-1.1356,-1.3776,-1.3902,-1.458,-1.6089,-1.5913,-1.6623,-1.8403,-1.9125,-2.021,-2.1664,-2.375,0.0,-2.6527,-2.7611,-2.8737,-2.9792,-2.9792,-2.9792,-2.9907,-3.0997,-3.2367,-3.3806,-3.4794,-3.5335,-3.5504,-3.5504,-3.5504,-3.5504,-3.5504,-3.5179,-3.4718,-3.4718,-3.434,-3.3888,-3.3888,-3.3799,0.0,-3.3848,-3.3819,-3.3774,-3.3939,-3.3426,-3.293,-3.293,-3.2405,-3.1664,-3.0901,-3.0702,-3.0485,-2.9624,-2.9464,-2.9464,-2.9464,-3.0075,-3.0513,-3.0513,-2.9944,-2.9435,-2.9291,-2.8628,-2.8104,-2.7945,-2.725,-2.6797,-2.6998,-2.681,-2.7263,-2.8507,-3.09,-3.2772,-3.3973,-3.4996,-3.5504,-3.5504,-3.6185,-3.663,-3.6572,-3.8146,-3.8899,-3.8891,-3.975,-4.007,0.0,0.0,0.0,0.0,0.0,0.0,0.0,0.0,0.0,0.0,0.0,-0.4435,-0.5739,0.0,-0.9267,-0.9027,-0.9509,-0.9702,-0.9118,-0.9019,-0.9019,-0.9019,-0.9604,-0.941,-0.8137,-0.9217,-0.9998,-0.9998,-1.0583,-1.1843,-1.3776,-1.3913,-1.4502,-1.573,-1.5832,-1.67,-1.8578,-1.9201,-2.0433,-2.2224,-2.3974,-2.5068,-2.5717,-2.7325,-2.8382,-2.8991,-2.9537,-2.9792,-2.9921,-3.1322,-3.2526,-3.3659,-3.4608,-3.5195,-3.5489,-3.5085,-3.4988,-3.4972,-3.4598,-3.4265,-3.4014,-3.398,-3.38,-3.3499,-3.3499,-3.326,-3.3006,-3.3006,-3.2766,-3.2512,-3.2512,-3.2273,-3.1901,-3.15,-3.1131,-3.0689,-2.9836,-2.9661,-2.9511,-2.9087,-2.9002,-2.9002,-2.9002,-2.9002,-2.9135,-2.961,-2.9267,-2.8856,-2.8397,-2.7934,-2.7528,-2.7143,-2.6772,-2.6533,-2.6533,-2.6772,-2.7253,-2.8047,-3.0648,-3.2502,-3.3267,-3.4732,-3.5504,-3.5504,-3.6622,-3.7165,-3.7186,-3.8774,-3.948,-3.948,-3.9935,-4.007,0.0,0.0,0.0,0.0,0.0,0.0,0.0,0.9585,0.6084,0.4997,0.2207,-0.1306,-0.5639,-0.7269,-0.7979,-0.7952,-0.8041,-0.8038,-0.8038,-0.8038,-0.8038,-0.8038,-0.8038,-0.8038,-0.8038,-0.9019,-0.9801,-1.0288,-1.1361,-1.2624,-1.4166,-1.4298,-1.479,-1.5737,-1.6048,-1.7137,-1.9138,-1.9625,-2.0798,-2.2795,-2.3964,-2.4615,-2.4828,-2.692,-2.792,-2.813,-2.9282,-2.9907,-3.0138,-3.1609,-3.2421,-3.2912,-3.3574,-3.4267,-3.4786,-3.4435,-3.4303,-3.4241,-3.3683,-3.3412,-3.3322,-3.3321,-3.3215,-3.311,-3.311,-3.2736,-3.2317,-3.2317,-3.1943,-3.1482,-3.1482,-3.1409,-3.1087,-3.045,-3.0147,-2.9818,-2.8934,-2.8746,-2.8719,-2.8567,-2.8494,-2.8494,-2.8494,-2.789,-2.7756,-2.8615,-2.8615,-2.8252,-2.7528,-2.749,-2.725,-2.6559,-2.6533,-2.6533,-2.6533,-2.7011,-2.7556,-2.8037,-3.0228,-3.181,-3.2565,-3.4286,-3.532,-3.5504,-3.6995,-3.7799,-3.782,-3.9362,-4.007,-4.007,-4.007,-4.007,2.605,2.4729,2.3133,2.0992,1.9519,1.8385,0.0,1.3642,0.9527,0.7895,0.3497,-0.02,-0.0801,-0.4818,-0.7972,-0.7969,-0.7952,-0.8038,-0.8038,-0.8038,-0.8038,-0.8038,-0.8038,-0.8038,-0.8038,-0.8137,-0.9217,-1.1556,-1.1848,-1.3011,-1.5439,-1.5635,-1.5635,-1.5832,-1.6911,-1.7582,-1.7903,-2.0017,-2.1225,-2.154,-2.2698,-2.3811,-2.4824,-2.6089,-2.7175,-2.813,-2.9282,-3.0303,-3.0997,-3.0739,-3.1178,-3.189,-3.1527,-3.187,-3.2628,-3.3345,-3.3597,-3.3594,-3.3532,-3.3096,-3.2602,-3.2617,-3.2228,-3.1691,-3.1691,-3.1646,-3.1586,-3.1586,-3.1541,-3.1482,-3.1482,-3.097,-3.0389,-3.0329,-2.969,-2.8925,-2.8011,-2.7853,-2.7657,-2.6939,-2.6784,-2.6784,-2.6784,-2.6678,-2.6904,-2.773,-2.725,-2.6772,-2.6665,-2.6653,-2.6571,-2.6533,-2.6533,-2.6533,-2.6533,-2.7011,-2.7511,-2.8105,-2.9689,-3.1209,-3.2551,-3.3644,-3.4593,-3.5489,-3.6995,-3.7799,-3.782,-3.9362,-4.007,-4.007,-4.007,-4.007,2.6824,2.5812,2.4786,2.2506,2.1135,1.9868,1.792,1.5458,1.2544,0.8773,0.6187,0.369,0.06,-0.1803,-0.4414,-0.7463,-0.7965,-0.7955,-0.8041,-0.8038,-0.8038,-0.8038,-0.8038,-0.8038,-0.8038,-0.941,-1.0676,-1.1848,-1.3301,-1.4663,-1.573,-1.5832,-1.5832,-1.5832,-1.7028,-1.8077,-1.8715,-2.0448,-2.1655,-2.2349,-2.3505,-2.4029,-2.3888,-2.6292,-2.8038,-2.9118,-2.9245,-2.9512,-2.9894,-2.9894,-2.9891,-2.9915,-3.0285,-3.0417,-3.0475,-3.1723,-3.2458,-3.2889,-3.2449,-3.2167,-3.1811,-3.1367,-3.1057,-3.0777,-3.0777,-3.0777,-3.0777,-3.0777,-3.0777,-3.0703,-3.0208,-2.9827,-2.9442,-2.8939,-2.8492,-2.8051,-2.7162,-2.6989,-2.6896,-2.6577,-2.6533,-2.6533,-2.6533,-2.6533,-2.664,-2.6929,-2.669,-2.6308,-2.5716,-2.5623,-2.5399,-2.4824,-2.5281,-2.5623,-2.5623,-2.6333,-2.7169,-2.8023,-2.9198,-3.0482,-3.1753,-3.3211,-3.4177,-3.4608,-3.628,-3.732,-3.782,-3.8858,-3.9632,-4.007,-4.007,-4.007,2.8429,2.7354,2.6451,2.4255,2.2673,2.1053,1.8737,1.6813,1.4376,1.04,0.8765,0.679,0.2902,0.1001,-0.1302,-0.5122,-0.7054,-0.7972,-0.7952,-0.8048,-0.8045,-0.8038,-0.8038,-0.8038,-0.8038,-0.9702,-1.097,-1.1351,-1.3091,-1.4536,-1.5197,-1.5298,-1.5406,-1.5825,-1.7028,-1.8326,-1.9468,-2.0667,-2.1895,-2.3144,-2.3964,-2.3867,-2.3242,-2.6227,-2.8339,-2.9524,-2.9118,-2.8808,-2.8712,-2.885,-2.8635,-2.8239,-2.8844,-2.8871,-2.8741,-2.9813,-3.0788,-3.1442,-3.0984,-3.0837,-3.0703,-3.0133,-2.995,-2.995,-2.995,-2.995,-2.995,-2.995,-2.995,-2.9827,-2.9192,-2.8812,-2.8492,-2.7855,-2.755,-2.7229,-2.6658,-2.6533,-2.6533,-2.6533,-2.6296,-2.6083,-2.6083,-2.5859,-2.5647,-2.5647,-2.5647,-2.5505,-2.5059,-2.4777,-2.4271,-2.3589,-2.4141,-2.4696,-2.499,-2.5647,-2.6571,-2.7769,-2.8673,-2.9664,-3.0971,-3.2687,-3.3725,-3.3994,-3.5689,-3.6894,-3.7487,-3.845,-3.9211,-3.9783,-4.0003,-4.007,3.1387,2.9932,2.8302,2.6604,2.415,2.1941,2.1491,1.8145,1.4823,1.3832,1.0599,0.7905,0.7759,0.3509,-0.01,-0.02,-0.4622,-0.7985,-0.7972,-0.7972,-0.7965,-0.8041,-0.8038,-0.8038,-0.8038,-0.8038,-0.8616,-0.996,-1.0151,-1.1288,-1.3832,-1.3927,-1.4551,-1.573,-1.7028,-1.8326,-1.9468,-2.0667,-2.1895,-2.3135,-2.3144,-2.3144,-2.3202,-2.5525,-2.7424,-2.8901,-2.8889,-2.8574,-2.8088,-2.7593,-2.7339,-2.7276,-2.6797,-2.7049,-2.7743,-2.7786,-2.8385,-2.9079,-2.9066,-2.9066,-2.9066,-2.9066,-2.9066,-2.9066,-2.9066,-2.9066,-2.9066,-2.9066,-2.9066,-2.9002,-2.9002,-2.8363,-2.7736,-2.7736,-2.7095,-2.6521,-2.6533,-2.6533,-2.6533,-2.6533,-2.5728,-2.5059,-2.5059,-2.4265,-2.3616,-2.3616,-2.3616,-2.394,-2.4848,-2.4135,-2.35,-2.349,-2.35,-2.3966,-2.4912,-2.5046,-2.5716,-2.725,-2.7817,-2.8852,-3.0341,-3.1862,-3.3033,-3.3944,-3.5689,-3.6591,-3.666,-3.8144,-3.8891,-3.8975,-3.975,-4.007,3.2206,3.1225,3.0024,2.8293,2.6357,2.4657,2.3608,2.1355,1.8816,1.6605,1.4528,1.2052,0.8627,0.6534,0.4112,0.0601,-0.1505,-0.3518,-0.5932,-0.7253,-0.7965,-0.8041,-0.7952,-0.7955,-0.8041,-0.881,-0.9505,-0.9949,-1.0792,-1.1991,-1.3832,-1.3921,-1.445,-1.573,-1.7028,-1.83,-1.9518,-2.0704,-2.1895,-2.3135,-2.3135,-2.3505,-2.4277,-2.5833,-2.699,-2.7883,-2.821,-2.8087,-2.7516,-2.7011,-2.6784,-2.6772,-2.6559,-2.6665,-2.6904,-2.6904,-2.7075,-2.7604,-2.9254,-2.9504,-2.9002,-2.9002,-2.862,-2.8117,-2.8117,-2.8117,-2.8117,-2.8117,-2.8117,-2.7986,-2.7484,-2.7095,-2.6905,-2.6905,-2.6714,-2.6533,-2.6533,-2.6533,-2.6533,-2.6533,-2.5716,-2.4965,-2.4985,-2.4179,-2.3293,-2.2638,-2.2531,-2.2649,-2.297,-2.2203,-2.1592,-2.1592,-2.2133,-2.2653,-2.3014,-2.3638,-2.4626,-2.6202,-2.6793,-2.7827,-2.9334,-3.0855,-3.2112,-3.3042,-3.4271,-3.5474,-3.6622,-3.7669,-3.84,-3.8891,-3.975,-4.007,3.3284,3.264,3.1777,3.0261,2.8732,2.7378,2.663,2.4481,2.1982,1.9655,1.8018,1.556,1.0909,0.895,0.6637,0.2603,0.1607,0.0301,-0.3004,-0.5016,-0.6531,-0.7839,-0.7952,-0.7749,-0.7123,-0.8403,-0.9316,-0.9275,-1.0023,-1.1263,-1.3113,-1.3177,-1.4028,-1.573,-1.6592,-1.7801,-1.9478,-2.0236,-2.1443,-2.3135,-2.3135,-2.373,-2.479,-2.5424,-2.6177,-2.7008,-2.7176,-2.7156,-2.7011,-2.6653,-2.6533,-2.6533,-2.6533,-2.6533,-2.6533,-2.6533,-2.6533,-2.6714,-2.8363,-2.8556,-2.8117,-2.8117,-2.7736,-2.7297,-2.7297,-2.7297,-2.7297,-2.7297,-2.7297,-2.7162,-2.6658,-2.6533,-2.6383,-2.6025,-2.5943,-2.5873,-2.5499,-2.5429,-2.5426,-2.546,-2.4614,-2.3944,-2.3919,-2.3115,-2.2242,-2.1602,-2.1494,-2.1494,-2.1494,-2.0966,-2.0566,-2.0566,-2.1171,-2.1612,-2.1937,-2.2594,-2.3724,-2.5409,-2.6042,-2.6984,-2.8537,-3.0072,-3.1457,-3.2584,-3.3541,-3.4732,-3.6185,-3.7292,-3.803,-3.8505,-3.9598,-4.007,3.4655,3.4165,3.3471,3.2634,3.115,3.0017,3.0287,2.7449,2.4344,2.3001,2.1019,1.8366,1.469,1.0801,0.7624,0.5822,0.483,0.3218,0.04,-0.15,-0.3904,-0.7534,-0.8041,-0.7329,-0.5603,-0.7024,-0.8045,-0.8038,-0.8038,-0.9172,-1.179,-1.1864,-1.3093,-1.5724,-1.5832,-1.702,-1.9478,-1.9659,-2.0869,-2.3135,-2.3135,-2.3632,-2.4692,-2.4435,-2.5061,-2.6387,-2.5995,-2.6096,-2.6533,-2.6533,-2.6533,-2.6533,-2.6533,-2.6533,-2.6533,-2.6533,-2.6533,-2.6533,-2.6533,-2.6533,-2.6533,-2.6521,-2.6521,-2.6533,-2.6533,-2.6533,-2.6533,-2.6533,-2.6533,-2.6533,-2.6533,-2.6452,-2.6164,-2.5229,-2.4933,-2.4636,-2.3745,-2.3526,-2.3492,-2.3479,-2.2685,-2.1964,-2.1952,-2.1181,-2.0566,-2.0566,-2.0557,-2.0547,-2.0566,-2.0566,-2.0566,-2.0566,-2.0566,-2.0966,-2.1829,-2.1927,-2.2776,-2.4704,-2.5433,-2.6426,-2.7977,-2.9487,-3.101,-3.2552,-3.3463,-3.444,-3.5504,-3.6995,-3.778,-3.7853,-3.9362,-4.0054,3.5822,3.5172,3.4308,3.4085,3.294,3.1983,3.2269,3.0563,2.8405,2.6703,2.4586,2.1697,1.7281,1.3999,1.0863,0.7813,0.7153,0.5334,0.07,-0.0402,-0.2513,-0.7434,-0.7962,-0.7272,-0.5557,-0.6995,-0.8006,-0.8045,-0.8038,-0.9172,-1.179,-1.1864,-1.3093,-1.5724,-1.5832,-1.702,-1.9478,-2.1248,-2.2465,-2.3135,-2.3135,-2.3135,-2.3144,-2.4574,-2.5082,-2.4902,-2.6331,-2.6772,-2.6533,-2.6533,-2.6533,-2.6533,-2.6533,-2.6533,-2.6533,-2.6533,-2.6533,-2.6533,-2.6533,-2.6533,-2.6589,-2.7229,-2.6973,-2.6533,-2.6533,-2.6533,-2.6533,-2.6533,-2.6533,-2.6533,-2.6533,-2.5955,-2.53,-2.5087,-2.4409,-2.3818,-2.3588,-2.3501,-2.3512,-2.348,-2.272,-2.1745,-2.1101,-2.0761,-2.0566,-2.0566,-1.9936,-1.9724,-2.0459,-2.0566,-2.0566,-2.0566,-2.0566,-2.0664,-2.0966,-2.0966,-2.1494,-2.2678,-2.3982,-2.5395,-2.6905,-2.8487,-3.0329,-3.2539,-3.2862,-3.3812,-3.5504,-3.6466,-3.7194,-3.7836,-3.8791,-3.9547,3.637,3.5898,3.5329,3.5116,3.4011,3.3155,3.3671,3.2421,3.0819,2.9579,2.7897,2.5368,2.12,1.7484,1.3968,1.1001,0.9088,0.6942,0.3901,0.2203,-0.0201,-0.4017,-0.657,-0.7305,-0.5581,-0.6995,-0.7985,-0.8041,-0.8038,-0.9172,-1.179,-1.1864,-1.3093,-1.5724,-1.5832,-1.6951,-1.9479,-2.1328,-2.2572,-2.3135,-2.3135,-2.2911,-2.2543,-2.3507,-2.4068,-2.426,-2.4777,-2.5529,-2.6452,-2.599,-2.6083,-2.6533,-2.6533,-2.6533,-2.6533,-2.6533,-2.6533,-2.6533,-2.6533,-2.6533,-2.6589,-2.704,-2.6837,-2.6533,-2.6533,-2.6533,-2.6383,-2.5955,-2.5873,-2.5734,-2.5288,-2.4767,-2.4264,-2.3818,-2.322,-2.2702,-2.2339,-2.2208,-2.2067,-2.159,-2.1084,-2.0353,-1.9329,-1.9136,-1.9136,-1.9136,-1.8629,-1.8494,-1.9075,-1.9131,-1.9136,-1.9136,-1.9627,-1.9927,-1.9927,-2.0343,-2.0976,-2.1927,-2.282,-2.4258,-2.649,-2.7458,-2.9384,-3.2539,-3.2597,-3.355,-3.5504,-3.6265,-3.7002,-3.7826,-3.8579,-3.9345,3.6688,3.6515,3.6282,3.5836,3.4695,3.3917,3.4453,3.3486,3.2277,3.1746,3.0623,2.8668,2.5253,2.0788,1.6852,1.4185,1.0843,0.835,0.8041,0.5397,0.2599,0.0303,-0.4152,-0.6303,-0.4865,-0.6659,-0.7852,-0.7543,-0.7842,-0.9069,-1.1477,-1.1854,-1.3093,-1.5724,-1.615,-1.7301,-1.9462,-2.0844,-2.2098,-2.3135,-2.3135,-2.2814,-2.2408,-2.2211,-2.2821,-2.4026,-2.2903,-2.3989,-2.6412,-2.5534,-2.5728,-2.6533,-2.6533,-2.6533,-2.6533,-2.6533,-2.6533,-2.6533,-2.6533,-2.6533,-2.6533,-2.6533,-2.6533,-2.6533,-2.6533,-2.6383,-2.6094,-2.5229,-2.4933,-2.4564,-2.3745,-2.3368,-2.3073,-2.2178,-2.1886,-2.1593,-2.0789,-2.0566,-2.0256,-1.9223,-1.9036,-1.8644,-1.7473,-1.7274,-1.7274,-1.7274,-1.7178,-1.7095,-1.7119,-1.7212,-1.7274,-1.7274,-1.8153,-1.8879,-1.9031,-1.9839,-2.0771,-2.172,-2.1927,-2.3285,-2.6153,-2.6521,-2.8484,-3.2396,-3.2569,-3.355,-3.5504,-3.614,-3.6934,-3.7827,-3.8449,-3.9228,3.7541,3.7031,3.6395,3.6265,3.5329,3.4454,3.4572,3.4321,3.3804,3.2975,3.1688,2.9744,2.6461,2.28,1.8926,1.4532,1.2323,1.0423,0.8247,0.7428,0.5316,0.0605,-0.0808,-0.1313,-0.101,-0.5267,-0.7107,-0.4853,-0.6745,-0.866,-1.0216,-1.1342,-1.3093,-1.5724,-1.7793,-1.906,-1.9544,-2.1706,-2.2911,-2.3135,-2.3135,-2.2698,-2.2051,-2.2766,-2.3272,-2.3666,-2.4248,-2.5266,-2.651,-2.6291,-2.6321,-2.6533,-2.6533,-2.6533,-2.6533,-2.6533,-2.6533,-2.6533,-2.6533,-2.6533,-2.6533,-2.6533,-2.6533,-2.6533,-2.6533,-2.5955,-2.5229,-2.5075,-2.4409,-2.3745,-2.3526,-2.285,-2.2253,-2.2027,-2.1451,-2.0789,-2.0644,-2.0566,-2.0256,-1.9223,-1.8959,-1.8614,-1.7489,-1.729,-1.729,-1.729,-1.6589,-1.5959,-1.6002,-1.6789,-1.729,-1.729,-1.7489,-1.7975,-1.8912,-1.9136,-1.9733,-2.0771,-2.1592,-2.278,-2.4653,-2.5881,-2.8256,-3.185,-3.2347,-3.355,-3.5504,-3.5644,-3.6436,-3.7812,-3.791,-3.8774,3.7913,3.7535,3.7052,3.6524,3.569,3.4944,3.4641,3.4564,3.4388,3.3908,3.3122,3.1772,2.9101,2.5297,2.1514,1.8126,1.4304,1.1368,1.0112,0.8862,0.703,0.4422,0.1712,-0.0,-0.0,-0.3543,-0.5379,-0.4051,-0.5151,-0.6853,-0.8866,-1.1448,-1.3507,-1.4766,-1.6592,-1.789,-1.8581,-2.0368,-2.1549,-2.2127,-2.2572,-2.2465,-2.1936,-2.211,-2.2361,-2.2703,-2.2688,-2.3547,-2.4903,-2.4365,-2.4486,-2.4966,-2.5517,-2.5728,-2.5753,-2.6308,-2.6533,-2.6452,-2.5873,-2.5734,-2.5652,-2.5134,-2.5652,-2.6383,-2.5886,-2.537,-2.4791,-2.3734,-2.3073,-2.2627,-2.2113,-2.1593,-2.1298,-2.1298,-2.0527,-1.9806,-1.9771,-1.9319,-1.8542,-1.7467,-1.7286,-1.693,-1.5834,-1.5635,-1.5635,-1.5635,-1.524,-1.486,-1.486,-1.5339,-1.5635,-1.5635,-1.6132,-1.6659,-1.7204,-1.8355,-1.9223,-1.9733,-2.0751,-2.2154,-2.4238,-2.5303,-2.7718,-3.1681,-3.2319,-3.355,-3.5504,-3.5504,-3.6295,-3.7812,-3.7828,-3.864,3.8187,3.7992,3.7675,3.6794,3.6087,3.5493,3.4953,3.4904,3.4945,3.4771,3.4454,3.3566,3.1422,2.7834,2.4337,2.1484,1.6965,1.3344,1.1979,1.0108,0.8656,0.8041,0.4321,0.1512,0.0909,-0.2123,-0.4253,-0.4764,-0.4857,-0.6055,-0.8663,-1.1731,-1.3712,-1.4248,-1.5514,-1.6686,-1.766,-1.8929,-2.0007,-2.0887,-2.1761,-2.1919,-2.1532,-2.1281,-2.1494,-2.1953,-2.123,-2.1854,-2.3429,-2.2663,-2.2894,-2.3909,-2.4677,-2.5152,-2.5399,-2.6202,-2.6533,-2.6383,-2.537,-2.5004,-2.4862,-2.3818,-2.4541,-2.5721,-2.4933,-2.4564,-2.4036,-2.2478,-2.1886,-2.1517,-2.0789,-2.0411,-2.0167,-1.9923,-1.9256,-1.8629,-1.8608,-1.7908,-1.6977,-1.5934,-1.5723,-1.5346,-1.4277,-1.4088,-1.4088,-1.4088,-1.4088,-1.4088,-1.4088,-1.4088,-1.4088,-1.4088,-1.4853,-1.5445,-1.5643,-1.7538,-1.8768,-1.8953,-2.0033,-2.17,-2.4017,-2.4718,-2.6996,-3.1229,-3.2041,-3.3369,-3.5195,-3.5379,-3.6295,-3.7812,-3.7828,-3.864,3.8652,3.8261,3.7765,3.7267,3.6696,3.6197,3.5707,3.605,3.6307,3.5643,3.5305,3.425,3.1495,2.992,2.7255,2.1863,2.0563,1.817,1.262,1.1582,1.0631,0.8247,0.7537,0.6339,0.3844,-0.101,-0.4968,-0.7437,-0.7682,-0.877,-1.1373,-1.187,-1.3171,-1.5527,-1.6816,-1.7538,-1.7675,-1.8895,-1.9545,-1.9669,-2.0438,-2.066,-2.0175,-2.0927,-2.1494,-2.2015,-2.1881,-2.2457,-2.3525,-2.3416,-2.3974,-2.4842,-2.4933,-2.5529,-2.6333,-2.6452,-2.6533,-2.6383,-2.537,-2.5004,-2.4862,-2.3818,-2.3661,-2.3734,-2.3672,-2.2999,-2.2253,-2.2027,-2.1375,-2.0712,-2.0644,-1.9844,-1.8877,-1.7827,-1.7493,-1.7481,-1.7464,-1.7395,-1.6977,-1.5934,-1.5723,-1.5346,-1.4277,-1.4088,-1.4088,-1.4088,-1.4088,-1.4088,-1.4088,-1.4088,-1.4088,-1.4088,-1.4179,-1.4656,-1.5635,-1.6752,-1.7935,-1.8903,-2.0033,-2.1494,-2.3466,-2.4066,-2.6056,-2.9626,-3.1171,-3.2638,-3.4133,-3.5056,-3.6295,-3.7812,-3.7828,-3.864,3.8707,3.853,3.8261,3.7741,3.7261,3.6842,3.6791,3.6713,3.6638,3.6293,3.6182,3.5365,3.3231,3.1496,2.9465,2.6598,2.3253,1.9909,1.6685,1.4364,1.2109,0.9486,0.8453,0.754,0.6548,0.4518,0.1405,-0.2831,-0.6142,-0.8453,-0.9486,-1.1063,-1.2427,-1.3412,-1.5507,-1.6585,-1.6585,-1.7793,-1.8277,-1.811,-1.9553,-2.0087,-1.9743,-2.0547,-2.0966,-2.1171,-2.1171,-2.171,-2.2579,-2.2579,-2.3214,-2.4161,-2.4767,-2.5269,-2.5647,-2.6296,-2.6533,-2.6233,-2.4624,-2.4108,-2.3818,-2.2264,-2.1745,-2.1821,-2.2403,-2.2328,-2.1876,-2.1298,-2.0459,-1.9599,-1.9599,-1.8815,-1.7869,-1.7388,-1.6831,-1.63,-1.6308,-1.5813,-1.5234,-1.4849,-1.4158,-1.3516,-1.3134,-1.2475,-1.2012,-1.2012,-1.2012,-1.2012,-1.2012,-1.2012,-1.2289,-1.2946,-1.3698,-1.4277,-1.467,-1.6323,-1.7524,-1.7917,-1.9627,-2.1494,-2.3444,-2.4042,-2.5923,-2.9411,-3.1042,-3.2528,-3.3994,-3.5026,-3.6295,-3.7812,-3.7828,-3.864,3.8726,3.8707,3.8566,3.8028,3.7667,3.7398,3.747,3.7374,3.7153,3.6787,3.6859,3.634,3.4395,3.2598,3.1044,2.9743,2.5643,2.1978,2.0035,1.7239,1.4398,1.1428,0.9949,0.8969,0.8656,0.8244,0.5824,0.0404,-0.4935,-0.7965,-0.8041,-0.9697,-1.1058,-1.1862,-1.4034,-1.5197,-1.5197,-1.6381,-1.6911,-1.6693,-1.8164,-1.8771,-1.8629,-1.9637,-2.0139,-2.0139,-2.045,-2.0976,-2.1582,-2.1897,-2.2595,-2.3579,-2.4637,-2.5176,-2.5517,-2.6214,-2.6314,-2.5804,-2.4108,-2.3294,-2.2776,-2.1165,-2.0566,-2.0634,-2.0971,-2.1141,-2.0938,-1.9906,-1.9079,-1.8461,-1.808,-1.7426,-1.6637,-1.599,-1.5234,-1.4568,-1.4264,-1.3619,-1.3043,-1.3043,-1.2385,-1.1776,-1.1792,-1.1155,-1.0605,-1.0605,-1.0605,-1.0605,-1.0605,-1.0605,-1.0883,-1.1712,-1.2832,-1.3704,-1.4082,-1.6032,-1.7326,-1.7328,-1.9416,-2.1494,-2.3444,-2.3841,-2.5635,-2.9006,-3.0725,-3.2212,-3.3565,-3.4872,-3.6295,-3.7812,-3.7828,-3.864,3.8762,3.8707,3.8566,3.8028,3.7888,3.783,3.7551,3.8072,3.8238,3.697,3.7261,3.6995,3.4454,3.3245,3.1912,2.9821,2.7765,2.5156,2.1528,2.0062,1.7918,1.4242,1.2618,1.1264,1.0108,0.8763,0.5824,0.0404,-0.4968,-0.8022,-0.8041,-0.8038,-0.9245,-1.1867,-1.3199,-1.3921,-1.3921,-1.488,-1.5406,-1.5393,-1.587,-1.6167,-1.6223,-1.8142,-1.9031,-1.9118,-2.0139,-2.0644,-2.0653,-2.1614,-2.257,-2.3565,-2.46,-2.5623,-2.6452,-2.6533,-2.5873,-2.4862,-2.3818,-2.285,-2.1886,-2.0934,-2.0566,-2.0401,-1.9362,-1.904,-1.8797,-1.7686,-1.7324,-1.705,-1.5982,-1.5693,-1.5131,-1.2866,-1.2379,-1.2012,-1.0905,-1.0636,-1.0642,-1.0642,-1.0642,-1.065,-1.0607,-1.0568,-1.0563,-1.0563,-1.0563,-1.0563,-1.0563,-1.0563,-1.0563,-1.0656,-1.1671,-1.2765,-1.399,-1.6032,-1.7326,-1.7328,-1.9416,-2.1494,-2.3444,-2.3512,-2.4953,-2.8023,-3.0041,-3.1509,-3.2638,-3.4564,-3.6295,-3.7812,-3.7828,-3.864,3.8726,3.8707,3.867,3.8493,3.7937,3.7512,3.7967,3.7661,3.7202,3.6771,3.6859,3.6607,3.524,3.3688,3.2408,3.1701,2.875,2.5756,2.3724,2.1193,1.8018,1.4276,1.112,0.9069,0.866,0.8247,0.6537,0.3031,-0.0505,-0.3335,-0.5151,-0.7045,-0.8825,-1.0583,-1.1835,-1.2964,-1.3921,-1.4028,-1.4396,-1.5136,-1.5826,-1.6385,-1.699,-1.8391,-1.9425,-2.013,-2.045,-2.0966,-2.1561,-2.1876,-2.2563,-2.3536,-2.3862,-2.4587,-2.5372,-2.4685,-2.4708,-2.4779,-2.3073,-2.1769,-2.0767,-1.9816,-1.8948,-1.8141,-1.7082,-1.7826,-1.8632,-1.675,-1.6233,-1.5955,-1.4892,-1.458,-1.4226,-1.2644,-1.2307,-1.2018,-1.0886,-1.0604,-1.0604,-1.0604,-0.9956,-0.9432,-0.9429,-0.879,-0.8239,-0.8239,-0.8239,-0.8239,-0.8239,-0.8239,-0.8516,-0.935,-0.9735,-1.0794,-1.2693,-1.5628,-1.7326,-1.7328,-1.9416,-2.1494,-2.3444,-2.3512,-2.4812,-2.7503,-2.9802,-3.1356,-3.2076,-3.4887,-3.7064,-3.8586,-3.9122,-3.9632,3.8707,3.8707,3.8707,3.8707,3.8065,3.7549,3.7828,3.7638,3.7182,3.6448,3.666,3.6763,3.5689,3.4177,3.2865,3.2114,2.9232,2.6325,2.4298,2.178,1.8733,1.4976,1.1951,0.9797,0.8862,0.8247,0.7344,0.5648,0.2118,-0.0707,-0.2427,-0.6034,-0.835,-0.9176,-1.0527,-1.1579,-1.2389,-1.2538,-1.3165,-1.4179,-1.4473,-1.5148,-1.6117,-1.7268,-1.8149,-1.8752,-1.917,-1.9711,0.0,-2.1073,-2.1808,-2.2433,-2.3229,-2.3856,-2.4334,-2.3754,-2.338,-2.3103,-2.1834,-2.042,-1.9118,-1.8541,-1.7565,-1.6555,-1.5921,-1.6051,-1.6147,-1.4803,-1.4118,-1.3609,-1.2987,-1.2765,-1.2481,-1.1281,-1.0992,-1.0666,-0.9535,-0.9257,-0.9257,-0.9257,-0.8701,-0.8239,-0.8239,-0.7598,-0.7139,-0.7139,-0.7139,-0.7139,-0.7139,-0.7139,-0.7415,-0.8147,-0.8609,-0.9652,-1.1494,-1.4372,-1.6433,-1.7234,-1.9022,-2.1073,-2.3434,-2.3512,-2.4836,-2.773,-2.9862,-3.1463,-3.227,-3.5493,-3.7568,-3.8489,-3.9598,-4.007,0.0,3.8707,3.8707,3.8707,3.8261,3.7739,3.7301,3.7882,0.0,3.603,3.6831,3.7323,3.5844,3.4747,3.346,3.1474,2.9384,2.6887,2.3724,2.1961,1.9728,1.6163,1.4547,1.2819,1.0388,0.8954,0.8141,0.8038,0.3419,0.0404,-0.0,-0.4722,-0.7633,-0.7939,-0.9176,-0.9797,-0.9797,-1.0813,-1.1815,-1.2765,-1.2572,-1.3043,-1.425,-1.5355,-1.5896,-1.5952,-1.7064,-1.7548,-1.77,-1.9587,-2.0382,-2.0615,-2.2541,-2.3271,-2.3254,-2.3231,-2.1964,-2.0246,-2.0178,-1.8864,-1.7144,-1.6975,-1.621,-1.5367,-1.5332,-1.3987,-1.2397,-1.2324,-1.1505,-1.0678,-1.0588,-1.0588,-1.0314,-0.9146,-0.8888,-0.8609,-0.7326,-0.7139,-0.7139,-0.7139,-0.7139,-0.7139,-0.7139,-0.7139,-0.7139,-0.7139,-0.7139,-0.7139,-0.7139,-0.7139,-0.7139,-0.7139,-0.8147,-0.9257,-1.0475,-1.2703,-1.4925,-1.7145,-1.8378,-2.0353,-2.3356,-2.3512,-2.5046,-2.8265,-3.0092,-3.1797,-3.3369,-3.6374,-3.7851,-3.802,-3.943,-4.007,3.8707,0.0,3.8707,3.8707,3.8028,3.7329,0.0,3.7171,3.7009,3.6551,3.7191,3.748,3.6496,3.5534,3.4317,3.2518,3.0495,2.8288,2.5987,2.1436,1.771,1.587,1.3759,1.2097,1.148,1.028,0.9072,0.8041,0.683,0.4321,0.0202,-0.121,-0.3718,-0.7633,-0.8041,-0.8759,-0.9797,-1.0527,-1.1532,-1.2849,-1.3419,-1.4277,-1.5331,-1.6456,-1.7371,-1.8256,-1.9384,-1.9823,-1.9873,-2.0362,-2.0536,-2.0634,-2.1051,-2.1258,-2.1076,-2.0341,-1.9684,-1.9044,-1.832,-1.7208,-1.5797,-1.4014,-1.2714,-1.1801,-1.1815,-1.272,-1.3483,-1.2557,-1.2068,-1.1685,-1.0835,-1.0644,-1.0275,-0.9161,-0.8932,-0.8609,-0.7326,-0.7139,-0.7139,-0.7139,-0.7139,-0.7139,-0.7139,-0.7139,-0.7139,-0.7139,-0.7139,-0.7139,-0.7139,-0.7139,-0.7139,-0.7139,-0.7326,-0.8332,-1.0382,-1.2703,-1.4965,-1.7127,-1.8382,-2.0353,-2.3356,-2.3512,-2.4602,-2.6917,-2.9604,-3.2651,-3.5954,-3.7156,-3.8438,-3.9581,-3.9952,-4.007,3.8707,3.8707,3.8707,3.8707,3.8114,3.7543,3.7681,3.762,3.7495,3.7269,3.7497,3.7526,3.6769,3.5538,3.4009,3.2198,3.0147,2.7695,2.4569,2.0854,1.7972,1.676,1.5406,1.4129,1.2892,1.1636,1.0364,0.9057,0.835,0.6731,0.382,0.131,-0.232,-0.7582,-0.7594,-0.7921,-0.8702,-0.9087,-1.013,-1.1832,-1.2283,-1.3322,-1.4951,-1.5597,-1.6167,-1.6758,-1.7382,-1.7594,-1.7644,-1.816,-1.8388,-1.8408,-1.8912,-1.9381,-1.9594,-1.862,-1.816,-1.789,-1.634,-1.476,-1.3195,-1.1884,-1.1058,-1.059,-1.059,-1.1521,-1.2279,-1.1089,-1.0362,-0.9814,-0.9164,-0.8979,-0.8794,-0.8239,-0.8055,-0.7875,-0.7231,-0.7139,-0.6789,-0.573,-0.5466,-0.5466,-0.5466,-0.5466,-0.5466,-0.5466,-0.6435,-0.7139,-0.7139,-0.7139,-0.7139,-0.7139,-0.7598,-0.8609,-1.0475,-1.2227,-1.4375,-1.713,-1.7912,-1.983,-2.3345,-2.3512,-2.4941,-2.8023,-3.0793,-3.3532,-3.628,-3.7291,-3.8381,-3.9564,-3.9952,-4.007,3.8707,3.8707,3.8707,3.8707,3.8297,3.7983,3.8246,3.8449,3.8504,3.8086,3.8003,3.7718,3.6937,3.5484,3.3755,3.1791,2.9481,2.6449,2.214,2.0544,1.9148,1.7598,1.7385,1.6374,1.382,1.2373,1.1192,1.0082,0.8759,0.8038,0.8038,0.3725,-0.1307,-0.6907,-0.7273,-0.7425,-0.7326,-0.7507,-0.8503,-1.0354,-1.0487,-1.1662,-1.3607,-1.3899,-1.4102,-1.4104,-1.4455,-1.4587,-1.4667,-1.5584,-1.5942,-1.599,-1.6952,-1.7814,-1.8417,-1.7438,-1.6822,-1.6211,-1.4193,-1.2134,-1.0308,-1.0299,-1.0195,-1.0097,-1.0097,-1.0097,-0.986,-0.8884,-0.808,-0.7415,-0.7143,-0.6874,-0.6523,-0.6523,-0.6523,-0.6523,-0.6523,-0.6887,-0.6539,-0.4504,-0.3514,-0.3061,-0.3061,-0.3061,-0.3061,-0.3061,-0.4746,-0.616,-0.6523,-0.6874,-0.7139,-0.7139,-0.8147,-0.9336,-1.0499,-1.1821,-1.3899,-1.7122,-1.7435,-1.9418,-2.3591,-2.3999,-2.5909,-2.9794,-3.2014,-3.392,-3.5492,-3.694,-3.807,-3.8959,-3.975,-4.007,3.8707,3.8707,3.8707,3.8707,3.8297,3.7966,3.8231,3.8443,3.8655,3.8774,3.8791,3.8487,3.7761,3.6853,3.5636,3.3812,3.0355,2.6682,2.3232,2.177,1.9737,1.6396,1.6033,1.4981,1.2474,1.1048,1.0175,0.9875,0.866,0.8038,0.8038,0.7193,0.344,-0.3959,-0.628,-0.7303,-0.7143,-0.8147,-0.8865,-0.9192,-1.0181,-1.0783,-1.1191,-1.314,-1.4055,-1.4085,-1.6011,-1.6822,-1.6855,-1.6993,-1.7074,-1.7058,-1.7245,-1.6852,-1.6202,-1.6026,-1.4684,-1.2915,-1.157,-1.0285,-0.92,-0.9151,-0.8424,-0.7598,-0.7598,-0.7598,-0.7591,-0.7464,-0.8212,-0.8794,-0.7415,-0.5641,-0.4137,-0.4137,-0.4137,-0.4137,-0.4137,-0.5684,-0.6972,-0.6616,-0.3332,-0.0539,-0.0539,-0.0539,-0.0539,-0.0539,-0.0898,-0.1794,-0.3866,-0.5908,-0.7139,-0.7139,-0.8147,-0.9349,-1.0469,-1.2517,-1.4761,-1.713,-1.8115,-2.0456,-2.4613,-2.6258,-2.7749,-2.9152,-3.0748,-3.2633,-3.4853,-3.6241,-3.7669,-3.9009,-3.9767,-4.007,3.8707,3.8707,3.8634,3.8334,3.8065,3.79,3.7882,3.7918,3.807,3.8288,3.802,3.7339,3.6209,3.4623,3.2141,2.7691,2.538,2.2931,1.9459,1.8546,1.7289,1.4845,1.4521,1.3751,1.1853,1.0506,0.9849,1.0095,0.873,0.7865,0.8008,0.7953,0.5066,-0.144,-0.53,-0.656,-0.5201,-0.6982,-0.8239,-0.8886,-0.9405,-0.9986,-1.0631,-1.1657,-1.2152,-1.2207,-1.3218,-1.3703,-1.3671,-1.371,-1.3703,-1.3677,-1.371,-1.3769,-1.3815,-1.3818,-1.2422,-1.0419,-1.011,-0.9131,-0.7963,-0.7963,-0.7595,-0.7139,-0.7139,-0.5265,-0.3757,-0.6382,-0.6748,-0.6474,-0.6933,-0.6317,-0.4876,-0.225,-0.1619,-0.1619,-0.1619,-0.2519,-0.3243,-0.3243,-0.1529,-0.0,-0.0,-0.0,-0.0,-0.0,-0.0,-0.036,-0.1529,-0.3767,-0.573,-0.6966,-0.8147,-0.9331,-1.0488,-1.2668,-1.5438,-1.8797,-2.046,-2.2452,-2.4885,-2.7169,-2.8619,-2.8987,-3.1304,-3.3228,-3.4723,-3.6091,-3.7347,-3.8422,-3.9009,-3.9278,3.8707,3.8707,3.8566,3.8028,3.7994,3.7946,3.7408,3.7332,3.7417,3.7335,3.6746,3.5911,3.4895,3.2535,2.8768,2.2666,2.1149,1.9636,1.6516,1.614,1.5347,1.332,1.3608,1.3044,1.0766,0.9643,0.9235,0.9643,0.6854,0.5193,0.533,0.579,0.3514,-0.234,-0.5468,-0.6275,-0.4403,-0.6171,-0.7595,-0.8516,-0.8516,-0.8975,-0.9814,-1.006,-1.0168,-1.0235,-1.0514,-1.0595,-1.0575,-1.0809,-1.0895,-1.0859,-1.0707,-1.1117,-1.1838,-1.1652,-1.0575,-0.9265,-0.8983,-0.7378,-0.5442,-0.5442,-0.5442,-0.5442,-0.5442,-0.2861,-0.0539,-0.3053,-0.2875,-0.243,-0.4786,-0.5425,-0.4512,-0.0899,-0.0,-0.0,-0.0,-0.0,-0.0,-0.0,-0.0,-0.0,-0.0,-0.0,-0.0,-0.0,-0.0,-0.0,-0.0,-0.2611,-0.5126,-0.6877,-0.7963,-0.924,-1.1218,-1.3451,-1.6498,-2.0508,-2.2479,-2.3952,-2.4953,-2.761,-2.9005,-2.9001,-3.1865,-3.3738,-3.4439,-3.5856,-3.6937,-3.7651,-3.8201,-3.8441,3.8707,3.8707,3.8566,3.8028,3.8271,3.8269,3.6894,3.6915,3.6968,3.6141,3.5356,3.4946,3.5429,3.2558,2.874,2.4475,2.1724,1.9527,1.7802,1.7633,1.619,1.2439,1.3752,1.3088,0.8317,0.776,0.776,0.776,0.1613,-0.2337,-0.27,-0.0629,-0.2611,-0.9606,-0.8095,-0.7039,-0.6877,-0.7051,-0.7143,-0.7231,-0.7231,-0.7234,-0.7411,-0.8487,-0.9035,-0.9046,-1.012,-1.0636,-1.0681,-1.138,-1.168,-1.1663,-1.0886,-1.0646,-1.06,-0.9947,-1.0038,-1.0176,-0.8032,-0.4279,-0.0539,-0.0539,-0.0539,-0.0539,-0.0539,-0.0269,0.0807,0.4905,0.4654,0.2519,0.009,-0.0539,-0.045,-0.009,-0.0,-0.0,-0.0,-0.0,-0.0,-0.0,-0.0,-0.0,-0.0,-0.0,-0.0,-0.0,-0.0,-0.0,-0.0,-0.3967,-0.6956,-0.7061,-0.7143,-0.8965,-1.336,-1.5771,-1.8422,-2.1602,-2.29,-2.3952,-2.4953,-2.761,-2.9005,-2.9001,-3.1422,-3.302,-3.3673,-3.5076,-3.6152,-3.6899,-3.7627,-3.7947,3.8707,3.8707,3.8566,3.8028,3.844,3.851,3.6809,3.6276,3.5995,3.5748,3.4779,3.3393,3.1411,2.8208,2.4697,2.0915,1.9692,1.6273,0.8129,0.5334,0.3468,0.1684,0.2186,0.1609,-0.1072,-0.0089,0.0893,0.1429,-0.1076,-0.4734,-0.9808,-0.9247,-0.7983,-0.6334,-0.7732,-0.8084,-0.7128,-0.7078,-0.7078,-0.7125,-0.7074,-0.7139,-0.7139,-0.7577,-0.776,-0.7779,-0.8212,-0.838,-0.8468,-0.8773,-0.8055,-0.6691,-0.6322,-0.7122,-0.8009,-0.4757,-0.3791,-0.3903,-0.3034,-0.1523,0.0449,0.3484,0.4374,0.4374,0.4374,0.4374,0.4821,0.6602,0.6435,0.5196,0.2875,0.225,0.225,0.225,0.225,0.225,0.225,0.225,0.225,0.225,0.225,0.225,0.225,0.0989,-0.0,-0.0,-0.0,-0.0,-0.0,-0.2882,-0.4959,-0.4938,-0.7539,-1.0814,-1.4698,-1.6412,-1.8637,-2.1761,-2.2918,-2.4499,-2.6596,-2.8589,-2.99,-3.0425,-3.2695,-3.3963,-3.4236,-3.5166,-3.5802,-3.6067,-3.6661,-3.6948,3.8652,3.8652,3.8493,3.801,3.8401,3.8449,3.6793,3.6087,3.5543,3.4815,3.3891,3.2228,2.9026,2.6256,2.263,1.6992,1.3793,0.9005,0.0443,-0.3636,-0.6812,-0.9574,-0.9833,-0.9894,-1.006,-0.9374,-0.808,-0.621,-0.6401,-0.8848,-1.3822,-1.4088,-1.1712,-0.6392,-0.7834,-0.8244,-0.7135,-0.7078,-0.7078,-0.7131,-0.7101,-0.6723,-0.5997,-0.6723,-0.6266,-0.491,-0.5646,-0.5547,-0.4896,-0.4816,-0.3476,-0.1336,-0.1606,-0.2502,-0.3393,-0.0886,0.0972,0.2214,0.2232,0.2237,0.2772,0.6068,0.7326,0.7687,0.7687,0.7963,0.8239,0.8239,0.7963,0.7337,0.5657,0.5032,0.467,0.467,0.467,0.467,0.467,0.467,0.467,0.467,0.467,0.467,0.467,0.3315,0.1702,0.0269,-0.0,-0.0,-0.0,-0.1439,-0.3328,-0.5578,-0.8945,-1.2106,-1.4881,-1.6763,-1.9003,-2.1771,-2.3243,-2.4973,-2.7194,-2.8812,-3.0178,-3.1305,-3.3269,-3.439,-3.4611,-3.5459,-3.5853,-3.587,-3.6395,-3.6644,3.8566,3.8566,3.8346,3.8004,3.8169,3.8062,3.6709,3.6497,3.5833,3.3156,3.2531,3.1646,2.9126,2.7621,2.3408,1.3153,0.3785,-0.2519,-0.3329,-0.6827,-1.2135,-1.9672,-2.0566,-1.9767,-1.7535,-1.9272,-1.878,-1.4496,-1.5437,-1.5628,-1.4179,-1.4088,-1.3419,-1.1832,-0.8748,-0.7139,-0.7139,-0.7139,-0.7051,-0.7051,-0.7042,-0.5882,-0.3694,-0.5905,-0.4374,-0.009,-0.243,-0.2152,-0.0,0.0089,0.1514,0.3573,0.2784,0.2971,0.3417,0.0976,0.3099,0.7139,0.7139,0.7139,0.7139,0.7139,0.7963,0.8886,0.8886,0.9716,1.0563,1.0563,0.9809,0.8886,0.8886,0.8055,0.7139,0.7139,0.7139,0.7139,0.7139,0.7139,0.7139,0.7139,0.7139,0.7139,0.7139,0.7139,0.5534,0.0808,-0.0,-0.0,-0.0,-0.0,-0.2689,-0.9739,-1.13,-1.2391,-1.3893,-1.6959,-1.9714,-2.1788,-2.3864,-2.5399,-2.6308,-2.8051,-2.9756,-3.1303,-3.2833,-3.3946,-3.4611,-3.5819,-3.6378,-3.6423,-3.6921,-3.7199,3.8937,3.8942,3.8781,3.8364,3.8573,3.8558,3.7271,3.6812,3.5733,3.2298,3.0075,2.8158,2.6469,1.6223,0.7221,0.4779,-0.2519,-0.9301,-1.3326,-1.5821,-1.7794,-1.9269,-2.0042,-2.0488,-2.062,-1.9835,-1.9072,-1.8576,-1.7557,-1.6431,-1.5247,-1.4467,-1.3134,-1.1006,-0.9296,-0.7963,-0.7139,-0.7139,-0.626,-0.467,-0.4595,-0.5129,-0.5902,0.0179,0.3683,0.4968,0.424,0.3405,0.2661,0.4355,0.6352,0.8484,0.8286,0.8321,0.8466,0.8367,0.8516,0.8886,0.9354,0.9071,0.8516,0.9261,0.9814,1.006,1.012,1.0328,1.0605,1.0605,1.0328,1.0105,1.0133,0.9818,0.935,0.8516,0.8332,0.8609,0.9354,0.8886,0.8332,0.8332,0.769,0.7139,0.7139,0.7139,0.6605,0.5176,0.2149,-0.0,-0.0,-0.1439,-0.3329,-0.5489,-0.8871,-1.2108,-1.486,-1.7354,-1.9983,-2.2871,-2.4845,-2.6571,-2.8131,-2.9648,-3.1204,-3.2881,-3.4266,-3.5116,-3.5313,-3.5673,-3.5818,-3.5829,-3.6006,-3.606,3.8627,3.8781,3.8906,3.8493,3.8707,3.8789,3.8156,3.7073,3.5403,3.2716,3.0721,2.8596,2.597,1.2103,-0.0888,-0.6474,-1.1736,-1.6111,-1.8897,-2.0353,-2.0956,-2.0246,-2.1063,-2.1876,-2.2552,-2.1028,-2.0167,-2.0401,-1.8923,-1.7082,-1.5138,-1.4393,-1.2741,-1.0005,-0.9262,-0.8332,-0.7139,-0.7139,-0.5908,-0.3604,-0.3604,-0.2871,-0.1336,0.2512,0.5333,0.7168,0.7599,0.746,0.6959,0.8055,0.9363,1.0598,1.0629,1.0597,1.0657,1.1112,1.1029,1.0676,1.1087,1.1051,1.0937,1.1126,1.1592,1.1933,1.1991,1.2295,1.2675,1.314,1.2662,1.1974,1.1922,1.131,1.0415,0.9698,0.9542,0.9735,1.0472,1.0101,0.9584,0.9605,0.8979,0.8332,0.7875,0.7782,0.7687,0.7143,0.3848,0.1079,0.009,-0.2069,-0.3961,-0.4935,-0.8599,-1.2272,-1.5353,-1.7937,-2.0577,-2.3329,-2.5623,-2.7478,-2.893,-3.036,-3.1916,-3.3588,-3.4686,-3.5459,-3.5904,-3.6101,-3.6343,-3.6541,-3.6737,-3.6826,3.8194,3.8525,3.8804,3.8544,3.8635,3.8883,3.913,3.723,3.5119,3.4039,3.3341,3.1278,2.5655,1.2547,-0.2615,-1.8572,-2.1912,-2.2035,-2.0868,-2.1484,-2.1984,-2.2025,-2.2979,-2.3649,-2.3607,-2.2765,-2.1718,-2.075,-1.9733,-1.7752,-1.4647,-1.4173,-1.2508,-0.9341,-0.8886,-0.8239,-0.7139,-0.7139,-0.6,-0.3877,-0.3061,0.0719,0.6619,0.2517,0.3057,0.7344,0.8533,1.006,1.1663,1.0931,1.0647,1.0777,1.0851,1.101,1.1056,1.1209,1.1742,1.2523,1.2626,1.3261,1.3891,1.295,1.3374,1.4277,1.4277,1.5,1.6019,1.7012,1.5821,1.4287,1.4264,1.2759,1.1182,1.121,1.0956,1.0821,1.1006,1.0916,1.073,1.0752,1.071,1.0245,0.9222,0.9054,0.8609,0.7323,0.5287,0.3147,0.0898,-0.1798,-0.4401,-0.6874,-0.9818,-1.2709,-1.5191,-1.8442,-2.122,-2.3456,-2.6296,-2.8224,-2.9189,-3.0615,-3.209,-3.3578,-3.4399,-3.5313,-3.6395,-3.6962,-3.743,-3.7845,-3.8356,-3.8573,4.0418,4.0011,3.938,3.9143,3.9021,3.8995,3.9153,3.7272,3.5498,3.5467,3.4423,2.939,1.6171,0.8086,-0.2831,-2.2077,-2.3486,-2.2025,-2.172,-2.1906,-2.197,-2.2007,-2.3616,-2.4671,-2.4662,-2.3743,-2.3074,-2.2868,-2.1191,-1.954,-1.8038,-1.5351,-1.3167,-1.1519,-0.8886,-0.7326,-0.7139,-0.7139,-0.6818,-0.6251,0.1259,0.4604,0.442,0.5193,0.6802,0.9,0.9861,1.0474,1.0857,1.0654,1.1168,1.2031,1.2893,1.3854,1.4702,1.5573,1.5437,1.4979,1.5863,1.5769,1.5306,1.596,1.6351,1.6622,1.6622,1.673,1.7009,1.7209,1.6921,1.6597,1.6552,1.6231,1.5863,1.5867,1.3867,1.2391,1.4186,1.3231,1.1945,1.1935,1.1209,1.0564,1.0288,1.0217,0.9535,0.7415,0.67,0.6166,0.5622,0.0715,-0.3769,-0.6786,-0.935,-1.1756,-1.403,-1.7946,-2.1518,-2.4315,-2.7156,-2.9354,-3.0762,-3.1614,-3.2562,-3.3578,-3.5183,-3.6163,-3.6395,-3.6962,-3.7246,-3.7352,-3.746,-3.7496,4.0173,4.001,3.9807,3.9744,3.9693,3.9602,3.9279,3.8707,3.8146,3.7883,3.7015,3.3715,2.5107,0.9406,-0.5057,-1.3405,-2.0636,-2.4883,-2.3985,-2.3576,-2.3676,-2.4434,-2.5269,-2.5517,-2.5059,-2.4068,-2.3495,-2.3524,-2.171,-2.0052,-1.8926,-1.5701,-1.3105,-1.1409,-0.8609,-0.7139,-0.7139,-0.5994,-0.4848,-0.3605,0.3605,0.6873,0.6471,0.7524,0.9279,1.1635,1.1453,1.2018,1.3056,1.3077,1.342,1.4082,1.5148,1.6262,1.7253,1.7848,1.7955,1.8074,1.9127,1.9127,1.8734,1.9329,1.9204,1.8868,1.9372,1.9179,1.8916,1.9425,1.9214,1.8668,1.8218,1.8053,1.8044,1.8062,1.6377,1.5049,1.6232,1.5536,1.4565,1.3997,1.3425,1.2668,1.1562,1.0968,1.0024,0.822,0.7963,0.7779,0.7143,0.2861,-0.1343,-0.453,-0.8609,-1.1849,-1.3737,-1.8336,-2.2146,-2.463,-2.7735,-2.9998,-3.1246,-3.2904,-3.3989,-3.4466,-3.5723,-3.6638,-3.7114,-3.7398,-3.7668,-3.7918,-3.7918,-3.7918,3.9743,3.9813,4.013,4.0267,4.035,4.0243,3.9685,4.0075,4.0463,4.0084,3.9818,3.9394,3.8613,1.568,-0.2049,0.1058,-1.3435,-2.4566,-2.2983,-2.3897,-2.5266,-2.6754,-2.6533,-2.5847,-2.4824,-2.3968,-2.3329,-2.2998,-2.1125,-1.9554,-1.8515,-1.5203,-1.2507,-1.073,-0.8332,-0.6688,-0.5871,-0.3944,-0.1798,0.0719,0.5594,0.8759,1.0299,1.0114,1.137,1.3698,1.3104,1.3968,1.5727,1.5926,1.6049,1.63,1.7398,1.8412,1.9388,1.9535,2.0146,2.1014,2.1922,2.2174,2.2237,2.2216,2.1593,2.112,2.2061,2.1722,2.1166,2.2216,2.1712,2.0761,1.9946,1.9724,1.9657,1.9717,1.9047,1.8189,1.7722,1.7398,1.7084,1.6194,1.5829,1.5141,1.3231,1.1742,1.0554,0.9611,0.9134,0.8424,0.7234,0.4383,0.1162,-0.2042,-0.7698,-1.1995,-1.3754,-1.8647,-2.2585,-2.4864,-2.8133,-3.0522,-3.1642,-3.4072,-3.5491,-3.5711,-3.6319,-3.7073,-3.79,-3.7992,-3.8261,-3.8707,-3.8707,-3.8707,4.2099,4.1078,4.0191,4.063,4.0559,4.0496,4.0858,3.941,3.8587,4.0592,4.0974,4.0918,4.0781,2.9318,1.9002,1.6281,0.0811,-1.0742,-1.0475,-1.8104,-2.4082,-2.516,-2.5269,-2.4812,-2.3732,-2.3559,-2.2751,-2.0956,-1.8879,-1.7587,-1.7398,-1.3311,-1.1081,-1.1398,-0.8609,-0.5151,-0.0972,-0.0626,0.0719,0.3153,0.8484,1.1849,1.3411,1.4273,1.3946,1.2632,1.4488,1.5433,1.5742,1.6722,1.7557,1.846,1.9552,2.0596,2.1624,2.2529,2.2969,2.3103,2.3232,2.329,2.3293,2.3282,2.3189,2.3276,2.4104,2.3772,2.3282,2.4155,2.3756,2.3027,2.2907,2.2896,2.2851,2.2925,2.2752,2.1968,1.9321,1.7961,1.7274,1.7083,1.63,1.5628,1.5339,1.351,1.203,1.1895,1.012,0.8424,0.7234,0.4351,0.1155,-0.2062,-0.6818,-1.0893,-1.3657,-1.7935,-2.205,-2.5664,-2.8484,-3.0973,-3.3186,-3.4626,-3.5907,-3.6946,-3.7461,-3.7772,-3.79,-3.8383,-3.8634,-3.8707,-3.8707,-3.8707,4.0877,3.9915,3.9239,3.9695,3.9965,4.0117,4.0098,3.9825,3.9751,4.0308,4.0839,4.1191,4.1191,3.0801,2.2129,2.1836,0.4749,-0.8244,-0.7577,-1.7697,-2.554,-2.6578,-2.5562,-2.4184,-2.2891,-2.2126,-2.0851,-1.8683,-1.8143,-1.7808,-1.7705,-1.4337,-1.1368,-0.9059,-0.5186,-0.1696,0.125,0.214,0.4919,0.942,1.1821,1.3665,1.4933,1.6645,1.6934,1.6102,1.6409,1.7245,1.8334,1.8833,1.9659,2.0663,2.1702,2.2772,2.3754,2.4728,2.4731,2.4536,2.6045,2.5956,2.5269,2.6214,2.6202,2.5926,2.689,2.6151,2.5268,2.6093,2.5739,2.4964,2.4403,2.4641,2.4776,2.3746,2.3896,2.3845,2.1929,2.0647,1.9627,1.8437,1.7338,1.6424,1.5844,1.5346,1.4467,1.2572,1.1412,1.0091,0.8316,0.6325,0.3469,-0.0628,-0.6459,-1.1365,-1.4405,-1.9088,-2.3533,-2.7189,-2.9865,-3.2261,-3.4521,-3.574,-3.6853,-3.7869,-3.79,-3.8047,-3.8365,-3.8566,-3.8707,-3.8707,-3.8707,-3.8707,3.9757,3.9185,3.8925,3.9224,3.9605,3.9831,3.9586,4.0302,4.0875,4.0277,4.0703,4.1016,4.0371,3.2363,2.6445,2.8281,1.1934,-0.0714,0.0201,-1.0707,-1.9753,-2.2432,-1.9918,-1.919,-2.232,-1.9487,-1.6648,-1.4656,-1.51,-1.4864,-1.3566,-1.0992,-0.8001,-0.4634,-0.0446,0.2868,0.5218,0.6395,0.9519,1.4368,1.4909,1.5751,1.6891,1.9232,2.0292,2.0046,1.8953,1.9371,2.0829,2.105,2.191,2.3068,2.3897,2.4941,2.6083,2.6772,2.6566,2.6279,2.8326,2.8116,2.721,2.8557,2.8464,2.8066,2.905,2.8229,2.7179,2.7987,2.7598,2.6842,2.6059,2.6451,2.6559,2.4941,2.5152,2.5281,2.3836,2.2919,2.1829,2.013,1.8839,1.7787,1.6754,1.6972,1.6454,1.3924,1.3027,1.206,1.0431,0.8424,0.5625,0.1617,-0.5006,-1.0717,-1.4606,-1.9627,-2.42,-2.7881,-3.1029,-3.3543,-3.5335,-3.6749,-3.7798,-3.8389,-3.8368,-3.8544,-3.894,-3.894,-3.8903,-3.8799,-3.8799,-3.8762,4.035,4.0222,4.0023,4.0105,4.003,4.0,4.0359,4.0485,4.0654,4.1054,4.1172,4.0488,3.8125,3.9023,4.0176,4.0293,2.9004,2.0227,2.0316,0.9962,-0.0267,-0.7303,-0.3388,-0.6224,-2.19,-1.4924,-0.8923,-0.7582,-0.7519,-0.5604,-0.1167,0.1257,0.2248,0.1797,0.4914,0.8709,1.327,1.3366,1.4122,1.5565,1.7515,1.9077,2.0246,2.3126,2.4071,2.3177,2.2155,2.1761,2.1902,2.2943,2.4431,2.6114,2.6133,2.725,2.8763,2.8858,2.8848,2.8805,2.8958,2.8926,2.8856,2.8957,2.8957,2.9087,2.9973,2.9595,2.9038,2.99,2.9503,2.8841,2.8813,2.8848,2.8615,2.773,2.7516,2.6797,2.4068,2.3463,2.3115,2.2035,2.0966,1.9955,1.8999,1.795,1.7234,1.71,1.5227,1.3861,1.3787,0.9818,0.6444,0.4687,-0.1246,-0.7418,-1.3457,-1.8284,-2.2725,-2.6886,-3.147,-3.4442,-3.5363,-3.7309,-3.8363,-3.8401,-3.9115,-3.9518,-3.9553,-3.9553,-3.9375,-3.9068,-3.9068,-3.894,3.8853,3.8848,3.9016,3.9295,3.9423,3.9703,4.0355,4.051,4.0625,4.1094,4.1191,4.0742,3.9258,3.8887,3.8828,3.8828,3.625,3.3258,3.0466,2.5184,1.9772,1.4808,1.009,0.4615,-0.1963,-0.2351,-0.1373,0.0563,0.0597,0.1949,0.5455,1.1207,1.3872,1.2492,1.3529,1.4958,1.683,1.8112,1.9325,2.0457,2.1726,2.2951,2.4077,2.5769,2.6357,2.6087,2.6314,2.5769,2.479,2.5718,2.681,2.8043,2.8021,2.8415,2.9058,2.9648,2.9497,2.9131,3.0251,3.0274,2.9929,3.0454,3.0908,3.1349,3.1702,3.1172,3.0646,3.1553,3.0849,2.9827,2.9827,2.9851,2.9603,2.8758,2.8507,2.8252,2.7263,2.5679,2.4172,2.3183,2.2649,2.2035,2.1063,2.0584,1.9883,1.8482,1.6992,1.5568,1.4143,1.0823,0.7628,0.4991,-0.1785,-0.8178,-1.3262,-1.9231,-2.4896,-3.0103,-3.3425,-3.5899,-3.7524,-3.8281,-3.8952,-3.9537,-3.9844,-3.9863,-3.9596,-3.9596,-3.9539,-3.9423,-3.9407,-3.9246,3.7866,3.8209,3.8664,3.9032,3.9377,3.9675,3.9793,3.9957,4.0195,4.0644,4.0723,4.0371,3.9238,3.8194,3.7668,3.8188,3.9199,3.8907,3.6006,3.3712,3.1187,2.8282,2.069,1.5006,1.3046,1.0321,0.884,0.934,0.964,1.0688,1.2911,1.7796,2.0411,2.0333,2.0282,2.0469,2.1077,2.2339,2.3452,2.4189,2.4992,2.5827,2.6609,2.7904,2.8263,2.8066,2.9324,2.8817,2.7222,2.7799,2.8552,2.9449,2.9457,2.9726,3.025,3.0878,3.0732,3.0381,3.1732,3.1717,3.1187,3.1983,3.2561,3.297,3.2936,3.2538,3.2191,3.2745,3.2028,3.1055,3.1055,3.0717,3.0162,2.9559,2.919,2.9029,2.9029,2.739,2.5623,2.4614,2.4184,2.3638,2.2638,2.2446,2.1899,2.0159,1.9232,1.8005,1.5919,1.29,0.9852,0.7027,-0.0804,-0.85,-1.5248,-2.1115,-2.6462,-3.1302,-3.4805,-3.7275,-3.8637,-3.907,-3.9596,-4.0242,-4.037,-4.0276,-3.9994,-3.997,-3.9896,-3.9804,-3.9785,-3.9593,0.0,0.0,0.0,3.9404,3.9865,3.9928,3.8733,3.8839,3.9312,3.9683,3.9784,3.9336,3.7773,3.7499,3.797,3.9474,3.8405,3.7344,3.7324,3.537,3.3288,3.1554,2.8313,2.4692,2.0966,2.1788,2.1413,1.8479,1.9456,2.0508,2.1504,2.0823,2.1821,2.479,2.466,2.5054,2.6183,2.6208,2.6272,2.6263,2.7197,2.7653,2.7695,2.9551,2.9929,2.9189,3.0863,3.0629,2.9146,2.9088,2.958,3.0366,3.0366,3.1304,3.2607,3.2604,3.2646,3.2707,3.338,3.3184,3.2764,3.3391,3.3587,3.3643,3.3643,3.3623,3.362,3.3638,3.3138,3.2646,3.2576,3.1452,3.0337,3.0337,2.9697,2.9059,2.9059,2.8411,2.7507,2.6546,2.5716,2.4824,2.3836,2.3628,2.3313,2.2342,2.2092,2.1268,1.9369,1.6029,1.2985,1.0818,0.2324,-0.7871,-1.9423,-2.3541,-2.6916,-3.0199,-3.5465,-3.8489,-3.8562,-3.9623,-4.0269,-4.0419,-4.0671,-4.0801,-4.0801,-4.0732,-4.0539,-4.0219,-4.0142,-3.9941,3.7277,0.0,0.0,0.0,0.0,0.0,3.7868,3.849,3.9108,3.8838,3.9335,3.9258,3.7461,3.7137,3.7254,3.7684,3.7017,3.6269,3.5742,3.51,3.2937,2.8168,2.7864,2.6375,2.1994,2.3136,2.3824,2.3041,2.2726,2.347,2.5673,2.5565,2.5892,2.6744,2.7195,2.7652,2.8219,2.928,2.9894,2.9842,3.022,3.0644,3.1187,3.1732,3.185,3.1687,3.2591,3.274,3.2294,3.182,3.1732,3.2013,3.2473,3.2977,3.3326,3.3294,3.3307,3.3371,3.355,3.3464,3.3372,3.3551,3.3925,3.4299,3.4318,3.4303,3.433,3.4297,3.386,3.3189,3.2716,3.185,3.1127,3.1157,3.0995,3.0791,3.0791,3.0131,2.9338,2.8435,2.8092,2.7838,2.7516,2.6891,2.6295,2.5993,2.4837,2.3525,2.2193,1.9241,1.5621,1.1056,0.566,-0.4459,-2.1201,-2.5166,-2.8403,-3.2438,-3.6813,-3.9542,-4.013,-4.0427,-4.0598,-4.0695,-4.0716,-4.0801,-4.0937,-4.0837,-4.0727,-4.0639,-4.0412,-4.0224,3.398,3.4523,3.487,3.6239,0.0,0.0,3.6528,3.6993,3.7439,3.7421,3.7822,3.8004,3.73,3.7405,3.7265,3.6324,3.6117,3.5913,3.5477,3.4244,3.2149,2.8656,2.7629,2.6232,2.4001,2.4465,2.5046,2.5399,2.5335,2.6191,2.8434,2.9238,2.956,2.9508,3.025,3.0773,3.0926,3.2003,3.2561,3.2546,3.2633,3.2889,3.3307,3.3127,3.3033,3.3056,3.3414,3.3577,3.3577,3.3498,3.3266,3.3072,3.343,3.3741,3.405,3.4011,3.3996,3.4043,3.4325,3.4235,3.4074,3.432,3.4678,3.497,3.4645,3.4578,3.4482,3.4175,3.3623,3.2928,3.2287,3.1759,3.1467,3.185,3.1895,3.1998,3.2309,3.1762,3.0896,2.9785,2.927,2.9018,2.9018,2.8515,2.8002,2.7557,2.6979,2.6032,2.4614,2.2402,1.9745,1.6581,0.9625,-0.132,-1.7365,-2.4477,-2.9997,-3.4411,-3.7829,-3.9815,-4.0169,-4.0382,-4.0535,-4.0637,-4.0695,-4.0793,-4.0918,-4.0801,-4.0756,-4.077,-4.0625,-4.0528,2.9565,3.0083,3.0973,3.3193,3.3841,0.0,3.4658,3.4918,3.5231,3.5654,3.5882,3.6214,3.6956,3.7587,3.733,3.5397,3.5188,3.5394,3.5576,3.309,3.1132,3.0881,2.7557,2.5469,2.6076,2.5742,2.5753,2.6546,2.7536,2.8684,3.0075,3.1736,3.2599,3.2512,3.3357,3.3768,3.3784,3.4249,3.4485,3.451,3.4435,3.4444,3.4482,3.4088,3.3878,3.3896,3.3963,3.3979,3.4074,3.4628,3.4432,3.3734,3.3784,3.4236,3.479,3.474,3.4757,3.4858,3.538,3.5262,3.4858,3.5329,3.5509,3.5442,3.4628,3.4376,3.4253,3.359,3.2929,3.2254,3.1675,3.1469,3.1571,3.2308,3.2476,3.2675,3.3419,3.3106,3.2322,3.0921,2.9929,2.9291,2.9291,2.9291,2.8944,2.8067,2.8641,2.8549,2.6904,2.5505,2.4692,2.4826,1.5189,0.3149,-1.0821,-2.1488,-2.9946,-3.5821,-3.8366,-3.952,-3.9208,-3.9696,-4.0038,-4.0158,-4.0392,-4.0535,-4.0578,-4.0676,-4.0719,-4.0703,-4.0781,-4.0801,2.9504,2.9906,3.0041,3.0325,3.2082,0.0,3.1762,3.3646,3.5417,3.4312,3.5086,3.5836,3.5262,3.5247,3.5363,3.5484,3.2961,3.1525,3.3038,3.2141,3.0522,2.8465,2.8196,2.7423,2.5465,2.705,2.8265,2.8481,2.9907,3.0863,3.104,3.2021,3.3012,3.3855,3.4653,3.4955,3.4807,3.5412,3.5735,3.5758,3.5187,3.5255,3.5735,3.5652,3.5622,3.5656,3.6231,3.648,3.6525,3.6627,3.5802,3.4466,3.4987,3.5543,3.6017,3.5543,3.5673,3.6017,3.569,3.5819,3.5887,3.5004,3.5004,3.515,3.3963,3.3625,3.3573,3.343,3.2883,3.2286,3.2241,3.1765,3.1504,3.2283,3.2517,3.2705,3.3448,3.3498,3.3322,3.3003,3.188,3.101,3.101,3.101,3.0923,3.0746,3.0352,3.009,3.0276,2.8725,2.7922,2.8608,2.7207,1.5811,-0.9823,-1.403,-2.1273,-3.5234,-3.7724,-3.864,-3.8584,-3.8584,-3.8612,-3.8639,-3.8693,-3.8864,-3.9199,-4.0256,-4.0785,-4.0781,-4.0898,-4.0898,2.373,2.3744,2.4082,2.616,2.7126,0.0,0.0,2.9516,3.0468,3.0615,3.1158,3.17,3.2125,3.1742,3.184,3.332,3.0707,2.9336,3.1723,2.9732,2.7967,2.7669,2.7263,2.6665,2.5847,2.7357,2.8718,2.9617,3.1144,3.2279,3.2755,3.3565,3.4516,3.5707,3.6105,3.6242,3.6154,3.6726,3.6988,3.6991,3.6814,3.6934,3.7243,3.7155,3.7011,3.6867,3.7243,3.7297,3.7208,3.7208,3.667,3.5952,3.6242,3.6576,3.6744,3.6479,3.6574,3.6757,3.6463,3.6282,3.6076,3.5414,3.5099,3.4814,3.3795,3.308,3.2684,3.2877,3.2349,3.1805,3.2032,3.1964,3.1981,3.2774,3.3246,3.3717,3.4449,3.432,3.4101,3.4081,3.3288,3.2426,3.2137,3.2028,3.2028,3.2028,3.1998,3.2043,3.2412,3.1605,3.1388,3.2293,3.2693,2.3419,-0.0092,-0.7679,-1.7132,-3.1067,-3.5159,-3.6958,-3.6761,-3.7173,-3.7631,-3.8138,-3.8168,-3.8242,-3.8456,-3.9114,-3.9753,-4.0295,-4.0392,-4.0501,1.7914,1.7549,1.7997,2.1887,2.2251,2.2351,0.0,0.0,0.0,2.6685,2.7155,2.7736,2.8839,2.848,2.8627,3.0568,2.8503,2.7586,3.0303,2.7226,2.5621,2.8091,2.6183,2.5281,2.6784,2.7824,2.9018,3.0602,3.2146,3.3372,3.4321,3.5008,3.5958,3.7161,3.7289,3.7418,3.7546,3.7937,3.8169,3.8224,3.8493,3.8637,3.8637,3.8461,3.8229,3.7998,3.7985,3.7863,3.7668,3.7613,3.7564,3.7562,3.7294,3.7247,3.7317,3.7226,3.7274,3.7307,3.7032,3.6567,3.5983,3.5576,3.4927,3.4156,3.3556,3.2765,3.2076,3.2415,3.1991,3.1551,3.1832,3.2264,3.2769,3.3511,3.4236,3.497,3.5622,3.5329,3.4936,3.4807,3.4253,3.3565,3.2911,3.2771,3.2806,3.2777,3.3231,3.3677,3.3928,3.399,3.4399,3.5262,3.5107,2.7607,0.9433,-0.1826,-1.3414,-2.6321,-3.1613,-3.4261,-3.4277,-3.5069,-3.5853,-3.6661,-3.6706,-3.6757,-3.6825,-3.6838,-3.7747,-3.947,-3.9546,-3.9725,1.7882,1.7151,1.6871,1.9107,2.0806,2.2089,2.2153,0.0,2.587,2.4468,0.0,2.7877,2.6562,0.0,0.0,2.8432,2.6596,2.5704,2.7496,2.5765,2.5905,3.0285,2.656,2.4941,2.8131,2.9827,3.119,3.2294,3.3637,3.4501,3.4549,3.5089,3.5959,3.717,3.7612,3.8169,3.8903,3.894,3.9105,3.9424,3.9461,3.9481,3.9444,3.9425,3.9406,3.9371,3.9368,3.9357,3.9301,3.9013,3.8903,3.8781,3.7644,3.7439,3.7776,3.7356,3.7471,3.7653,3.6457,3.628,3.6304,3.4475,3.3359,3.2718,3.2645,3.2526,3.2427,3.2478,3.2438,3.2361,3.2406,3.2985,3.3722,3.4489,3.5256,3.5904,3.6231,3.6248,3.6051,3.556,3.4953,3.4279,3.3624,3.3487,3.3466,3.3514,3.3551,3.4005,3.5065,3.5492,3.5921,3.6446,3.6174,2.8335,0.9491,0.3906,-0.6051,-2.3571,-2.7357,-2.9687,-3.1216,-3.1387,-3.152,-3.1618,-3.1618,-3.1872,-3.2335,-3.2343,-3.4384,-3.829,-3.8364,-3.8413,1.4373,1.4385,1.4752,1.7152,1.854,1.9146,1.8453,1.9268,2.0843,2.2934,0.0,0.0,0.0,0.0,0.0,0.0,2.2836,2.1628,2.6575,2.3519,2.2731,2.8267,2.6744,2.627,2.8831,2.9679,3.0481,3.1659,3.3563,3.4578,3.4437,3.5421,3.6469,3.7582,3.7796,3.8279,3.9087,3.9096,3.9258,3.9602,3.9813,3.989,3.9896,4.0065,4.0046,3.988,3.9888,3.9794,3.9583,3.9451,3.9289,3.905,3.8511,3.8315,3.8334,3.8151,3.8206,3.8224,3.7186,3.6673,3.6158,3.4302,3.3523,3.3258,3.3258,3.3085,3.2949,3.318,3.2889,3.2665,3.3412,3.3967,3.4551,3.5314,3.6111,3.6735,3.686,3.6876,3.6791,3.6576,3.6282,3.6026,3.5745,3.4854,3.4366,3.498,3.5313,3.5836,3.6661,3.6649,3.6826,3.7601,3.5753,2.9028,1.559,0.9048,-0.0756,-1.5869,-2.1951,-2.5555,-2.6668,-2.7397,-2.7909,-2.8325,-2.8922,-2.932,-2.9561,-2.9561,-3.0492,-3.2337,-3.4058,-3.5492,1.202,1.2308,1.2993,1.5065,1.5053,1.4383,1.375,1.3642,1.4657,1.821,1.7537,0.0,0.0,0.0,1.7471,2.1248,0.0,1.8524,2.3908,2.1265,2.095,2.6847,2.7271,2.7464,2.847,2.9548,3.0574,3.1298,3.354,3.4767,3.4404,3.5493,3.6599,3.7665,3.7826,3.8279,3.9087,3.9199,3.94,3.9742,4.0065,4.0219,4.0219,4.0412,4.0392,4.0219,4.0219,4.0085,3.9838,3.9762,3.9527,3.9237,3.9139,3.894,3.8707,3.8707,3.8548,3.8261,3.7454,3.6505,3.5412,3.4209,3.3807,3.3807,3.3807,3.3597,3.3423,3.3733,3.3331,3.3104,3.4254,3.488,3.5395,3.6225,3.6918,3.74,3.74,3.7291,3.7195,3.7195,3.7195,3.7254,3.7359,3.6225,3.5589,3.6399,3.6853,3.7351,3.7895,3.7571,3.7442,3.7764,3.4718,2.9101,2.029,1.2035,0.174,-1.1209,-1.8065,-2.1751,-2.2236,-2.2787,-2.3306,-2.3753,-2.457,-2.495,-2.4963,-2.4963,-2.5543,-2.667,-2.9812,-3.2047,1.228,1.2112,1.1957,1.2378,0.9938,0.7525,0.8042,0.8147,0.8247,0.8341,1.0234,1.1089,0.8754,1.2338,1.5041,1.298,1.5438,0.0,0.0,1.9289,2.2201,2.7603,2.8508,2.8026,2.654,3.0301,3.2589,3.2068,3.4318,3.5348,3.4621,3.5133,3.5966,3.7175,3.7667,3.8279,3.9087,3.9407,3.9742,4.0104,4.0354,4.0489,4.0489,4.0489,4.0489,4.0489,4.0489,4.0469,4.045,4.02,3.988,3.9555,3.921,3.894,3.8707,3.8707,3.8206,3.7418,3.6632,3.5279,3.3862,3.3825,3.3807,3.3807,3.3807,3.3788,3.3788,3.3807,3.3788,3.3945,3.4778,3.5607,3.6445,3.7259,3.7668,3.7882,3.7882,3.7515,3.7215,3.7215,3.7215,3.7325,3.7789,3.7466,3.7232,3.7525,3.7699,3.7914,3.8323,3.8369,3.782,3.6429,3.3165,2.8165,2.0984,1.1918,0.0795,-1.2856,-1.6683,-1.8465,-1.8481,-1.7454,-1.6878,-1.6907,-1.6977,-1.6943,-1.6944,-1.6944,-1.9016,-2.2921,-2.654,-2.824,1.2112,1.2769,1.2551,0.9551,0.9024,0.8065,0.3703,0.263,0.263,0.263,0.0502,-0.0501,0.2221,0.414,0.6561,1.0536,1.1172,1.2506,0.0,1.7549,1.9126,2.1047,2.3433,2.4968,2.5172,2.7199,2.8834,2.9704,3.1674,3.2885,3.2926,3.4184,3.5346,3.6429,3.7113,3.7973,3.9087,3.9425,3.9769,4.0104,4.0373,4.0489,4.0489,4.0489,4.0489,4.0489,4.0489,4.0392,4.0239,4.0142,3.9762,3.9262,3.9144,3.894,3.8707,3.8707,3.8187,3.732,3.5926,3.4724,3.3807,3.3807,3.3807,3.3807,3.3807,3.3807,3.3807,3.3807,3.4192,3.4798,3.5624,3.6452,3.729,3.809,3.8383,3.8441,3.8415,3.8294,3.8187,3.8187,3.8187,3.8283,3.8622,3.8561,3.8501,3.858,3.8784,3.9021,3.9299,3.8705,3.7615,3.5916,3.1743,2.6479,2.0005,0.8836,-0.0442,-0.6583,-0.9381,-1.1198,-1.1995,-1.1625,-1.2095,-1.3665,-1.3659,-1.4037,-1.481,-1.481,-1.5495,-1.6938,-1.8143,-2.162,1.2204,1.3138,1.3169,0.9569,0.8941,0.7519,0.1391,-0.0,0.0501,0.2138,-0.1575,-0.4105,-0.0596,0.08,0.3218,0.8785,0.9126,1.0168,0.0,1.5734,1.6393,1.698,2.0518,2.3247,2.3974,2.6024,2.7703,2.8508,3.0474,3.1797,3.2103,3.3461,3.4756,3.5808,3.6738,3.7668,3.867,3.9173,3.9589,3.9915,4.0219,4.0412,4.0489,4.0489,4.0489,4.0489,4.0489,4.0354,4.0092,4.0101,3.969,3.9091,3.9101,3.894,3.8707,3.8707,3.801,3.6846,3.5156,3.4228,3.3807,3.3807,3.3807,3.3807,3.3807,3.3807,3.3862,3.4156,3.4605,3.5255,3.6434,3.7121,3.7686,3.8524,3.8548,3.8478,3.8652,3.8562,3.8475,3.867,3.877,3.8904,3.9072,3.932,3.9483,3.9483,3.9642,3.9684,3.9546,3.8275,3.643,3.395,2.9854,2.4362,1.7171,0.7494,0.0533,-0.2686,-0.4685,-0.6325,-0.7546,-0.7156,-0.7613,-0.9127,-0.9093,-0.9442,-1.0284,-1.0661,-1.1326,-1.2076,-1.2457,-1.5921]},{"header":{"parameterUnit":"m.s-1","parameterCategory":1,"la1":30.6,"la2":29.2853,"lo1":-89.7004,"lo2":-87.6739,"dy":0.0162,"dx":0.0183,"nx":112,"ny":82,"refTime":"2023-08-24T00:00:00:Z","depth":0,"parameterNumber":3,"parameterNumberName":"V-component_of_WINDS"},"data":[0.0,0.0,0.0,0.0,0.0,0.0,0.0,0.0,0.0,0.0,0.0,0.0,0.0,0.0,0.0,0.0,0.0,0.0,0.0,0.0,0.0,0.0,0.0,0.0,0.0,0.0,0.0,0.0,0.0,0.0,0.0,0.0,0.0,0.0,0.0,0.0,0.0,0.0,0.0,0.0,0.0,0.0,0.0,0.0,0.0,0.0,0.0,0.0,0.0,0.0,0.0,0.0,0.0,0.0,0.0,0.0,0.0,0.0,0.0,0.0,0.0,0.0,0.0,0.0,0.0,0.0,0.0,0.0,0.0,0.0,0.0,0.0,0.0,0.0,0.0,0.0,0.0,0.0,0.0,0.0,0.0,0.0,0.0,0.0,0.0,0.0,0.0,0.0,0.0,0.0,-1.4088,-1.4088,-1.4088,-1.4135,-1.4076,-1.4756,-1.6669,-2.0352,0.0,0.0,0.0,0.0,0.0,0.0,0.0,0.0,0.0,0.0,0.0,0.0,0.0,0.0,0.0,0.0,0.0,0.0,0.0,0.0,0.0,0.0,0.0,0.0,0.0,0.0,0.0,0.0,0.0,0.0,0.0,0.0,0.0,0.0,0.0,0.0,0.0,0.0,0.0,0.0,0.0,0.0,0.0,0.0,0.0,0.0,0.0,0.0,0.0,0.0,0.0,0.0,0.0,0.0,0.0,0.0,0.0,0.0,0.0,0.0,0.0,0.0,0.0,0.0,0.0,0.0,0.0,0.0,0.0,0.0,0.0,0.0,0.0,0.0,0.0,0.0,0.0,0.0,0.0,0.0,0.0,0.0,0.0,0.0,0.0,0.0,0.0,0.0,0.0,0.0,0.0,0.0,0.0,0.0,0.0,0.0,0.0,0.0,0.0,0.0,0.0,0.0,0.0,0.0,-1.4088,-1.4088,-1.4088,-1.4092,-1.4062,-1.7458,-1.9857,-2.0553,0.0,0.0,0.0,0.0,0.0,0.0,0.0,0.0,0.0,0.0,0.0,0.0,0.0,0.0,0.0,0.0,0.0,0.0,0.0,0.0,0.0,0.0,0.0,0.0,0.0,0.0,0.0,0.0,0.0,0.0,0.0,0.0,0.0,0.0,0.0,0.0,0.0,0.0,0.0,0.0,0.0,0.0,0.0,0.0,0.0,0.0,0.0,0.0,0.0,0.0,0.0,0.0,0.0,0.0,0.0,0.0,0.0,0.0,0.0,0.0,0.0,0.0,0.0,0.0,0.0,0.0,0.0,0.0,0.0,0.0,0.0,0.0,0.0,0.0,0.0,0.0,0.0,0.0,0.0,0.0,0.0,0.0,0.0,0.0,0.0,0.0,0.0,0.0,0.0,0.0,0.0,0.0,0.0,0.0,0.0,0.0,0.0,0.0,0.0,0.0,0.0,0.0,0.0,-1.4088,-1.4139,-1.4129,-1.4115,-1.4096,-1.4075,-1.8095,-2.0579,-2.0585,-2.0625,0.0,0.0,0.0,0.0,0.0,0.0,0.0,0.0,0.0,0.0,0.0,0.0,0.0,0.0,0.0,0.0,0.0,0.0,0.0,0.0,0.0,0.0,0.0,0.0,0.0,0.0,0.0,0.0,0.0,0.0,0.0,0.0,0.0,0.0,0.0,0.0,0.0,0.0,0.0,0.0,0.0,0.0,0.0,0.0,0.0,0.0,0.0,0.0,0.0,0.0,0.0,0.0,0.0,0.0,0.0,0.0,0.0,0.0,0.0,0.0,0.0,0.0,0.0,0.0,0.0,0.0,0.0,0.0,0.0,0.0,0.0,0.0,0.0,0.0,0.0,0.0,0.0,0.0,0.0,0.0,0.0,0.0,0.0,0.0,0.0,0.0,0.0,0.0,0.0,0.0,0.0,0.0,0.0,0.0,0.0,0.0,0.0,0.0,0.0,0.0,0.0,0.0,-1.4079,-1.4088,-1.4125,-1.5047,-1.5665,-1.5666,-1.8656,-2.0574,-2.0576,-2.0566,0.0,0.0,0.0,0.0,0.0,0.0,0.0,0.0,0.0,0.0,0.0,0.0,0.0,0.0,0.0,0.0,0.0,0.0,0.0,0.0,0.0,0.0,0.0,0.0,0.0,0.0,0.0,0.0,0.0,0.0,0.0,0.0,0.0,0.0,0.0,0.0,0.0,0.0,0.0,0.0,0.0,0.0,0.0,0.0,0.0,0.0,0.0,0.0,0.0,0.0,0.0,0.0,0.0,0.0,0.0,0.0,0.0,0.0,0.0,0.0,0.0,0.0,0.0,0.0,0.0,0.0,0.0,0.0,0.0,0.0,0.0,0.0,0.0,0.0,0.0,0.0,0.0,0.0,0.0,0.0,0.0,0.0,0.0,0.0,0.0,0.0,0.0,0.0,0.0,0.0,0.0,0.0,0.0,0.0,0.0,0.0,0.0,0.0,0.0,0.0,0.0,0.0,-1.4138,-1.4123,-1.4109,-1.7759,-2.0111,-2.0108,-2.0394,-2.0574,-2.0576,-2.0566,0.0,0.0,0.0,0.0,0.0,0.0,0.0,0.0,0.0,0.0,0.0,0.0,0.0,0.0,0.0,0.0,0.0,0.0,0.0,0.0,0.0,0.0,0.0,0.0,0.0,0.0,0.0,0.0,0.0,0.0,0.0,0.0,0.0,0.0,0.0,0.0,0.0,0.0,0.0,0.0,0.0,0.0,0.0,0.0,0.0,0.0,0.0,0.0,0.0,0.0,0.0,0.0,0.0,0.0,0.0,0.0,0.0,0.0,0.0,0.0,0.0,0.0,0.0,0.0,0.0,0.0,0.0,0.0,0.0,0.0,0.0,0.0,0.0,0.0,0.0,0.0,0.0,0.0,0.0,0.0,0.0,0.0,0.0,0.0,0.0,0.0,0.0,0.0,0.0,0.0,0.0,0.0,0.0,0.0,0.0,0.0,0.0,0.0,0.0,0.0,0.0,0.0,-1.8181,-1.8172,-1.8123,-1.962,-2.063,-2.0635,-2.0615,-2.0576,-2.0566,0.0,0.0,0.0,0.0,0.0,0.0,0.0,0.0,0.0,0.0,0.0,0.0,0.0,0.0,0.0,0.0,0.0,0.0,0.0,0.0,0.0,0.0,0.0,0.0,0.0,0.0,0.0,0.0,0.0,0.0,0.0,0.0,0.0,0.0,0.0,0.0,0.0,0.0,0.0,0.0,0.0,0.0,0.0,0.0,0.0,0.0,0.0,0.0,0.0,0.0,0.0,0.0,0.0,0.0,0.0,0.0,0.0,0.0,0.0,0.0,0.0,0.0,0.0,0.0,0.0,0.0,0.0,0.0,0.0,0.0,0.0,0.0,0.0,0.0,0.0,0.0,0.0,0.0,0.0,0.0,0.0,0.0,0.0,0.0,0.0,0.0,0.0,0.0,0.0,0.0,0.0,0.0,0.0,0.0,0.0,0.0,0.0,0.0,0.0,0.0,0.0,0.0,-2.0026,-2.0576,-2.0579,-2.0584,-2.0564,-2.0585,-2.0576,-2.0566,-2.0566,-2.0566,0.0,0.0,0.0,0.0,0.0,0.0,0.0,0.0,0.0,0.0,0.0,0.0,0.0,0.0,0.0,0.0,0.0,0.0,0.0,0.0,0.0,0.0,0.0,0.0,0.0,0.0,0.0,0.0,0.0,0.0,0.0,0.0,0.0,0.0,0.0,0.0,0.0,0.0,0.0,0.0,0.0,0.0,0.0,0.0,0.0,0.0,0.0,0.0,0.0,0.0,0.0,0.0,0.0,0.0,0.0,0.0,0.0,0.0,0.0,0.0,0.0,0.0,0.0,0.0,0.0,0.0,0.0,0.0,0.0,0.0,0.0,0.0,0.0,0.0,0.0,0.0,0.0,0.0,0.0,0.0,0.0,0.0,0.0,0.0,0.0,0.0,0.0,0.0,0.0,0.0,0.0,0.0,0.0,0.0,0.0,0.0,0.0,0.0,0.0,0.0,0.0,0.0,-2.0049,-2.0613,-2.0566,-2.0566,-2.0566,-2.0566,-2.0566,-2.0634,-2.0634,0.0,0.0,0.0,0.0,0.0,0.0,0.0,0.0,0.0,0.0,0.0,0.0,0.0,0.0,0.0,0.0,0.0,0.0,0.0,0.0,0.0,0.0,0.0,0.0,0.0,0.0,0.0,0.0,0.0,0.0,0.0,0.0,0.0,0.0,0.0,0.0,0.0,0.0,0.0,0.0,0.0,0.0,0.0,0.0,0.0,0.0,0.0,0.0,0.0,0.0,0.0,0.0,0.0,0.0,0.0,0.0,0.0,0.0,0.0,0.0,0.0,0.0,0.0,0.0,0.0,0.0,0.0,0.0,0.0,0.0,0.0,0.0,0.0,0.0,0.0,0.0,0.0,0.0,0.0,0.0,0.0,0.0,0.0,0.0,0.0,0.0,0.0,0.0,0.0,0.0,0.0,0.0,0.0,0.0,0.0,0.0,0.0,0.0,0.0,0.0,0.0,0.0,0.0,-2.0076,-2.0595,-2.0566,-2.0566,-2.0566,-2.0566,-2.0566,-2.0611,-2.0582,-2.0634,0.0,0.0,0.0,0.0,0.0,0.0,0.0,0.0,0.0,0.0,0.0,0.0,0.0,0.0,0.0,0.0,0.0,0.0,0.0,0.0,0.0,0.0,0.0,0.0,0.0,0.0,0.0,0.0,0.0,0.0,0.0,0.0,0.0,0.0,0.0,0.0,0.0,0.0,0.0,0.0,0.0,0.0,0.0,0.0,0.0,0.0,0.0,0.0,0.0,0.0,0.0,0.0,0.0,0.0,0.0,0.0,0.0,0.0,0.0,0.0,0.0,0.0,0.0,0.0,0.0,0.0,0.0,0.0,0.0,0.0,0.0,0.0,0.0,0.0,0.0,0.0,0.0,0.0,0.0,0.0,0.0,0.0,0.0,0.0,0.0,0.0,0.0,0.0,0.0,0.0,0.0,0.0,0.0,0.0,0.0,0.0,0.0,0.0,0.0,0.0,0.0,0.0,-2.0267,-2.0635,-2.0566,-2.0566,-2.0613,-2.0621,-2.0621,-2.0581,-2.1264,-2.2821,0.0,0.0,0.0,0.0,0.0,0.0,0.0,0.0,0.0,0.0,0.0,0.0,0.0,0.0,0.0,0.0,0.0,0.0,0.0,0.0,0.0,0.0,0.0,0.0,0.0,0.0,0.0,0.0,0.0,0.0,0.0,0.0,0.0,0.0,0.0,0.0,0.0,0.0,0.0,0.0,0.0,0.0,0.0,0.0,0.0,0.0,0.0,0.0,0.0,0.0,0.0,0.0,0.0,0.0,0.0,0.0,0.0,0.0,0.0,0.0,0.0,0.0,0.0,0.0,0.0,0.0,0.0,0.0,0.0,0.0,0.0,0.0,0.0,0.0,0.0,0.0,0.0,0.0,0.0,0.0,0.0,0.0,0.0,0.0,0.0,0.0,0.0,0.0,0.0,0.0,0.0,0.0,0.0,0.0,0.0,0.0,0.0,0.0,0.0,0.0,0.0,0.0,-2.0613,-2.0615,-2.0566,-2.0566,-2.0609,-2.0783,-2.11,-2.1112,-2.2714,-2.6262,0.0,0.0,0.0,0.0,0.0,0.0,0.0,0.0,0.0,0.0,0.0,0.0,0.0,0.0,0.0,0.0,0.0,0.0,0.0,0.0,0.0,0.0,0.0,0.0,0.0,0.0,0.0,0.0,0.0,0.0,0.0,0.0,0.0,0.0,0.0,0.0,0.0,0.0,0.0,0.0,0.0,0.0,0.0,0.0,0.0,0.0,0.0,0.0,0.0,0.0,0.0,0.0,0.0,0.0,0.0,0.0,0.0,0.0,0.0,0.0,-4.0176,-4.007,0.0,0.0,0.0,0.0,0.0,0.0,0.0,0.0,0.0,0.0,0.0,0.0,0.0,0.0,0.0,0.0,0.0,0.0,0.0,0.0,0.0,0.0,0.0,0.0,0.0,0.0,0.0,0.0,0.0,0.0,0.0,0.0,0.0,0.0,0.0,0.0,0.0,0.0,0.0,0.0,-2.0635,-2.0596,-2.0566,-2.0566,-2.0609,-2.1834,-2.5009,-2.5248,-2.5589,-2.6457,-2.5683,0.0,0.0,0.0,0.0,0.0,0.0,0.0,0.0,0.0,0.0,0.0,0.0,0.0,0.0,0.0,0.0,0.0,0.0,0.0,0.0,0.0,0.0,0.0,0.0,0.0,0.0,0.0,0.0,0.0,0.0,0.0,0.0,0.0,0.0,0.0,0.0,0.0,0.0,0.0,0.0,0.0,0.0,0.0,0.0,0.0,0.0,0.0,0.0,0.0,0.0,0.0,0.0,0.0,0.0,0.0,0.0,0.0,0.0,0.0,-3.8847,-3.9375,0.0,0.0,0.0,0.0,0.0,0.0,0.0,0.0,0.0,0.0,0.0,0.0,0.0,0.0,0.0,0.0,0.0,0.0,0.0,0.0,0.0,0.0,0.0,0.0,0.0,0.0,0.0,0.0,0.0,0.0,0.0,0.0,0.0,0.0,0.0,0.0,0.0,0.0,0.0,0.0,-2.0586,-2.0566,-2.0566,-2.0566,-2.0641,-2.2168,-2.617,-2.649,-2.6466,-2.6498,-2.6514,0.0,0.0,0.0,0.0,0.0,0.0,0.0,0.0,0.0,0.0,0.0,0.0,0.0,0.0,0.0,0.0,0.0,0.0,0.0,0.0,0.0,0.0,0.0,0.0,0.0,0.0,0.0,0.0,0.0,0.0,0.0,0.0,0.0,0.0,0.0,0.0,0.0,0.0,0.0,0.0,0.0,0.0,0.0,0.0,0.0,0.0,0.0,0.0,0.0,0.0,0.0,0.0,0.0,-4.0571,-4.0055,-3.9465,-3.8955,-3.7567,-3.5624,-3.7782,-3.8728,-3.8728,-3.8689,0.0,0.0,0.0,0.0,0.0,0.0,0.0,0.0,0.0,0.0,0.0,0.0,0.0,0.0,0.0,0.0,0.0,0.0,0.0,0.0,0.0,0.0,-2.3135,-2.3135,-2.3135,-2.3106,-2.3113,0.0,0.0,0.0,0.0,0.0,0.0,0.0,0.0,0.0,0.0,0.0,-2.0605,-2.0595,-2.0566,-2.0566,-2.0571,-2.2226,-2.6129,-2.6478,-2.6533,-2.6533,-2.6533,-2.649,0.0,0.0,0.0,0.0,0.0,0.0,0.0,0.0,0.0,0.0,0.0,0.0,0.0,0.0,0.0,0.0,0.0,0.0,0.0,0.0,0.0,0.0,0.0,0.0,0.0,0.0,0.0,0.0,0.0,0.0,0.0,0.0,-3.9851,-3.8302,0.0,0.0,0.0,0.0,0.0,0.0,0.0,0.0,0.0,0.0,0.0,0.0,0.0,-4.1875,-4.1025,-4.2227,-4.191,-4.0046,-4.2662,-4.2526,-3.9919,-3.7265,-3.5843,-3.5488,-3.5857,0.0,-3.6031,-3.5983,0.0,0.0,0.0,0.0,0.0,0.0,0.0,0.0,0.0,0.0,0.0,0.0,0.0,0.0,0.0,0.0,0.0,0.0,0.0,0.0,0.0,0.0,-2.3135,-2.3135,-2.3135,-2.3057,-2.3086,-2.3096,-2.3106,-2.3145,-2.3104,-2.2917,0.0,0.0,0.0,0.0,0.0,0.0,-2.0605,-2.0572,-2.0566,-2.0566,-2.0636,-2.2188,-2.6151,-2.6482,-2.6533,-2.6533,-2.6533,-2.6521,-2.6528,-2.647,0.0,0.0,0.0,0.0,0.0,0.0,0.0,0.0,0.0,0.0,0.0,0.0,0.0,0.0,0.0,0.0,0.0,0.0,0.0,0.0,0.0,0.0,0.0,0.0,0.0,0.0,0.0,0.0,0.0,-3.9413,-3.806,-3.7806,-3.8761,-3.9437,0.0,0.0,0.0,0.0,0.0,0.0,0.0,0.0,0.0,-4.1506,-4.1223,-4.0882,-4.0493,-4.1103,-4.0925,-3.999,-4.1403,-4.1377,-4.0008,-3.6899,-3.5508,-3.5472,-3.5484,-3.5525,-3.5488,-3.5525,-3.3851,-3.1163,0.0,0.0,0.0,0.0,-2.9839,-2.9792,-2.9792,-2.9792,-2.9777,-2.9824,0.0,0.0,0.0,0.0,0.0,0.0,0.0,-2.3135,-2.3135,-2.3135,-2.3135,-2.3135,-2.3135,-2.3135,-2.3135,-2.3065,-2.3073,-2.3096,-2.3057,-2.3114,-2.3125,-2.3093,0.0,0.0,0.0,-2.0604,-2.0572,-2.0571,-2.147,-2.3709,-2.3895,-2.459,-2.6377,-2.6527,-2.6533,-2.6533,-2.6489,-2.6524,-2.6532,-2.7691,-2.8366,0.0,0.0,0.0,0.0,0.0,0.0,0.0,0.0,0.0,0.0,0.0,0.0,0.0,0.0,0.0,0.0,0.0,0.0,0.0,0.0,0.0,0.0,0.0,0.0,0.0,0.0,0.0,0.0,-3.8412,-3.7541,-3.7764,-3.8652,-3.9209,0.0,0.0,0.0,0.0,0.0,0.0,-4.1402,-4.149,-4.1358,-4.0903,-4.0368,-4.0082,-4.0095,-4.0385,-4.0374,-4.0099,-4.0103,-4.0113,-4.0019,-3.6927,-3.5491,-3.5504,-3.5504,-3.551,-3.5527,-3.5468,-3.3215,-2.9764,-2.9806,-2.977,-2.9792,-2.9792,-2.9792,-2.9792,-2.9792,-2.9792,-2.9777,-2.9824,-2.8994,-2.7501,-2.4122,0.0,0.0,0.0,0.0,-2.3135,-2.3135,-2.3135,-2.3135,-2.3135,-2.3533,-2.3794,-2.3211,-2.3077,-2.3108,-2.3113,-2.3077,-2.3507,-2.4605,-2.3898,0.0,-2.3917,-2.2878,-2.2136,-2.2092,-2.2131,-2.324,-2.6178,-2.65,-2.6516,-2.6516,-2.6477,-2.6533,-2.6533,-2.6487,-2.6739,-2.7347,-2.8912,-2.9776,-2.9796,0.0,0.0,0.0,0.0,0.0,0.0,0.0,0.0,0.0,0.0,0.0,0.0,0.0,0.0,0.0,0.0,0.0,0.0,0.0,0.0,0.0,0.0,0.0,0.0,0.0,0.0,0.0,0.0,0.0,-3.7978,-3.9119,0.0,0.0,0.0,0.0,-4.1682,-4.1768,-4.2038,-4.2577,-4.1534,-4.0949,-4.0903,-4.0368,-4.0082,-4.0095,-4.118,-4.1197,-4.0083,-4.0082,-4.0091,-3.9991,-3.6885,-3.5491,-3.5504,-3.5504,-3.551,-3.5512,-3.5507,-3.3273,-2.9825,-2.977,-2.9804,-2.9792,-2.9792,-2.9792,-2.9792,-2.9792,-2.9792,-2.9777,-2.9824,-2.694,-2.3418,-2.3201,-2.3125,0.0,0.0,-2.3135,-2.3135,-2.3135,-2.3135,-2.3135,-2.3135,-2.4705,-2.5775,-2.3533,-2.3076,-2.3102,-2.3098,-2.3066,-2.4456,-2.871,0.0,-2.3827,-2.6019,-2.6288,-2.6186,-2.62,-2.6178,-2.6306,-2.6451,-2.6494,-2.649,-2.649,-2.6465,-2.6533,-2.6533,-2.6487,-2.741,-2.9559,-2.9751,-2.9821,-2.9767,-2.9767,0.0,0.0,0.0,0.0,0.0,0.0,0.0,0.0,0.0,0.0,0.0,0.0,0.0,0.0,0.0,0.0,0.0,0.0,0.0,0.0,0.0,0.0,0.0,0.0,0.0,0.0,0.0,0.0,-3.7921,-3.9458,0.0,-3.9952,-4.0886,-4.1595,-4.181,-4.2162,-4.248,-4.2711,-4.1937,-4.149,-4.149,-4.0568,-4.0079,-4.0095,-4.0483,-4.0483,-4.0095,-4.0104,-4.0067,-4.0017,-3.6924,-3.5492,-3.5504,-3.5504,-3.551,-3.5327,-3.2891,-3.1042,-2.9789,-2.9834,-2.9792,-2.9792,-2.9792,-2.9792,-2.9792,-2.9792,-2.9792,-2.9316,-2.6462,-2.4395,-2.3617,-2.6516,-2.5398,-2.3096,-2.313,-2.3142,-2.3135,-2.3135,-2.3135,-2.3436,-2.4909,-2.5894,-2.665,-2.73,-2.7428,-2.7383,-2.7382,-2.7428,-2.7881,-2.9548,-2.7311,-2.5559,-2.6402,-2.6469,-2.6485,-2.6491,-2.6519,-2.6514,-2.6514,-2.6471,-2.6533,-2.6533,-2.6533,-2.6483,-2.6487,-2.6525,-2.7457,-2.9676,-2.9821,-2.9833,-2.9792,-2.9792,-2.9792,0.0,0.0,0.0,0.0,0.0,0.0,0.0,0.0,0.0,0.0,0.0,0.0,0.0,0.0,0.0,0.0,0.0,0.0,0.0,0.0,0.0,0.0,0.0,0.0,0.0,-3.9699,-3.9597,-3.8867,-4.0212,-4.1007,-4.0517,-4.1481,-4.2121,-4.2121,-4.2637,-4.2976,-4.2976,-4.2422,-4.2021,-4.181,-4.0928,-4.0544,-4.0683,-4.0279,-4.0095,-4.0112,-4.0068,-3.9539,-3.846,-3.644,-3.5488,-3.5504,-3.5504,-3.551,-3.5327,-3.2779,-3.093,-2.9789,-2.9834,-2.9792,-2.9792,-2.9792,-2.9792,-2.9792,-2.9792,-2.9789,-2.9308,-2.6323,-2.5349,-2.5915,-2.8915,-2.7742,-2.5135,-2.4132,-2.3851,-2.3774,-2.3232,-2.3387,-2.4013,-2.5583,-2.6473,-2.7318,-2.8431,-2.9255,-2.9814,-2.9783,-2.9831,-2.9774,-2.9831,-2.799,-2.6481,-2.6479,-2.6487,-2.6533,-2.6533,-2.6533,-2.6533,-2.6533,-2.6476,-2.6519,-2.6521,-2.6476,-2.6533,-2.6507,-2.7197,-2.8249,-2.9718,-2.977,-2.9792,-2.9792,-2.9792,-2.9777,-2.9824,0.0,0.0,0.0,0.0,0.0,0.0,0.0,0.0,0.0,0.0,0.0,0.0,0.0,0.0,0.0,0.0,0.0,0.0,0.0,0.0,0.0,0.0,0.0,-4.0864,-4.1306,-4.149,-4.0746,-4.135,-4.1835,-4.1877,-4.2364,-4.2732,-4.277,-4.3232,-4.3513,-4.3513,-4.3014,-4.2422,-4.1853,-4.1414,-4.1367,-4.1801,-4.0666,-4.0077,-4.0083,-4.0101,-3.8469,-3.5509,-3.5521,-3.5503,-3.5504,-3.5504,-3.5495,-3.5483,-3.5534,-3.3245,-2.9764,-2.9821,-2.9792,-2.9792,-2.9792,-2.9792,-2.9792,-2.9792,-2.9795,-2.9764,-2.9776,-2.9792,-2.9758,-2.9782,-2.977,-2.9106,-2.6293,-2.5466,-2.5105,-2.358,-2.4039,-2.4851,-2.4851,-2.6487,-2.7779,-2.6769,-2.8206,-2.9779,-2.9753,-2.9699,-2.9699,-2.9705,-2.7901,-2.6491,-2.6515,-2.6533,0.0,-2.6533,-2.6521,-2.6508,-2.6508,-2.6493,-2.6563,-2.6658,-2.6573,-2.6502,-2.6528,-2.8605,-2.977,-2.9819,-2.977,-2.9792,-2.9792,-2.9792,-2.9811,-2.9776,0.0,0.0,0.0,0.0,0.0,0.0,0.0,0.0,0.0,0.0,0.0,0.0,0.0,0.0,0.0,0.0,0.0,0.0,0.0,0.0,0.0,-4.3825,-4.2978,-4.1662,-4.1672,-4.1806,-4.1805,-4.2181,-4.2643,-4.3109,-4.3476,-4.3762,-4.405,-4.4204,-4.4165,-4.3881,-4.3364,-4.2868,-4.248,-4.1114,-4.0866,-4.1783,-4.0682,-4.0106,-4.0067,-4.0105,-3.8472,-3.5524,-3.5491,-3.5484,-3.5504,-3.5504,-3.5514,-3.5466,-3.5536,-3.3269,-2.9823,-2.9771,-2.9792,-2.9792,-2.9792,-2.9792,-2.9792,-2.9792,-2.9777,-2.9824,-2.9782,-2.9088,-2.8357,-2.9492,-2.8666,-2.7403,-2.7371,-2.6835,-2.6102,-2.5652,-2.5452,-2.5588,-2.6394,-2.6773,-2.7119,-2.7953,-2.8337,-2.8804,-2.964,-2.849,-2.7401,-2.7427,-2.6905,-2.6491,-2.6515,-2.6533,-2.6533,-2.6533,-2.6485,-2.6509,-2.6509,-2.6518,-2.7466,-2.9919,-2.7873,-2.6479,-2.6506,-2.8612,-2.9771,-2.9776,-2.9783,-2.9792,-2.9792,-2.9792,-2.9811,0.0,0.0,0.0,0.0,0.0,0.0,0.0,0.0,0.0,0.0,0.0,0.0,0.0,0.0,0.0,0.0,0.0,0.0,0.0,0.0,0.0,0.0,-4.4337,-4.3749,-4.3065,-4.285,-4.285,-4.3229,-4.3391,-4.3643,-4.4036,-4.4158,-4.4364,-4.458,-4.458,-4.4401,-4.3998,-4.3706,-4.3259,-4.2585,-4.1902,-4.1381,-4.1088,-4.0456,-4.0082,-4.0087,-4.0105,-3.8464,-3.5524,-3.5523,-3.5473,-3.5504,-3.5504,-3.5504,-3.5484,-3.5483,-3.4157,-3.2031,0.0,0.0,0.0,0.0,-2.9792,-2.9792,-2.9792,-2.9792,-2.9829,-2.9808,-2.9253,-2.8639,-2.9534,-2.8724,-2.7537,-2.7696,-2.7147,-2.6428,-2.5936,-2.5871,-2.6138,-2.6848,-2.7091,-2.7385,-2.8116,-2.8151,-2.8181,-2.8376,-2.7386,0.0,-2.6462,-2.6462,-2.6469,-2.649,-2.6533,-2.6471,-2.6511,-2.6483,-2.7039,-2.8419,-2.8592,-2.9366,-3.1338,-2.9701,0.0,0.0,0.0,-3.1482,-2.9873,-2.9758,0.0,0.0,0.0,-2.9804,-2.9788,-2.9758,0.0,0.0,-2.3065,-2.3135,0.0,0.0,0.0,0.0,0.0,0.0,0.0,0.0,0.0,0.0,0.0,0.0,0.0,0.0,0.0,0.0,-4.4825,-4.4606,-4.4631,-4.4346,-4.4261,-4.4606,-4.4606,-4.4631,-4.4726,-4.4682,-4.4676,-4.4676,-4.4676,-4.4455,-4.4028,-4.4016,0.0,0.0,0.0,-4.2553,-4.0492,-4.0246,-4.0092,-4.0103,-4.0093,-3.8694,-3.6012,-3.5658,-3.5488,-3.5504,-3.5504,-3.5504,-3.5514,-3.5511,-3.5239,-3.4497,-3.1109,-2.9783,-2.9792,-2.9792,-2.9792,-2.9792,-2.9792,0.0,0.0,-2.9691,-2.9654,-2.9603,-2.9603,-2.9239,-2.8599,-2.7625,-2.7071,-2.6422,-2.5447,-2.5896,-2.6566,-2.6566,-2.7287,-2.788,-2.7678,-2.7793,-2.7627,-2.6671,-2.6531,-2.6531,-2.6531,-2.6501,-2.6526,-2.6526,-2.6488,-2.6473,-2.6515,-2.683,-2.8193,-3.1174,-3.1489,0.0,-3.1517,-3.1506,-3.1526,-3.1471,-3.4042,-3.3774,-2.9986,-2.9758,-2.9792,-2.9792,-2.9829,-2.9518,-2.9003,-2.9023,-2.6986,-2.3138,-2.3065,-2.3135,0.0,0.0,0.0,0.0,0.0,0.0,0.0,0.0,0.0,0.0,0.0,0.0,0.0,0.0,0.0,-4.5115,-4.4825,-4.4682,-4.4985,-4.4943,-4.4919,-4.4988,-4.4757,-4.4806,-4.5362,-4.5161,-4.4988,-4.4988,-4.4988,-4.4713,-4.4028,-4.4091,-4.3892,-4.332,-4.3426,-4.3306,-4.2835,-4.1014,-4.0097,-4.0109,-4.0118,0.0,-3.9143,-3.664,-3.5488,-3.5504,-3.5504,-3.5504,-3.5484,-3.5501,-3.3663,-3.0842,-3.0113,-2.9781,-2.9792,-2.9792,-2.9792,-2.9792,-2.9792,-2.9389,-2.8875,-2.8875,-2.8687,-2.8436,-2.8436,-2.836,0.0,-2.8027,-2.7878,-2.7717,-2.7484,-2.731,-2.7145,-2.7145,-2.6951,-2.7043,-2.7824,-2.7403,-2.6734,-2.6557,-2.653,-2.653,-2.653,-2.6491,-2.6524,-2.6524,-2.6492,-2.6504,-2.6489,-2.8879,-3.0805,-3.1448,-3.1486,-3.1514,-3.1471,-3.1529,-3.1501,-3.1521,-3.4018,-3.3788,-2.9925,-2.9758,-2.9792,-2.9792,-2.9829,-2.798,-2.4436,-2.4419,-2.3954,-2.3138,-2.3065,-2.3135,0.0,0.0,0.0,0.0,0.0,0.0,0.0,0.0,0.0,0.0,0.0,-4.6056,-4.5912,0.0,-4.5551,-4.538,-4.5222,-4.5161,-4.5322,-4.5342,-4.5342,-4.5342,-4.5182,-4.5243,-4.5568,-4.5302,-4.5096,-4.5096,-4.4943,-4.4587,-4.4028,-4.4128,-4.3979,-4.3513,-4.3497,-4.3506,-4.3504,-4.2376,-4.1208,-4.0092,-4.0098,-4.0117,-3.9982,-3.6927,-3.5522,-3.5483,-3.5514,-3.5504,-3.5344,-3.3443,-3.1548,-2.9779,-2.982,-2.9795,-2.9779,-2.9834,-2.9099,-2.8194,-2.8775,-2.8625,-2.8164,-2.8387,-2.8237,-2.8109,-2.8109,-2.7908,-2.7695,-2.7695,-2.7494,-2.7281,-2.7281,-2.708,-2.7006,-2.7383,-2.7301,-2.7271,-2.7944,-2.7902,-2.8005,-2.8834,-2.9002,-2.9002,-2.9002,-2.9002,-2.9008,-2.8971,-2.9013,-2.8983,-2.9024,-3.0485,-3.1529,-3.1501,-3.1485,-3.1482,-3.1482,-3.1485,-3.205,-3.3425,-3.4794,-3.3804,-2.9954,-2.9796,-2.9792,-2.9792,-2.9788,-2.7626,-2.3124,-2.3068,-2.314,-2.314,-2.3057,-2.3135,0.0,0.0,0.0,0.0,0.0,0.0,0.0,-4.4147,-4.4705,-4.5626,-4.5943,-4.6036,-4.5925,-4.5893,-4.5834,-4.568,-4.5605,-4.5586,-4.5586,-4.5586,-4.5586,-4.5586,-4.5586,-4.5586,-4.5586,-4.5342,-4.514,-4.5011,-4.4732,-4.4392,-4.3924,-4.4005,-4.3883,-4.3532,-4.3501,-4.3504,-4.3495,-4.3063,-4.1943,-4.0085,-4.0081,-3.9777,-3.916,-3.7223,-3.606,-3.5523,-3.5522,-3.5484,-3.5288,-3.2166,-3.0499,-2.9764,-2.9314,-2.9138,-2.9189,-2.9151,-2.8027,-2.6632,-2.7643,-2.7788,-2.7591,-2.7836,-2.7871,-2.7783,-2.7783,-2.7469,-2.7118,-2.7118,-2.6804,-2.6533,-2.6533,-2.6589,-2.6905,-2.7537,-2.7868,-2.805,-2.8433,-2.8872,-2.961,-3.1176,-3.1507,-3.1507,-3.1507,-3.1523,-3.1511,-3.1503,-3.1503,-3.1515,-3.1529,-3.1485,-3.1486,-3.1511,-3.1482,-3.1482,-3.1482,-3.1486,-3.2407,-3.4622,-3.5236,-3.3815,-2.9971,-2.9804,-2.9768,-2.9792,-2.9824,-2.7589,-2.3063,-2.3071,-2.3135,-2.3135,-2.3135,-2.3135,-3.1046,-3.2966,-3.5116,-3.6729,-3.8936,-4.1052,0.0,-4.3599,-4.4819,-4.5353,-4.5706,-4.5917,-4.5891,-4.5841,-4.5796,-4.5776,-4.568,-4.5586,-4.5586,-4.5586,-4.5586,-4.5586,-4.5586,-4.5586,-4.5586,-4.5568,-4.5302,-4.4682,-4.4606,-4.428,-4.3597,-4.3548,-4.3548,-4.3497,-4.3488,-4.3516,-4.349,-4.1499,-4.0343,-4.0087,-4.0118,-3.8667,-3.612,-3.8497,-3.8098,-3.5523,-3.5522,-3.5481,-3.5501,-3.5052,-3.2854,-2.9608,-2.7649,-2.6861,-2.6897,-2.6882,-2.6724,-2.6602,-2.7397,-2.7526,-2.7356,-2.7369,-2.7042,-2.671,-2.671,-2.6672,-2.6622,-2.6622,-2.6584,-2.6533,-2.6533,-2.704,-2.7604,-2.767,-2.8298,-2.9052,-2.9907,-2.9868,-3.005,-3.1264,-3.1499,-3.1499,-3.1499,-3.1513,-3.15,-3.1482,-3.1486,-3.1485,-3.1498,-3.1483,-3.1526,-3.1482,-3.1482,-3.1482,-3.1482,-3.1486,-3.1648,-3.1907,-3.4153,-3.3762,-2.9958,-2.9766,-2.9808,-2.9779,-2.9824,-2.7589,-2.3063,-2.3071,-2.3135,-2.3135,-2.3135,-2.3135,-3.0587,-3.1875,-3.3192,-3.5498,-3.7546,-3.9417,-4.1214,-4.276,-4.411,-4.5132,-4.546,-4.5613,-4.5855,-4.5882,-4.5843,-4.5822,-4.5757,-4.5699,-4.5605,-4.5586,-4.5586,-4.5586,-4.5586,-4.5586,-4.5586,-4.5243,-4.49,-4.4606,-4.4194,-4.3823,-4.3513,-4.3497,-4.3497,-4.3497,-4.3505,-4.2847,-4.1546,-4.0568,-4.0092,-4.0112,-4.0104,-3.9404,-3.8228,-3.9536,-3.8415,-3.548,-3.5477,-3.5484,-3.5469,-3.5469,-3.3638,-3.0709,-2.9761,-2.9374,-2.9173,-2.7214,-2.6519,-2.6515,-2.6868,-2.6872,-2.693,-2.7387,-2.7356,-2.7229,-2.7229,-2.7229,-2.7229,-2.7229,-2.7229,-2.7284,-2.7802,-2.8182,-2.8556,-2.9066,-2.9504,-2.995,-3.0837,-3.0911,-3.094,-3.1394,-3.1482,-3.1482,-3.1482,-3.1482,-3.1468,-3.153,-3.1528,-3.1492,-3.1475,-3.15,-3.1506,-3.1489,-3.15,-3.15,-3.15,-3.1522,-3.1531,-3.1535,-3.4036,-3.4758,-3.3169,-3.097,-2.9841,-2.982,-2.9774,-2.7615,-2.3063,-2.3118,-2.3113,-2.3135,-2.3135,-2.3135,-2.9184,-3.0247,-3.1245,-3.3847,-3.5762,-3.7592,-3.9729,-4.1615,-4.328,-4.4604,-4.5093,-4.5433,-4.5806,-4.5887,-4.588,-4.5847,-4.5827,-4.5796,-4.568,-4.5643,-4.5624,-4.5586,-4.5586,-4.5586,-4.5586,-4.5161,-4.483,-4.4694,-4.4195,-4.3762,-4.3517,-4.3502,-4.3505,-4.3479,-4.3505,-4.24,-4.0137,-4.0127,-4.0117,-4.0087,-4.0081,-4.0117,-4.0054,-3.9251,-3.7608,-3.5499,-3.548,-3.5102,-3.437,-3.4382,-3.3232,-3.15,-3.1478,-3.1507,-3.1228,-2.879,-2.76,-2.7212,-2.7172,-2.7162,-2.7284,-2.7855,-2.8051,-2.8051,-2.8051,-2.8051,-2.8051,-2.8051,-2.8051,-2.8182,-2.8812,-2.9192,-2.9504,-3.0133,-3.0464,-3.0777,-3.1351,-3.1482,-3.1482,-3.1482,-3.1477,-3.1501,-3.1501,-3.1509,-3.1531,-3.1531,-3.1531,-3.1496,-3.1503,-3.2145,-3.2651,-3.2618,-3.2625,-3.233,-3.1558,-3.1531,-3.1526,-3.1526,-3.402,-3.5509,-3.5472,-3.283,-3.0903,-2.9812,-2.9814,-2.8182,-2.493,-2.3678,-2.3097,-2.3085,-2.3096,-2.3135,-2.6221,-2.7669,-2.9307,-3.1012,-3.3393,-3.5804,-3.7411,-4.0046,-4.2447,-4.3539,-4.4577,-4.5411,-4.5753,-4.5862,-4.5898,-4.5898,-4.5901,-4.5873,-4.5796,-4.5796,-4.5757,-4.5605,-4.5586,-4.5586,-4.5586,-4.5586,-4.5381,-4.4925,-4.4862,-4.4448,-4.3539,-4.3509,-4.3489,-4.3513,-4.3505,-4.24,-4.0137,-4.0127,-4.0117,-4.007,-4.0087,-4.0087,-3.9986,-3.6966,-3.5579,-3.5531,-3.5516,-3.4053,-3.1608,-3.1602,-3.1589,-3.1516,-3.1514,-3.1531,-3.1496,-3.1406,-3.0306,-2.8953,-2.8939,-2.8939,-2.8939,-2.8939,-2.8939,-2.8939,-2.8939,-2.8939,-2.8939,-2.8939,-2.8939,-2.9002,-2.9002,-2.9628,-3.0269,-3.0269,-3.0896,-3.1467,-3.1482,-3.1482,-3.1482,-3.1482,-3.149,-3.1503,-3.1503,-3.148,-3.1482,-3.1482,-3.1482,-3.1482,-3.152,-3.3837,-3.5505,-3.5489,-3.5505,-3.4386,-3.1743,-3.1488,-3.1475,-3.1486,-3.4046,-3.547,-3.5525,-3.5386,-3.3615,-2.9899,-2.9814,-2.9764,-2.9555,-2.5247,-2.3138,-2.3073,-2.3065,-2.3135,-2.5049,-2.6201,-2.7512,-2.9044,-3.1273,-3.3628,-3.5668,-3.7938,-4.0123,-4.1887,-4.3106,-4.4207,-4.5438,-4.5766,-4.5851,-4.5894,-4.5971,-4.5979,-4.5829,-4.5796,-4.5757,-4.5605,-4.568,-4.5699,-4.5605,-4.5323,-4.5203,-4.5347,-4.4953,-4.4365,-4.3539,-4.349,-4.3503,-4.3513,-4.3505,-4.3113,-4.2339,-4.0854,-4.0117,-4.007,-4.007,-4.0104,-4.0007,-3.6894,-3.5494,-3.537,-3.3619,-3.2311,-3.1514,-3.1486,-3.1499,-3.1485,-3.1511,-3.1498,-3.15,-3.15,-3.1146,-3.0389,-2.8748,-2.8492,-2.9002,-2.9002,-2.938,-2.9889,-2.9889,-2.9889,-2.9889,-2.9889,-2.9889,-3.0011,-3.0524,-3.0896,-3.1087,-3.1087,-3.1278,-3.1482,-3.1482,-3.1482,-3.1482,-3.1482,-3.1475,-3.2098,-3.392,-3.4213,-3.421,-3.4202,-3.4203,-3.4219,-3.4216,-3.502,-3.5582,-3.5582,-3.5593,-3.5218,-3.428,-3.2534,-3.152,-3.1504,-3.2359,-3.3607,-3.5428,-3.5495,-3.3691,-2.9882,-2.9792,-2.9767,-2.9788,-2.8257,-2.6023,-2.3138,-2.3065,-2.3135,-2.3632,-2.4708,-2.5963,-2.7367,-2.8858,-3.054,-3.2594,-3.5289,-3.8075,-4.0524,-4.2192,-4.3637,-4.5005,-4.5515,-4.5771,-4.5844,-4.6007,-4.6034,-4.5839,-4.58,-4.5747,-4.562,-4.568,-4.5695,-4.5619,-4.5341,-4.5282,-4.5589,-4.5211,-4.4757,-4.427,-4.3783,-4.3497,-4.3513,-4.3506,-4.3511,-4.3494,-4.1262,-4.0117,-4.007,-4.007,-4.0085,-4.0059,-3.8049,-3.653,-3.5357,-3.2676,-3.1516,-3.1486,-3.1483,-3.1482,-3.1482,-3.1482,-3.1482,-3.1482,-3.1482,-3.1482,-3.1278,-2.9628,-2.9442,-2.9889,-2.9889,-3.0269,-3.0718,-3.0718,-3.0718,-3.0718,-3.0718,-3.0718,-3.0837,-3.1351,-3.1482,-3.1582,-3.1853,-3.1894,-3.1951,-3.2201,-3.2256,-3.2109,-3.1582,-3.1505,-3.2358,-3.513,-3.5594,-3.5595,-3.5599,-3.5596,-3.5596,-3.5596,-3.5593,-3.5622,-3.5622,-3.5585,-3.5616,-3.5623,-3.3974,-3.2954,-3.2965,-3.2016,-3.2734,-3.5398,-3.5523,-3.4329,-3.1881,-3.0467,-2.9796,-2.9829,-2.9797,-2.7504,-2.3136,-2.3093,-2.3135,-2.1866,-2.3045,-2.4542,-2.5612,-2.6138,-2.6791,-2.8491,-3.2139,-3.6092,-3.9244,-4.1701,-4.353,-4.4225,-4.4991,-4.5558,-4.5764,-4.5958,-4.602,-4.5838,-4.5815,-4.5771,-4.5632,-4.5605,-4.5626,-4.5634,-4.5634,-4.5624,-4.5586,-4.5586,-4.559,-4.559,-4.4278,-4.3502,-4.3495,-4.3497,-4.3487,-4.3494,-4.1216,-4.0089,-4.007,-4.007,-4.012,-4.0097,-4.0071,-3.8406,-3.5336,-3.268,-3.1516,-3.1482,-3.1482,-3.1482,-3.1482,-3.1482,-3.1482,-3.1482,-3.1482,-3.1482,-3.1482,-3.1482,-3.1482,-3.1482,-3.1467,-3.1467,-3.1482,-3.1482,-3.1482,-3.1482,-3.1482,-3.1482,-3.1482,-3.1482,-3.1524,-3.1739,-3.2437,-3.2641,-3.2841,-3.3443,-3.3598,-3.324,-3.1876,-3.1656,-3.2562,-3.5131,-3.5602,-3.5622,-3.5622,-3.5605,-3.5588,-3.5622,-3.5622,-3.5622,-3.5622,-3.5622,-3.5593,-3.5621,-3.5607,-3.558,-3.561,-3.2996,-3.2634,-3.5171,-3.5454,-3.5516,-3.5525,-3.1756,-2.9806,-2.9792,-2.9824,-2.7449,-2.3083,-2.3071,-2.3125,-1.9653,-2.0409,-2.1647,-2.1924,-2.3172,-2.4764,-2.6719,-2.8625,-3.1271,-3.5759,-3.8966,-4.1022,-4.1211,-4.2767,-4.4393,-4.5466,-4.5812,-4.5922,-4.5815,-4.6014,-4.6025,-4.5648,-4.5738,-4.5912,-4.6092,-4.6113,-4.5988,-4.5624,-4.5586,-4.559,-4.559,-4.4278,-4.3502,-4.3495,-4.3497,-4.3487,-4.3494,-4.1256,-4.0114,-4.007,-4.007,-4.007,-4.0087,-4.0101,-3.8439,-3.54,-3.2661,-3.1485,-3.1482,-3.1482,-3.1482,-3.1482,-3.1482,-3.1482,-3.1482,-3.1482,-3.1482,-3.1482,-3.1482,-3.1482,-3.1409,-3.0777,-3.1029,-3.1482,-3.1482,-3.1482,-3.1482,-3.1482,-3.1482,-3.1482,-3.1482,-3.191,-3.2382,-3.2547,-3.2986,-3.3391,-3.3531,-3.3877,-3.3893,-3.3224,-3.3843,-3.48,-3.5467,-3.5599,-3.5622,-3.5622,-3.5598,-3.5583,-3.5616,-3.5622,-3.5622,-3.5622,-3.5622,-3.5611,-3.5593,-3.5593,-3.5596,-3.5597,-3.3008,-3.1784,-3.2494,-3.4405,-3.551,-3.551,-3.1734,-2.9783,-2.9792,-2.9794,-2.7522,-2.3073,-2.3078,-2.3063,-1.9338,-2.0001,-2.0604,-2.0582,-2.1459,-2.3,-2.5837,-2.769,-2.9632,-3.2421,-3.5707,-3.8509,-3.9871,-4.1951,-4.3967,-4.5385,-4.5687,-4.5765,-4.5732,-4.5865,-4.5976,-4.5918,-4.6018,-4.6124,-4.6286,-4.6113,-4.5873,-4.5605,-4.5586,-4.559,-4.559,-4.4278,-4.3502,-4.3495,-4.3497,-4.3032,-4.2012,-4.0753,-4.0099,-4.007,-4.007,-4.0086,-4.0048,-3.8738,-3.6535,-3.3699,-3.2145,-3.1526,-3.1524,-3.1528,-3.1501,-3.1482,-3.1482,-3.1482,-3.1482,-3.1482,-3.1482,-3.1482,-3.1482,-3.1482,-3.1409,-3.097,-3.1146,-3.1482,-3.1482,-3.1482,-3.1582,-3.191,-3.1951,-3.2064,-3.2367,-3.2718,-3.3093,-3.3391,-3.3786,-3.4137,-3.4399,-3.4692,-3.4805,-3.4551,-3.509,-3.561,-3.5599,-3.5614,-3.5614,-3.5614,-3.5596,-3.5908,-3.6839,-3.617,-3.5614,-3.5614,-3.5591,-3.5581,-3.5581,-3.5593,-3.5609,-3.5607,-3.4152,-3.2782,-3.1569,-3.406,-3.5488,-3.551,-3.1755,-2.9813,-2.9792,-2.9762,-2.8521,-2.5997,-2.399,-2.3061,-1.9405,-2.0137,-2.0632,-2.0586,-2.0641,-2.1607,-2.5611,-2.7974,-2.9447,-2.9734,-3.2411,-3.5719,-3.8887,-4.1468,-4.3615,-4.5333,-4.5603,-4.5609,-4.5605,-4.56,-4.5766,-4.6249,-4.6298,-4.6311,-4.6288,-4.5926,-4.5697,-4.569,-4.564,-4.5591,-4.5609,-4.424,-4.3502,-4.3495,-4.3484,-4.2555,-4.0574,-4.0255,-4.0072,-4.007,-4.007,-4.0119,-4.0012,-3.6965,-3.4315,-3.2029,-3.1668,-3.169,-3.204,-3.1673,-3.149,-3.1482,-3.1482,-3.1482,-3.1482,-3.1482,-3.1482,-3.1482,-3.1482,-3.1482,-3.1482,-3.1482,-3.1482,-3.1482,-3.1482,-3.1582,-3.1796,-3.2437,-3.2641,-3.2895,-3.3443,-3.3684,-3.3887,-3.4479,-3.4688,-3.4894,-3.547,-3.5622,-3.562,-3.5589,-3.5801,-3.6006,-3.6025,-3.6013,-3.6013,-3.6013,-3.6015,-3.6659,-3.8451,-3.7122,-3.6013,-3.6013,-3.6016,-3.5883,-3.5604,-3.5608,-3.5616,-3.5618,-3.5607,-3.4522,-3.2152,-3.4253,-3.5491,-3.5509,-3.1728,-2.9813,-2.9792,-2.9791,-2.9775,-2.9687,-2.5209,-2.3107,-1.6129,-1.7861,-2.0591,-2.0622,-2.0604,-2.1634,-2.5582,-2.6815,-2.7619,-2.9431,-3.0335,-3.1897,-3.5598,-3.8706,-4.1772,-4.5058,-4.559,-4.5601,-4.5608,-4.561,-4.5766,-4.6246,-4.6301,-4.629,-4.6297,-4.6224,-4.6175,-4.6171,-4.5815,-4.5611,-4.5608,-4.4253,-4.3502,-4.3495,-4.3493,-4.3316,-4.2885,-4.1039,-4.0086,-4.007,-4.007,-4.0118,-3.9987,-3.697,-3.5328,-3.4759,-3.2473,-3.2779,-3.4705,-3.2467,-3.1507,-3.1482,-3.1482,-3.1482,-3.1482,-3.1482,-3.1482,-3.1482,-3.1482,-3.1482,-3.1482,-3.1482,-3.1482,-3.1482,-3.1482,-3.191,-3.2437,-3.2532,-3.2986,-3.3443,-3.3598,-3.4037,-3.4431,-3.4576,-3.5005,-3.547,-3.5577,-3.5622,-3.562,-3.5589,-3.7009,-3.8164,-3.8155,-3.816,-3.816,-3.816,-3.8151,-3.8292,-3.8633,-3.8383,-3.816,-3.816,-3.8155,-3.7474,-3.5756,-3.5614,-3.56,-3.5616,-3.5582,-3.5416,-3.4883,-3.5298,-3.5523,-3.5529,-3.1787,-2.9813,-2.9792,-2.9777,-2.9769,-2.9675,-2.5211,-2.3068,-1.4648,-1.5643,-1.7772,-2.0038,-2.0605,-2.11,-2.3037,-2.4997,-2.7109,-2.9346,-2.9823,-3.0951,-3.4835,-3.804,-4.0676,-4.2444,-4.4352,-4.5596,-4.5611,-4.5592,-4.5673,-4.592,-4.614,-4.6308,-4.6308,-4.631,-4.631,-4.6307,-4.61,-4.5858,-4.5611,-4.4266,-4.3498,-4.35,-4.3506,-4.2925,-4.1734,-4.063,-4.0105,-4.0124,-4.0099,-4.0114,-3.9983,-3.698,-3.5612,-3.5465,-3.2705,-3.2262,-3.3349,-3.2042,-3.1482,-3.1527,-3.1511,-3.149,-3.152,-3.1492,-3.1482,-3.1524,-3.1951,-3.2064,-3.2104,-3.2461,-3.2104,-3.1582,-3.1966,-3.2327,-3.2749,-3.3427,-3.3887,-3.4186,-3.4544,-3.4894,-3.5098,-3.5098,-3.5554,-3.5916,-3.5668,-3.5582,-3.5619,-3.5615,-3.7281,-3.8705,-3.8703,-3.8699,-3.8699,-3.8699,-3.8689,-3.8711,-3.8711,-3.8692,-3.8699,-3.8699,-3.8706,-3.8312,-3.7319,-3.622,-3.5589,-3.56,-3.5583,-3.5627,-3.5598,-3.4195,-3.4076,-3.5496,-3.176,-2.9813,-2.9792,-2.9792,-2.9787,-2.9675,-2.5157,-2.3102,-1.4088,-1.411,-1.4936,-1.8345,-1.9901,-2.0595,-2.0589,-2.2993,-2.6095,-2.9176,-2.9819,-3.0758,-3.3696,-3.6937,-3.9329,-3.9984,-4.2522,-4.4691,-4.55,-4.5592,-4.5592,-4.5605,-4.593,-4.6186,-4.63,-4.6299,-4.6289,-4.6298,-4.621,-4.599,-4.563,-4.4556,-4.3823,-4.3528,-4.3508,-4.2632,-4.0858,-4.0825,-4.0569,-4.0123,-4.0079,-3.9747,-3.9046,-3.6675,-3.5596,-3.5476,-3.3324,-3.24,-3.2396,-3.2366,-3.2394,-3.2311,-3.1728,-3.1479,-3.1506,-3.1504,-3.1482,-3.1582,-3.2327,-3.2586,-3.2695,-3.3391,-3.2864,-3.2048,-3.2641,-3.2895,-3.3235,-3.4284,-3.4688,-3.4941,-3.547,-3.5711,-3.5827,-3.5941,-3.6215,-3.6365,-3.5937,-3.5723,-3.5592,-3.5579,-3.7268,-3.871,-3.87,-3.8707,-3.8707,-3.8707,-3.8707,-3.8707,-3.8707,-3.8707,-3.8707,-3.8707,-3.8692,-3.8712,-3.8717,-3.7185,-3.6052,-3.5645,-3.5589,-3.5585,-3.5606,-3.2951,-3.2749,-3.5453,-3.1763,-2.9783,-2.9795,-2.9819,-2.9787,-2.9675,-2.5157,-2.3102,-1.4068,-1.4115,-1.4214,-1.4586,-1.77,-2.0584,-2.0615,-2.0918,-2.2797,-2.8607,-2.9756,-2.9905,-3.0282,-3.3376,-3.6833,-3.9645,-4.0356,-4.1787,-4.5124,-4.5603,-4.5593,-4.5608,-4.5651,-4.5833,-4.6266,-4.6297,-4.6297,-4.6301,-4.5905,-4.5649,-4.5615,-4.5488,-4.4824,-4.3545,-4.3524,-4.3407,-4.3204,-4.3197,-4.2154,-4.0104,-4.0113,-3.8653,-3.6024,-3.5706,-3.5596,-3.5575,-3.5359,-3.5251,-3.5207,-3.521,-3.5211,-3.4988,-3.2493,-3.1526,-3.1522,-3.1524,-3.1482,-3.1582,-3.2327,-3.2586,-3.2695,-3.3391,-3.3479,-3.3427,-3.3495,-3.3937,-3.4431,-3.4576,-3.5052,-3.5515,-3.5577,-3.5985,-3.6457,-3.696,-3.6882,-3.665,-3.6615,-3.6063,-3.5592,-3.5579,-3.7268,-3.871,-3.87,-3.8707,-3.8707,-3.8707,-3.8707,-3.8707,-3.8707,-3.8707,-3.8707,-3.8707,-3.8695,-3.8684,-3.8699,-3.8527,-3.7602,-3.5739,-3.5589,-3.5596,-3.5622,-3.2972,-3.2756,-3.5464,-3.172,-2.9776,-2.9802,-2.9808,-2.9787,-2.9675,-2.5157,-2.3102,-1.4088,-1.4119,-1.4115,-1.4111,-1.7375,-2.0633,-2.0604,-2.141,-2.2783,-2.5295,-2.7889,-2.9806,-2.979,-3.2901,-3.5903,-3.7118,-3.8891,-4.0595,-4.2087,-4.4209,-4.5587,-4.5606,-4.561,-4.5671,-4.5863,-4.5872,-4.5994,-4.6281,-4.588,-4.561,-4.5606,-4.4787,-4.4062,-4.3527,-4.349,-4.3488,-4.3488,-4.3493,-4.3059,-4.2153,-4.2172,-3.9853,-3.5617,-3.5588,-3.5593,-3.5585,-3.5585,-3.5602,-3.5613,-3.5613,-3.5576,-3.532,-3.2571,-3.1485,-3.1531,-3.1477,-3.1482,-3.1682,-3.2826,-3.3182,-3.3391,-3.4447,-3.48,-3.4752,-3.4333,-3.4382,-3.4671,-3.5098,-3.5616,-3.6097,-3.6097,-3.6336,-3.6636,-3.6867,-3.6932,-3.6827,-3.6203,-3.6805,-3.7471,-3.7457,-3.812,-3.8704,-3.8691,-3.8682,-3.8686,-3.8686,-3.8686,-3.8686,-3.8686,-3.8686,-3.8681,-3.8692,-3.8681,-3.87,-3.872,-3.869,-3.7795,-3.5741,-3.5591,-3.5596,-3.5589,-3.294,-3.2012,-3.3098,-3.3143,-3.2105,-2.9812,-2.9783,-2.9787,-2.9675,-2.5157,-2.3102,-1.4095,-1.4088,-1.4132,-1.4124,-1.6378,-1.9055,-2.0344,-2.1905,-2.3103,-2.3099,-2.6657,-2.9824,-2.9768,-3.2034,-3.4177,-3.529,-3.7311,-3.9044,-3.9966,-4.2938,-4.4978,-4.4997,-4.5347,-4.5611,-4.5592,-4.5589,-4.5783,-4.6268,-4.5986,-4.5757,-4.5605,-4.4662,-4.3942,-4.351,-4.3515,-4.3517,-4.3517,-4.3523,-4.3488,-4.3488,-4.2534,-3.9799,-3.5596,-3.5608,-3.5596,-3.5596,-3.5599,-3.5609,-3.5566,-3.4704,-3.4628,-3.4794,-3.24,-3.1509,-3.1511,-3.1519,-3.164,-3.2007,-3.3182,-3.3735,-3.4087,-3.5224,-3.5622,-3.556,-3.5249,-3.5011,-3.5019,-3.5727,-3.6264,-3.6626,-3.6663,-3.6741,-3.6933,-3.7218,-3.7471,-3.7462,-3.668,-3.7672,-3.8701,-3.8701,-3.8691,-3.882,-3.9182,-3.9226,-3.9236,-3.9236,-3.9236,-3.9236,-3.9236,-3.9236,-3.9242,-3.9226,-3.8915,-3.87,-3.8689,-3.8705,-3.78,-3.5726,-3.5574,-3.5596,-3.5589,-3.2966,-3.1516,-3.1516,-3.4124,-3.3649,-2.9826,-2.9783,-2.9787,-2.9675,-2.5157,-2.3102,-1.4108,-1.4088,-1.4132,-1.4124,-1.4166,-1.5284,-1.9652,-2.187,-2.3089,-2.3101,-2.6701,-2.9824,-2.9819,-2.9803,-3.1087,-3.4916,-3.5537,-3.6603,-3.965,-4.2062,-4.3526,-4.3509,-4.4739,-4.5602,-4.5592,-4.5611,-4.5783,-4.6268,-4.6297,-4.6084,-4.5605,-4.5586,-4.4938,-4.3528,-4.3511,-4.349,-4.349,-4.3523,-4.3505,-4.3468,-4.0288,-3.7631,-3.5599,-3.5605,-3.5604,-3.558,-3.5596,-3.5577,-3.5414,-3.2655,-3.2383,-3.3499,-3.2059,-3.15,-3.1524,-3.1482,-3.1951,-3.2695,-3.3391,-3.4037,-3.4688,-3.5362,-3.5622,-3.5694,-3.6224,-3.5998,-3.5728,-3.6464,-3.694,-3.7197,-3.72,-3.7196,-3.7449,-3.8451,-3.8672,-3.8686,-3.8667,-3.8681,-3.87,-3.87,-3.87,-3.9062,-4.0287,-4.0499,-4.048,-4.048,-4.048,-4.048,-4.048,-4.048,-4.048,-4.0476,-3.9401,-3.8711,-3.8701,-3.8705,-3.78,-3.5726,-3.5574,-3.5596,-3.5589,-3.2962,-3.1512,-3.1535,-3.4105,-3.3642,-2.9776,-2.9782,-2.9787,-2.9675,-2.5157,-2.3102,-1.4095,-1.4088,-1.4075,-1.4105,-1.409,-1.4494,-1.5824,-1.888,-2.1696,-2.2866,-2.6657,-2.9776,-2.9833,-2.9805,-3.1023,-3.49,-3.5503,-3.6614,-3.9679,-4.0712,-4.1193,-4.1169,-4.3786,-4.5591,-4.5611,-4.5608,-4.5786,-4.6248,-4.6306,-4.6247,-4.61,-4.577,-4.54,-4.4943,-4.4952,-4.4477,-4.349,-4.3497,-4.2408,-4.0215,-3.917,-3.8367,-3.7717,-3.7707,-3.692,-3.5579,-3.5599,-3.5593,-3.5532,-3.4671,-3.4579,-3.4729,-3.2395,-3.1897,-3.2475,-3.2462,-3.2493,-3.2734,-3.3887,-3.4669,-3.5256,-3.5933,-3.6399,-3.6786,-3.7268,-3.6549,-3.5792,-3.6754,-3.7113,-3.7361,-3.8049,-3.8232,-3.8303,-3.8628,-3.933,-3.993,-3.9929,-3.9924,-3.9924,-3.9924,-3.993,-4.0057,-4.0439,-4.0482,-4.0498,-4.0498,-4.0498,-4.0498,-4.0498,-4.0498,-4.0501,-4.0497,-4.0165,-3.959,-3.8776,-3.8681,-3.78,-3.5726,-3.5574,-3.5596,-3.5589,-3.2962,-3.1474,-3.1499,-3.4133,-3.3625,-2.9781,-2.9796,-2.8184,-2.5178,-2.374,-2.3113,-1.4088,-1.4088,-1.4088,-1.4088,-1.4137,-1.4508,-1.6154,-1.8663,-2.1575,-2.4933,-2.7877,-2.977,-2.9814,-2.9841,-3.1052,-3.4893,-3.5461,-3.6568,-3.9651,-4.0113,-4.0636,-4.2,-4.4214,-4.56,-4.5592,-4.5608,-4.5722,-4.6002,-4.6201,-4.6303,-4.6304,-4.5835,-4.5609,-4.5609,-4.5597,-4.518,-4.4296,-4.3015,-4.1128,-3.8695,-3.8711,-3.8704,-3.867,-3.7891,-3.6803,-3.5641,-3.6437,-3.6303,0.0,-3.5597,-3.5588,-3.5382,-3.3329,-3.2835,-3.3187,-3.3149,-3.339,-3.3772,-3.4605,-3.5368,-3.5956,-3.6388,-3.6826,-3.7184,-3.7057,-3.6915,-3.6916,-3.758,-3.776,-3.7904,-3.8534,-3.8711,-3.8701,-3.8702,-3.9637,-4.0514,-4.0494,-4.0498,-4.0498,-4.0498,-4.0502,-4.0498,-4.0498,-4.0504,-4.0489,-4.0489,-4.0489,-4.0489,-4.0489,-4.0489,-4.0499,-4.0497,-4.0501,-4.0205,-3.9433,-3.8957,-3.7793,-3.5729,-3.5587,-3.5597,-3.5573,-3.2962,-3.1505,-3.1482,-3.3166,-3.2581,-2.983,-2.8106,-2.582,-2.3126,-2.3093,-2.3135,0.0,-1.4088,-1.4088,-1.4088,-1.4115,-1.5248,-1.9625,-2.0568,0.0,-2.815,-2.956,-2.9821,-2.9811,-2.9808,-3.093,-3.4499,-3.5488,-3.6837,-3.9679,-4.0237,-4.1594,-4.5018,-4.5443,-4.5453,-4.5449,-4.5534,-4.5587,-4.5586,-4.6006,-4.6268,-4.6308,-4.589,-4.5616,-4.5603,-4.5609,-4.56,-4.56,-4.2191,-3.9888,-3.8711,-3.8692,-3.8701,-3.8627,-3.6618,-3.5703,-3.5828,-3.7662,-3.7418,-3.5696,-3.5703,-3.5661,-3.5526,-3.471,-3.4177,-3.3834,-3.3802,-3.4477,-3.5423,-3.5484,-3.6046,-3.6766,-3.6822,-3.7059,-3.7099,-3.6119,-3.7162,-3.8728,-3.8792,-3.884,-3.8832,-3.8836,-3.8836,-3.8829,-3.884,-3.9681,-4.0501,-4.0515,-4.0489,-4.0489,-4.0489,-4.0489,-4.0489,-4.0489,-4.0489,-4.0489,-4.0489,-4.0489,-4.0489,-4.0489,-4.0489,-4.0489,-4.0489,-4.0497,-4.0498,-4.0503,-3.9389,-3.7889,-3.5945,-3.5682,-3.561,-3.5624,-3.2962,-3.1488,-3.1529,-3.1434,-3.0841,-2.9783,-2.5588,-2.3423,-2.3071,-2.311,-2.3135,-1.4088,0.0,-1.4088,-1.4088,-1.4124,-1.5272,0.0,-2.0604,-2.1367,-2.4078,-2.7395,-2.9813,-2.9819,-2.9817,-3.0095,-3.0993,-3.5548,-3.9295,-4.0017,-4.162,-4.3021,-4.3899,-4.3972,-4.3992,-4.3995,-4.4973,-4.561,-4.5605,-4.5703,-4.593,-4.6289,-4.6195,-4.5963,-4.5616,-4.5605,-4.5592,-4.56,-4.2223,-3.989,-3.8683,-3.8696,-3.87,-3.8673,-3.7399,-3.6832,-3.6816,-3.6456,-3.6509,-3.6792,-3.6546,-3.6112,-3.556,-3.5383,-3.5555,-3.5958,-3.5953,-3.5694,-3.5442,-3.615,-3.6693,-3.7216,-3.7986,-3.8276,-3.8301,-3.8051,-3.8294,-3.8881,-3.9825,-4.0098,-4.0089,-4.0085,-4.0075,-4.0091,-4.008,-4.0291,-4.0501,-4.0515,-4.0489,-4.0489,-4.0489,-4.0489,-4.0489,-4.0489,-4.0489,-4.0489,-4.0489,-4.0489,-4.0489,-4.0489,-4.0489,-4.0489,-4.0489,-4.0515,-4.0499,-4.0507,-3.9389,-3.8482,-3.802,-3.6469,-3.561,-3.5624,-3.2962,-3.149,-3.1515,-3.0656,-3.0051,-2.977,-2.8769,-2.6417,-2.3083,-2.3066,-2.3135,-1.4088,-1.4088,-1.4088,-1.4088,-1.4061,-1.5264,-1.9615,-2.0639,-2.1106,-2.2727,-2.5055,-2.6767,-2.6714,-2.8395,-2.9825,-2.9764,-3.4376,-3.847,-3.9897,-4.115,-4.234,-4.3379,-4.3505,-4.3485,-4.3521,-4.4197,-4.4893,-4.5534,-4.5609,-4.5718,-4.5974,-4.6173,-4.6192,-4.5921,-4.4196,-4.3265,-4.3254,-4.1417,-3.9886,-3.87,-3.9256,-3.9246,-3.8696,-3.8124,-3.7631,-3.7201,-3.7064,-3.7094,-3.72,-3.7233,-3.6881,-3.6324,-3.6329,-3.6259,-3.6277,-3.6742,-3.6624,-3.6278,-3.6916,-3.7471,-3.805,-3.9175,-3.9537,-3.9524,-3.9524,-3.9527,-3.9544,-3.965,-4.0068,-4.0488,-4.0499,-4.0501,-4.0502,-4.0498,-4.0496,-4.0511,-4.0492,-4.0489,-4.0569,-4.0771,-4.0827,-4.0827,-4.0827,-4.0827,-4.0827,-4.0827,-4.0626,-4.0489,-4.0489,-4.0489,-4.0489,-4.0489,-4.0504,-4.0501,-4.0503,-3.9376,-3.8706,-3.8702,-3.6724,-3.5591,-3.5607,-3.2962,-3.1496,-3.1535,-2.9349,-2.8766,-2.9774,-2.772,-2.5525,-2.3073,-2.3066,-2.3135,-1.4088,-1.4088,-1.4088,-1.4088,-1.4129,-1.5058,-1.8757,-2.0336,-2.1343,-2.2772,-2.3061,-2.334,-2.3987,-2.7228,-2.9995,-3.0566,-3.3765,-3.708,-3.9737,-4.0103,-4.0831,-4.275,-4.33,-4.3505,-4.3502,-4.3509,-4.407,-4.5478,-4.5592,-4.5586,-4.5586,-4.6041,-4.6056,-4.5534,-4.2329,-4.0556,-4.0515,-4.0502,-4.0005,-3.898,-3.9834,-3.9689,-3.8693,-3.8713,-3.8224,-3.7473,-3.8154,-3.8,-3.7235,-3.7623,-3.7557,-3.7218,-3.7198,-3.6728,-3.6145,-3.6973,-3.7343,-3.7506,-3.7961,-3.8484,-3.9154,-4.0185,-4.0514,-4.0498,-4.0498,-4.0498,-4.0295,-3.9261,-3.9714,-4.0499,-4.0508,-4.0534,-4.0612,-4.0612,-4.0612,-4.0612,-4.0612,-4.0611,-4.0709,-4.1121,-4.1198,-4.1195,-4.1195,-4.1195,-4.1195,-4.1195,-4.0858,-4.061,-4.0612,-4.0534,-4.0489,-4.0489,-4.0497,-4.044,-4.0235,-3.9275,-3.8713,-3.8685,-3.6758,-3.5394,-3.4975,-3.273,-3.1291,-3.0718,-2.7952,-2.7102,-2.8358,-2.4799,-2.3102,-2.3063,-2.3065,-2.3135,-1.4088,-1.4088,-1.4088,-1.4088,-1.4129,-1.4289,-1.4963,-1.9063,-2.277,-2.3068,-2.3078,-2.4284,-2.8069,-2.9314,-3.0842,-3.4108,-3.7319,-3.9557,-4.0037,-4.0096,-4.0245,-4.0582,-4.2318,-4.3509,-4.3501,-4.3502,-4.4075,-4.5483,-4.5611,-4.5586,-4.5586,-4.6063,-4.4966,-4.208,-4.1401,-4.0896,-4.0508,-4.0497,-4.0406,-4.0213,-3.9369,-3.8884,-3.8708,-3.8709,-3.8615,-3.8438,-3.7719,-3.7343,-3.7199,-3.7287,-3.725,-3.7214,-3.7193,-3.7629,-3.8169,-3.7755,-3.8004,-3.86,-3.9696,-4.0129,-4.0251,-4.0442,-4.05,-4.0504,-4.0504,-4.0504,-4.0466,-4.0271,-4.0364,-4.0502,-4.0499,-4.0784,-4.1081,-4.1081,-4.1081,-4.1081,-4.1081,-4.1093,-4.1112,-4.1191,-4.1193,-4.1207,-4.1207,-4.1207,-4.1207,-4.1207,-4.1142,-4.1094,-4.1088,-4.0746,-4.0489,-4.0489,-4.0497,-4.0096,-3.9071,-3.8813,-3.8707,-3.8702,-3.6733,-3.4555,-3.2222,-3.1712,-3.0151,-2.7304,-2.6729,-2.504,-2.1991,-2.2756,-2.3084,-2.3093,-2.3075,-2.3135,-1.4088,-1.4088,-1.4062,-1.4142,-1.4137,-1.4076,-1.4069,-1.8802,-2.3102,-2.3119,-2.3071,-2.448,-2.8931,-2.9833,-3.0368,-3.2137,-3.6757,-4.012,-4.012,-4.1172,-4.1483,-4.024,-4.2778,-4.4629,-4.4624,-4.4619,-4.4889,-4.5535,-4.3886,-4.2958,-4.3209,-4.3438,-4.2807,-4.1244,-4.0947,-4.0844,-4.0881,-4.0635,-4.0498,-4.0501,-3.9943,-3.9681,-3.9675,-3.967,-3.944,-3.9014,-3.8662,-3.8431,-3.8339,-3.8449,-3.8431,-3.8357,-3.8449,-3.8615,-3.8743,-3.8224,-3.8515,-3.9226,-3.9448,-3.9946,-4.0494,-4.0494,-4.0485,-4.0489,-4.0489,-4.0676,-4.0882,-4.0872,-4.0872,-4.0877,-4.0881,-4.104,-4.1197,-4.1208,-4.1199,-4.1199,-4.1199,-4.1192,-4.1201,-4.1201,-4.1202,-4.1191,-4.1191,-4.1191,-4.1191,-4.1191,-4.1191,-4.1209,-4.1202,-4.0999,-4.0771,-4.0539,-4.0497,-4.002,-3.8803,-3.8702,-3.821,-3.7091,-3.4734,-3.2821,-3.1566,-3.1531,-2.9896,-2.6562,-2.6501,-2.5612,-2.3753,-2.2443,-2.2219,-2.3086,-2.3093,-2.3137,-1.4088,-1.4088,-1.4132,-1.4124,-1.4871,-1.5621,-1.5591,-1.9227,-2.2483,-2.2544,-2.3636,-2.5734,-2.9151,-3.1145,-3.2232,-3.2221,-3.7381,-4.14,-4.1397,-4.2883,-4.3339,-4.1611,-4.3159,-4.4393,-4.4417,-4.4414,-4.4401,-4.4414,-4.2082,-4.0823,-4.118,-4.1197,-4.1198,-4.1203,-4.0846,-4.077,-4.1034,-4.0687,-4.0485,-4.0501,-4.0501,-4.0482,-4.0488,-4.0347,-4.0037,-3.9577,-3.9584,-3.9542,-3.9467,-3.9647,-3.9623,-3.9491,-3.9614,-3.9419,-3.9025,-3.8714,-3.9123,-3.9735,-3.9299,-3.981,-4.0653,-4.0653,-4.0653,-4.0653,-4.0653,-4.0916,-4.1188,-4.1078,-4.111,-4.1198,-4.1207,-4.1207,-4.1199,-4.1201,-4.1191,-4.1191,-4.1191,-4.1191,-4.1191,-4.1191,-4.1191,-4.1191,-4.1191,-4.1191,-4.1191,-4.1191,-4.1191,-4.1191,-4.1191,-4.1206,-4.1009,-4.0554,-4.0494,-4.0021,-3.8801,-3.8251,-3.7274,-3.5701,-3.3015,-3.1498,-3.1512,-3.1483,-2.9905,-2.6575,-2.6502,-2.6005,-2.5136,-2.208,-2.1218,-2.2511,-2.2502,-2.1971,-1.4088,-1.4088,-1.4132,-1.4124,-1.7139,-2.0134,-2.0136,-2.0462,-2.0809,-2.0761,-2.5335,-2.9454,-2.9729,-3.5067,-3.9377,-3.9358,-4.2636,-4.5179,-4.5194,-4.5344,-4.5403,-4.5235,-4.2642,-4.0886,-4.0881,-4.0871,-4.0871,-4.0871,-4.1042,-4.1164,-4.1201,-4.1206,-4.1206,-4.1199,-4.1165,-4.0962,-4.0554,-4.0504,-4.0508,-4.0492,-4.0492,-4.0511,-4.0479,-3.9928,-3.9928,-4.0386,-3.9848,-3.9693,-3.9863,-4.0015,-4.0071,-4.0014,-3.9929,-3.9731,-3.9561,-3.9529,-3.9889,-4.0438,-4.0381,-4.0713,-4.1149,-4.1149,-4.1149,-4.1149,-4.1149,-4.1171,-4.1105,-4.0682,-4.0849,-4.1192,-4.1191,-4.1207,-4.1208,-4.1191,-4.1191,-4.1191,-4.1191,-4.1191,-4.1191,-4.1191,-4.1191,-4.1191,-4.1191,-4.1191,-4.1191,-4.1191,-4.1191,-4.1191,-4.1191,-4.1196,-4.1016,-4.0562,-4.0508,-4.0024,-3.8799,-3.693,-3.5769,-3.5599,-3.301,-3.1498,-3.1512,-3.1483,-2.9905,-2.6575,-2.6483,-2.4657,-2.1041,-2.0765,-2.0663,-2.0771,-2.075,-1.8611,-1.4088,-1.4088,-1.4132,-1.4124,-1.5336,-1.6545,-1.6581,-2.0524,-2.4279,-2.4226,-2.6089,-2.8145,-2.9548,-3.5462,-3.991,-3.9336,-4.0375,-4.1577,-4.2312,-4.2676,-4.2868,-4.2857,-4.172,-4.0945,-4.0943,-4.0937,-4.0947,-4.0932,-4.1099,-4.0761,-3.9705,-3.9659,-4.0132,-4.1156,-4.1215,-4.1107,-4.0947,-4.0658,-4.0658,-4.0927,-4.0639,-4.0489,-4.0489,-4.0389,-4.0394,-4.049,-4.0364,-4.029,-4.0272,-4.0406,-4.0496,-4.0526,-4.0486,-4.0392,-4.0266,-4.0188,-4.0291,-4.0535,-4.0825,-4.1046,-4.115,-4.0848,-4.0762,-4.0762,-4.0762,-4.0762,-4.0731,-4.054,-4.0626,-4.0843,-4.111,-4.1208,-4.1208,-4.1208,-4.1208,-4.1208,-4.1208,-4.1208,-4.1208,-4.1208,-4.1208,-4.1208,-4.1208,-4.1199,-4.1191,-4.1191,-4.1191,-4.1191,-4.1191,-4.1208,-4.1128,-4.0953,-4.0674,-4.001,-3.8793,-3.7972,-3.6975,-3.5685,-3.4626,-3.326,-3.1556,-3.1474,-2.99,-2.6565,-2.6476,-2.4562,-2.0571,-2.0611,-2.0566,-2.0614,-2.0636,-1.9749,-1.4068,-1.4068,-1.4105,-1.4117,-1.4072,-1.371,-1.2221,-1.8487,-2.5003,-2.6235,-2.6478,-2.7525,-3.0991,-3.6305,-3.9999,-3.9551,-3.9497,-3.9795,-4.0603,-4.054,-4.0169,-3.9501,-3.9437,-3.9683,-4.0347,-3.981,-3.9714,-4.0345,-4.0414,-3.991,-3.8762,-3.8707,-3.9226,-4.0356,-4.0778,-4.0976,-4.0985,-4.0658,-4.0658,-4.0966,-4.0793,-4.0718,-4.0733,-4.0718,-4.0712,-4.0721,-4.0822,-4.0757,-4.0604,-4.0692,-4.075,-4.0818,-4.0886,-4.09,-4.0836,-4.0596,-4.0496,-4.0545,-4.0877,-4.0974,-4.0922,-4.0604,-4.0515,-4.0488,-4.0488,-4.0494,-4.0498,-4.0498,-4.0494,-4.0572,-4.09,-4.0981,-4.0985,-4.0985,-4.0985,-4.0985,-4.0985,-4.0985,-4.0985,-4.0985,-4.0985,-4.0985,-4.0985,-4.0979,-4.1039,-4.1171,-4.1191,-4.1191,-4.1191,-4.1205,-4.1135,-4.0989,-4.0348,-3.9597,-3.8765,-3.8096,-3.7095,-3.5702,-3.4785,-3.3443,-3.156,-3.0495,-2.8265,-2.4679,-2.4618,-2.3306,-2.0591,-2.0575,-2.0596,-2.0605,-2.0591,-2.0627,-1.4132,-1.4132,-1.4052,-1.402,-1.4081,-1.292,-0.8306,-1.4193,-2.1744,-2.5672,-2.6461,-2.8369,-3.4405,-3.8017,-4.0341,-4.1091,-4.1194,-4.1192,-4.1155,-3.973,-3.791,-3.5857,-3.5622,-3.6406,-3.8478,-3.6824,-3.6464,-3.8515,-3.8694,-3.8681,-3.8695,-3.8707,-3.8696,-3.87,-3.9872,-4.0489,-4.0489,-4.0489,-4.0504,-4.0504,-4.0981,-4.1203,-4.1182,-4.0726,-4.0762,-4.1191,-4.1198,-4.1057,-4.0801,-4.0801,-4.0792,-4.084,-4.1097,-4.1201,-4.1128,-4.0672,-4.0507,-4.0489,-4.0489,-4.0489,-4.0489,-4.0489,-4.0494,-4.0501,-4.0501,-4.0471,-4.048,-4.048,-4.0469,-4.0501,-4.0501,-4.0496,-4.0489,-4.0489,-4.0489,-4.0489,-4.0489,-4.0489,-4.0489,-4.0489,-4.0489,-4.0489,-4.0489,-4.0489,-4.066,-4.1125,-4.1191,-4.1191,-4.1191,-4.1191,-4.1025,-4.0566,-3.9408,-3.871,-3.8695,-3.6787,-3.5566,-3.5554,-3.2997,-3.1506,-3.1492,-2.8296,-2.4638,-2.0719,-2.0616,-2.0599,-2.0591,-2.0576,-2.0582,-2.0502,-2.0571,-2.0514,-1.7847,-1.643,-1.3353,-1.0011,-1.3944,-1.8288,-1.6887,-1.8656,-2.1683,-2.5691,-2.6491,-2.7074,-2.8886,-3.5599,-4.095,-4.1149,-4.1192,-4.0288,-3.7632,-3.6823,-3.6282,-3.5675,-3.5606,-3.5847,-3.6446,-3.5968,-3.587,-3.6458,-3.7866,-3.8708,-3.8707,-3.8693,-3.8691,-3.87,-3.9868,-4.0494,-4.0489,-4.0489,-4.0673,-4.0985,-4.1131,-4.1028,-4.0707,-4.0917,-4.1066,-4.1205,-4.1208,-4.0972,-4.0596,-4.0587,-4.0679,-4.0787,-4.0728,-4.09,-4.115,-4.0672,-4.0501,-4.0501,-4.0516,-4.05,-4.0501,-4.0517,-4.0488,-4.0347,-3.9485,-3.9229,-3.9236,-3.9236,-3.9229,-3.9429,-4.0268,-4.0507,-4.0497,-4.0501,-4.0499,-4.0501,-4.0516,-4.0501,-4.0499,-4.0499,-4.0507,-4.0489,-4.0489,-4.0489,-4.0559,-4.0688,-4.0998,-4.1191,-4.1191,-4.1205,-4.1155,-4.1001,-3.9605,-3.8697,-3.8711,-3.6796,-3.4786,-3.2816,-3.1944,-3.1526,-3.1518,-2.8258,-2.5952,-2.4778,-2.204,-2.0582,-2.0594,-2.0596,-1.9045,-1.6046,-1.6031,-1.6055,-1.5021,-1.3353,-1.1064,-1.0134,-1.5247,-2.0192,-1.8404,-1.5072,-1.5119,-2.4542,-2.8398,-3.0134,-3.014,-3.6173,-4.0713,-3.9215,-3.8995,-3.8186,-3.5918,-3.561,-3.5576,-3.5603,-3.558,-3.5179,-3.4072,-3.3981,-3.4408,-3.5514,-3.6741,-3.7482,-3.7468,-3.824,-3.8925,-3.9394,-4.0117,-4.0499,-4.0489,-4.0489,-4.0746,-4.119,-4.119,-4.1052,-4.0798,-4.1075,-4.1199,-4.1178,-4.1001,-4.0748,-4.05,-4.0496,-4.0554,-4.0613,-4.0019,-4.0249,-4.0839,-4.007,-3.9768,-3.9844,-4.032,-4.0188,-3.9774,-3.9782,-3.9771,-3.9649,-3.8917,-3.8699,-3.872,-3.8709,-3.8683,-3.8861,-3.9612,-3.9771,-3.9913,-4.0395,-4.0131,-3.9783,-3.9777,-3.9772,-3.992,-4.0397,-4.0501,-4.0499,-4.0511,-4.0509,-4.0488,-4.0508,-4.0894,-4.1197,-4.1191,-4.1198,-4.1138,-4.0934,-4.0024,-3.9219,-3.8728,-3.6777,-3.4415,-3.1671,-3.15,-3.0922,-2.9568,-2.7577,-2.573,-2.418,-2.178,-2.0575,-2.0625,-2.0634,-1.9222,-1.6652,-1.6645,-1.6686,-0.8993,-0.775,-0.8692,-1.2524,-1.6799,-1.8965,-1.5021,-0.7744,-0.643,-2.2637,-3.0685,-3.5044,-3.5967,-3.8906,-3.9895,-3.5867,-3.5409,-3.5608,-3.5605,-3.5579,-3.5525,-3.5247,-3.5217,-3.4249,-3.1757,-3.1478,-3.2657,-3.5402,-3.56,-3.5605,-3.558,-3.7656,-3.9369,-4.0459,-4.0501,-4.0498,-4.0489,-4.0489,-4.0752,-4.1205,-4.1195,-4.1205,-4.121,-4.1153,-4.1136,-4.1127,-4.0577,-4.0347,-4.034,-4.0443,-4.0438,-4.0222,-3.9129,-3.9368,-4.0207,-3.9089,-3.8707,-3.8831,-3.9742,-3.9349,-3.8426,-3.8423,-3.8567,-3.87,-3.87,-3.8573,-3.8436,-3.8435,-3.8433,-3.8468,-3.8664,-3.8693,-3.8995,-4.0083,-3.9505,-3.8691,-3.87,-3.8705,-3.902,-4.0127,-4.0321,-4.034,-4.0346,-4.0424,-4.0501,-4.0495,-4.0851,-4.113,-4.1142,-4.1172,-4.1014,-4.0534,-4.0507,-4.0002,-3.8813,-3.6788,-3.4459,-3.1699,-3.1477,-3.0003,-2.663,-2.6496,-2.4624,-2.0677,-2.0567,-2.0594,-2.0591,-2.0173,-2.0007,-2.0017,-1.9967,-1.9973,-1.3818,-1.2616,-1.1946,-0.9307,-1.2116,-1.5262,-1.4347,-1.5153,-1.7218,-2.1101,-2.5356,-3.0835,-3.8563,-4.0649,-3.9253,-3.3355,-3.4172,-3.5592,-3.5618,-3.5573,-3.482,-3.2627,-3.2357,-3.2152,-3.1567,-3.1509,-3.265,-3.5382,-3.5618,-3.5617,-3.5593,-3.8477,-4.0224,-4.0503,-4.0501,-4.0515,-4.0489,-4.0489,-4.0742,-4.1208,-4.1192,-4.1208,-4.1189,-4.0823,-4.0646,-4.0596,-3.9551,-3.909,-3.9147,-4.0113,-3.9932,-3.9048,-3.8813,-3.8854,-3.9063,-3.8787,-3.8694,-3.8518,-3.7145,-3.6484,-3.6278,-3.6273,-3.7381,-3.869,-3.869,-3.7577,-3.6268,-3.6282,-3.6288,-3.663,-3.8295,-3.8707,-3.8775,-3.9027,-3.8891,-3.871,-3.8713,-3.8699,-3.8768,-3.9037,-3.9089,-3.9086,-3.9078,-3.9864,-4.0494,-4.0499,-4.0583,-4.0648,-4.0648,-4.097,-4.1019,-4.0549,-4.0497,-4.0008,-3.8811,-3.6794,-3.4435,-3.1688,-3.1516,-3.0001,-2.6624,-2.6527,-2.4649,-2.0677,-2.0621,-2.0564,-2.0591,-1.7138,-1.5523,-1.5472,-1.5517,-1.5532,-1.4226,-1.2423,-1.0202,-0.7726,-1.0636,-1.2868,-0.8349,-0.9114,-0.7848,0.2234,-0.5367,-1.5365,-2.0513,-3.227,-3.9069,-3.2564,-3.2706,-3.4092,-3.5392,-3.5619,-3.461,-3.1843,-3.1485,-3.1511,-3.1503,-3.1508,-3.2637,-3.5373,-3.5602,-3.5623,-3.5594,-3.7214,-3.8886,-4.0453,-4.0501,-4.0489,-4.0489,-4.0713,-4.0964,-4.121,-4.121,-4.1069,-4.0858,-4.0598,-4.0193,-3.9595,-3.8977,-3.8704,-3.8738,-3.9369,-3.9254,-3.8689,-3.8704,-3.8079,-3.721,-3.721,-3.7224,-3.7058,-3.5973,-3.5597,-3.5607,-3.5599,-3.6308,-3.723,-3.7213,-3.6454,-3.5576,-3.5591,-3.5572,-3.5861,-3.6943,-3.722,-3.7202,-3.7238,-3.722,-3.7482,-3.8474,-3.8697,-3.8697,-3.8719,-3.8715,-3.8702,-3.8721,-3.9218,-3.9832,-4.0403,-4.0494,-4.049,-4.0508,-4.0916,-4.1013,-4.0548,-4.0501,-4.0001,-3.8792,-3.6776,-3.443,-3.1667,-3.0004,-2.8343,-2.6569,-2.4683,-2.2711,-2.0607,-2.0625,-1.9583,-1.7504,-1.5205,-1.4084,-1.4083,-1.4083,-1.4083,-1.1961,-1.0019,-0.7257,-0.8101,-0.9967,-0.9662,-0.1819,0.1837,0.8878,2.7678,1.469,0.0,0.0,-1.8687,-3.2337,-2.6932,-2.9142,-3.2306,-3.4559,-3.3814,-3.2631,-3.1603,-3.1482,-3.1494,-3.1489,-3.1951,-3.3163,-3.5414,-3.5157,-3.5096,-3.5567,-3.56,-3.7109,-4.0396,-4.0499,-4.0506,-4.0494,-4.0963,-4.1191,-4.1205,-4.1105,-4.0769,-4.0185,-4.0192,-3.9652,-3.8681,-3.8329,-3.8377,-3.8683,-3.8686,-3.8508,-3.8169,-3.8176,-3.7131,-3.5522,-3.5062,-3.4895,-3.4973,-3.5426,-3.5315,-3.4905,-3.4872,-3.4894,-3.4977,-3.5477,-3.5274,-3.4881,-3.4872,-3.5257,-3.5599,-3.5615,-3.5583,-3.5463,-3.5027,-3.5263,-3.6085,-3.7789,-3.8176,-3.8146,-3.8151,-3.8451,-3.8685,-3.8699,-3.8707,-3.9048,-4.0034,-4.0366,-4.05,-4.0511,-4.084,-4.096,-4.0652,-4.0545,-3.9855,-3.8309,-3.6597,-3.4448,-3.1682,-2.838,-2.6184,-2.5509,-2.2339,-2.0285,-1.949,-1.9515,-1.7683,-1.4076,-1.411,-1.4115,-1.4088,-1.4088,-1.4088,-0.7993,-0.7613,-0.8086,-1.2132,-0.7517,-0.1591,-0.0267,0.928,2.0409,2.9627,1.4711,0.0,0.0,-0.3017,-0.5225,-0.4363,-1.9553,-3.1644,-3.2001,-2.659,-2.4829,-3.0794,-3.1485,-3.1474,-3.1493,-3.3646,-3.5202,-3.5576,-3.3369,-3.3076,-3.5475,-3.5601,-3.7111,-4.0416,-4.0501,-4.0494,-4.0496,-4.0972,-4.1205,-4.1208,-4.0787,-4.0001,-3.8947,-3.8951,-3.8842,-3.8591,-3.678,-3.703,-3.8719,-3.8689,-3.7651,-3.6035,-3.6011,-3.5853,-3.5288,-3.2934,-3.2053,-3.239,-3.4769,-3.4046,-3.206,-3.2045,-3.2064,-3.2482,-3.4908,-3.395,-3.2045,-3.2055,-3.377,-3.5628,-3.5613,-3.5596,-3.502,-3.2588,-3.3891,-3.5673,-3.5958,-3.6025,-3.6013,-3.6017,-3.7488,-3.8681,-3.8692,-3.8685,-3.8742,-3.8906,-3.9848,-4.05,-4.0511,-4.0548,-4.0726,-4.1061,-4.0742,-3.9279,-3.6285,-3.5776,-3.4445,-3.1693,-2.836,-2.497,-2.1551,-2.0908,-1.8792,-1.5021,-1.4945,-1.4689,-1.4076,-1.4065,-1.4062,-1.4088,-1.4088,-1.4088,-0.8038,-0.7128,-0.8251,-1.2898,-0.6957,0.0,0.0,1.0671,1.928,1.4771,0.6468,0.0,0.0,0.0,0.0,0.0,-0.7787,-1.7986,-2.9834,-2.8738,-2.849,-3.3264,-3.2425,-3.1517,-3.1507,-3.5068,-3.6854,-3.57,-3.4483,-3.514,-3.8185,-3.8345,-3.9002,-4.0443,-4.0765,-4.0883,-4.0899,-4.0842,-4.0798,-4.0802,-3.9907,-3.8589,-3.6961,-3.6951,-3.7592,-3.8634,-3.7739,-3.7193,-3.6974,-3.6963,-3.6397,-3.5431,-3.3902,-3.3288,-3.3149,-3.1936,-3.1513,-3.1689,-3.289,-3.2486,-3.1485,-3.1519,-3.1504,-3.1732,-3.2912,-3.1165,-2.9068,-3.0959,-3.2359,-3.3279,-3.3282,-3.33,-3.3029,-3.18,-3.2442,-3.3276,-3.3289,-3.4533,-3.5591,-3.5607,-3.635,-3.7327,-3.8487,-3.871,-3.8693,-3.8692,-3.9152,-3.9735,-4.0423,-4.0505,-4.0673,-4.1147,-4.0781,-3.9633,-3.7525,-3.6281,-3.4401,-3.1694,-2.8341,-2.4755,-2.0742,-2.0635,-1.8575,-1.4159,-1.4076,-1.413,-1.4058,-1.4132,-1.4088,-1.4088,-1.4088,-1.4088,-0.8996,-0.8777,-1.107,-1.3506,-0.878,-0.296,-0.0518,0.7925,1.2399,0.2111,0.0,0.0,0.0,0.0,0.0,0.0,0.0,-0.7956,-3.0761,-3.3957,-3.4737,-3.6786,-3.5205,-3.3575,-3.2627,-3.6268,-3.8061,-3.6504,-3.6681,-3.7976,-4.0544,-4.0669,-4.0686,-4.0674,-4.0896,-4.1013,-4.1017,-4.0376,-4.0036,-4.0018,-3.8587,-3.7108,-3.5611,-3.5607,-3.6048,-3.6921,-3.7603,-3.7015,-3.5537,-3.486,-3.4558,-3.4361,-3.2296,-3.1496,-3.1501,-3.1485,-3.0967,-3.0364,-3.1185,-3.0953,-3.0219,-3.0225,-3.0259,-3.023,-3.0214,-2.8477,-2.7179,-3.0542,-3.0921,-3.0207,-3.0243,-3.0834,-3.1511,-3.1496,-3.1479,-3.15,-3.1488,-3.3661,-3.5621,-3.5579,-3.5618,-3.6068,-3.763,-3.8345,-3.8528,-3.7998,-3.8376,-3.9141,-4.0333,-4.05,-4.0667,-4.116,-4.0768,-3.9995,-3.8807,-3.6148,-3.3309,-3.0427,-2.6973,-2.3706,-2.071,-1.954,-1.7425,-1.4162,-1.2931,-1.2897,-1.4077,-1.4077,-1.4064,-1.4122,-1.4122,-1.4108,-0.9967,-1.3361,-1.8983,-1.5094,-1.3686,-1.0999,-0.2027,0.053,0.0887,0.0179,0.0,0.0,0.0,0.0,0.0,0.0,0.0,-0.9539,-3.684,-4.0713,-4.0741,-4.0896,-4.0777,-3.9295,-3.5738,-3.7406,-3.8651,-3.8558,-3.9605,-4.0513,-4.1136,-4.1153,-4.1169,-4.1152,-4.0759,-4.054,-4.054,-3.9375,-3.8799,-3.8769,-3.672,-3.569,-3.5603,-3.5611,-3.4217,-3.2048,-3.461,-3.5685,-3.5393,-3.2766,-3.1696,-3.1679,-3.1562,-3.1486,-3.1527,-3.1493,-2.9485,-2.7216,-3.0383,-2.9435,-2.6791,-2.6767,-2.6767,-2.677,-2.6752,-2.6648,-2.7197,-3.0559,-2.9247,-2.6777,-2.6751,-2.9101,-3.1503,-3.1482,-3.1514,-3.1514,-3.1508,-3.3665,-3.5594,-3.5608,-3.5593,-3.5633,-3.5732,-3.7422,-3.8036,-3.6053,-3.7453,-3.9142,-4.0325,-4.0507,-4.0684,-4.114,-4.0782,-4.0021,-3.8807,-3.4387,-3.0295,-2.7003,-2.3075,-2.0797,-2.0623,-1.6611,-1.4343,-1.4072,-0.9752,-0.967,-1.4104,-1.4104,-1.4137,-1.4123,-1.4123,-1.4077,-1.916,-1.4718,-1.082,-0.6224,-0.9647,-1.3188,-0.9781,-0.4347,0.0,0.0,0.0,0.0,0.0,0.0,0.0,0.0,0.0,-0.7449,-2.8785,-3.1803,-3.1795,-3.1756,-3.7332,-3.9733,-3.5962,-3.8444,-3.9312,-3.689,-3.9058,-4.0578,-4.075,-3.8764,-3.7601,-3.7608,-3.8741,-3.8715,-3.7361,-3.693,-3.673,-3.6717,-3.598,-3.4675,-3.2988,-3.2982,-3.1273,-2.8469,-3.164,-3.2982,-3.2897,-3.1901,-3.1529,-3.1282,-2.9144,-2.8291,-2.8307,-2.8258,-2.7506,-2.6694,-2.7842,-2.7499,-2.6479,-2.6473,-2.6515,-2.6539,-2.6483,-2.6506,-2.6758,-2.7915,-2.7413,-2.6505,-2.6505,-2.7353,-2.8838,-3.0974,-3.1521,-3.1515,-3.1501,-3.2283,-3.2966,-3.2955,-3.4382,-3.5608,-3.558,-3.6197,-3.6431,-3.5694,-3.6233,-3.7354,-3.9124,-3.9359,-3.9704,-4.0652,-4.0879,-4.065,-3.9925,-3.636,-3.0882,-2.3203,-2.1397,-1.939,-1.6511,-1.4887,-1.2656,-0.9675,-0.7926,-0.7929,-0.9597,-0.9597,-0.9584,-0.9647,-1.2709,-1.4091,-2.6146,-1.9051,-1.127,-0.6008,-0.7032,-1.0168,-1.3411,-0.6776,0.0,0.0,0.0,0.0,0.0,0.3762,0.7749,1.0143,0.464,-0.4089,-1.5937,-2.2739,-2.6519,-2.6489,-3.4096,-3.834,-3.5844,-3.7857,-3.829,-3.5794,-3.7612,-3.887,-3.8869,-3.5889,-3.465,-3.5576,-3.6031,-3.5633,-3.4226,-3.4235,-3.3649,-3.2541,-3.2571,-3.1611,-2.9813,-2.9793,-2.8636,-2.6633,-2.8817,-2.9841,-2.9838,-2.9811,-2.9826,-2.9578,-2.7349,-2.6531,-2.6528,-2.6489,-2.648,-2.6526,-2.6509,-2.6496,-2.6519,-2.6482,-2.6485,-2.6226,-2.4932,-2.4519,-2.4813,-2.6164,-2.6519,-2.6523,-2.6523,-2.6467,-2.7039,-2.9302,-2.9834,-2.9799,-2.9799,-3.0687,-3.15,-3.1505,-3.2982,-3.4233,-3.4202,-3.4235,-3.4541,-3.545,-3.5607,-3.6112,-3.7503,-3.8275,-3.915,-4.0369,-4.093,-4.0864,-3.9984,-3.6388,-3.0308,-2.1213,-1.7734,-1.4777,-1.1905,-1.1759,-1.024,-0.7186,-0.5494,-0.4678,-0.4734,-0.6331,-0.7125,-0.7198,-1.0289,-1.2579,0.0,0.0,0.0,-1.582,-0.7299,-0.2705,-1.1657,-0.6936,-0.06,-0.0606,-0.026,0.0,0.0,1.1286,2.2928,3.0016,1.36,0.0,0.0,-1.5196,-2.636,-2.6477,-3.1722,-3.5428,-3.5593,-3.5554,-3.5462,-3.5498,-3.5463,-3.552,-3.5613,-3.3003,-3.2658,-3.524,-3.2725,-3.1357,-3.1342,-3.1372,-2.9695,-2.6493,-2.6494,-2.6472,-2.6512,-2.6492,-2.6479,-2.6514,-2.6477,-2.6509,-2.6474,-2.6538,-2.6518,-2.6514,-2.6514,-2.6501,-2.6522,-2.6402,-2.6318,-2.6367,-2.6433,-2.6396,-2.6296,-2.6324,-2.6359,-2.5583,-2.1744,-2.0604,-2.1418,-2.5233,-2.636,-2.6318,-2.6498,-2.6508,-2.6488,-2.6488,-2.6505,-2.6512,-2.6512,-2.9038,-3.1366,-3.1497,-3.1475,-3.1489,-3.1488,-3.1498,-3.2384,-3.507,-3.5527,-3.5572,-3.5488,-3.7308,-3.9091,-4.0373,-4.093,-4.0492,-3.8744,-3.4253,-2.8363,-2.0853,-1.2125,-0.722,-0.7147,-0.6987,-0.6919,-0.6854,-0.2399,0.0,0.0,-0.4641,-0.6966,-0.7092,-0.7078,-0.9497,-2.9785,0.0,0.0,0.0,0.0,0.0,-0.4901,-0.9597,-1.4914,-1.4909,-0.6936,0.0,0.0,1.1266,2.1293,2.332,1.0353,0.0,0.0,-1.2862,-2.3277,-2.6153,-2.7986,-3.0745,-3.5197,-3.382,-3.2641,-3.2602,-3.2608,-3.3518,-3.5498,-3.3017,-3.072,-2.9058,-2.8285,-2.7894,-2.7852,-2.7907,-2.7393,-2.6518,-2.6503,-2.6521,-2.6519,-2.6509,-2.6489,-2.6471,-2.651,-2.6513,-2.6503,-2.6464,-2.6509,-2.6507,-2.6532,-2.6467,-2.6154,-2.3313,-2.2255,-2.2615,-2.5512,-2.4649,-2.2193,-2.2207,-2.2242,-2.2062,-2.0927,-2.0612,-2.0832,-2.1955,-2.2199,-2.2917,-2.5791,-2.6489,-2.6468,-2.6493,-2.6473,-2.6531,-2.6531,-2.7249,-2.8579,-3.1032,-3.1474,-3.1465,-3.1514,-3.1485,-3.1757,-3.2532,-3.4343,-3.4878,-3.2902,-3.489,-3.748,-4.0207,-4.0919,-3.9908,-3.6721,-3.3396,-2.7072,-1.6528,-1.3581,-1.0595,-0.7257,-0.3804,-0.195,-0.1955,-0.0711,0.0,0.0,-0.1337,-0.3742,-0.7074,-0.7126,-0.7819,-2.9799,-2.6491,-2.308,-2.3087,0.0,0.0,-1.0216,-1.4852,-1.8974,-1.316,-1.0223,-0.8599,-0.8611,-0.2042,0.3424,0.3418,-0.3319,-0.8622,-0.8599,-1.698,-2.3898,-2.6258,-2.8736,-3.0713,-3.1706,-3.1597,-3.1488,-3.1506,-3.0193,-3.0129,-3.1718,-3.0277,-2.8546,-2.6569,-2.6528,-2.5707,-2.4054,-2.5685,-2.6485,-2.6473,-2.4815,-2.4897,-2.6493,-2.6468,-2.5577,-2.4016,-2.4055,-2.4061,-2.4061,-2.4004,-2.4059,-2.4028,-2.4066,-2.4067,-2.3731,-2.1459,-2.0629,-2.0964,-2.3262,-2.2553,-2.0575,-2.0622,-2.0631,-2.0599,-2.0611,-2.0572,-2.0617,-2.0636,-2.0604,-2.0978,-2.2503,-2.4701,-2.6521,-2.6489,-2.6527,-2.6494,-2.6516,-2.6534,-2.7095,-2.9015,-2.9398,-2.94,-2.94,-2.94,-2.9379,-2.9423,-3.0764,-3.1721,-3.1505,-3.2902,-3.5078,-3.8133,-4.0091,-4.031,-3.8105,-3.4,-2.4838,-0.922,-0.8214,-0.7021,-0.4222,-0.1498,0.0973,0.2931,0.2935,0.1959,0.0,0.0,-0.1423,-0.4105,-0.418,-0.417,-3.0884,-2.8052,-2.497,-2.5013,-2.5967,0.0,-2.208,-2.1293,-1.7758,-0.5488,-1.2355,-2.0593,-2.059,-2.0942,-2.112,-2.0643,-2.1563,-2.201,-2.1376,-2.4597,-2.7062,-2.7082,-3.184,-3.3042,-2.7598,-2.9743,-3.152,-3.1497,-2.839,-2.6516,-2.6491,-2.6045,-2.5814,-2.5861,-2.5828,-2.4198,-2.0602,-2.4093,-2.5634,-2.5073,-2.1518,-2.1943,-2.5866,-2.5804,-2.3942,-2.0569,-2.0609,-2.0619,-2.0575,-2.0601,-2.0587,-2.0571,-2.0602,-2.0571,-2.0596,-2.0566,-2.0576,-2.0635,-2.0633,-2.0564,-2.0635,-2.0604,-2.0605,-2.0566,-2.0601,-2.0452,-2.0277,-2.0282,-2.0278,-1.9959,-1.838,-2.1729,-2.5566,-2.5584,-2.5717,-2.5875,-2.5876,-2.5865,-2.5942,-2.6409,-2.6479,-2.6489,-2.6489,-2.6489,-2.6522,-2.6518,-2.6476,-2.7569,-3.0544,-3.094,-3.189,-3.4327,-3.7594,-4.0013,-4.1099,-3.3088,-2.0009,-0.1173,0.1005,0.1553,0.154,0.156,0.3327,0.6991,0.7122,0.4977,0.0797,0.0799,0.0533,0.0,0.0,0.0,-3.7425,-3.743,-3.6768,-3.6788,-3.2933,0.0,-2.5951,-2.5354,-2.457,-2.1859,-2.0978,-2.0586,-2.0564,-2.3219,-2.4305,-2.1111,-2.7413,-3.098,-2.6045,-2.8311,-3.0522,-3.0525,-3.1591,-3.1827,-3.0618,-3.1117,-3.1529,-3.1492,-2.8381,-2.6477,-2.6511,-2.3479,-2.1747,-2.1776,-2.1759,-2.142,-2.0605,-2.1383,-2.0012,-1.6485,-1.5758,-1.7578,-2.1791,-2.1741,-2.1298,-2.0586,-2.0603,-2.0639,-2.056,-2.0617,-2.0566,-2.0607,-2.0609,-2.0624,-2.0585,-2.0624,-2.0596,-2.0585,-2.0605,-2.0576,-2.0615,-2.0619,-2.0619,-2.0602,-2.0609,-1.961,-1.8514,-1.8531,-1.851,-1.8453,-1.8056,-1.8805,-1.9686,-1.9687,-2.0715,-2.175,-2.1722,-2.1754,-2.2688,-2.5901,-2.6514,-2.6485,-2.6485,-2.6485,-2.6527,-2.6493,-2.6501,-2.6739,-2.738,-2.7498,-2.7679,-2.8236,-2.8921,-3.2598,-4.0526,-1.9669,-0.4376,-0.0231,0.7162,1.1354,1.1337,1.1337,0.9986,0.7161,0.7084,0.6678,0.5684,0.5747,0.3748,0.0,0.0,0.0,-3.7428,-3.8937,-4.0079,-4.0091,-3.7508,0.0,0.0,-2.7285,-2.6486,-2.6496,-2.4896,-2.2926,-2.0962,-2.2226,-2.3561,-2.3548,-3.0307,-3.3451,-2.7334,-2.7969,-2.96,-3.1275,-3.1501,-3.1498,-3.1494,-3.1471,-3.0797,-2.9104,-2.7433,-2.6491,-2.6525,-2.2747,-2.0637,-2.0615,-1.8496,-1.7384,-1.7341,-1.7321,-1.6275,-1.4107,-1.4132,-1.5204,-1.7367,-1.7326,-1.7357,-1.7388,-1.7367,-1.7392,-1.735,-1.735,-1.7393,-1.7535,-1.9781,-2.0589,-2.0368,-1.8188,-1.8736,-2.0585,-2.063,-2.0632,-2.0203,-1.8044,-1.8271,-1.9298,-1.9316,-1.8716,-1.8024,-1.8037,-1.8024,-1.7995,-1.8031,-1.7992,-1.8002,-1.7981,-1.9291,-2.0561,-2.0597,-2.0622,-2.1205,-2.3205,-2.3525,-2.4213,-2.614,-2.6519,-2.6519,-2.6519,-2.6494,-2.6532,-2.6482,-2.4804,-2.3546,-2.357,-2.5314,-2.4895,-2.0996,-0.7952,0.2944,0.987,1.4743,1.7332,1.7338,1.7334,1.6265,1.3881,1.3798,1.3824,1.3807,1.1679,0.8178,0.3525,0.3534,0.23,-3.6527,-3.7848,-3.9491,-4.0521,-4.0768,-3.9304,0.0,0.0,0.0,-2.8367,-2.8243,-2.7256,-2.4092,-2.2553,-2.3182,-2.7523,-3.1656,-3.2586,-2.7525,-2.7464,-2.8706,-3.0791,-3.1342,-3.15,-3.1499,-3.0901,-2.94,-2.6719,-2.6499,-2.619,-2.5396,-2.1558,-1.9321,-1.9345,-1.5924,-1.4083,-1.4131,-1.409,-1.4081,-1.4102,-1.4105,-1.3587,-1.2741,-1.2776,-1.2791,-1.2806,-1.3732,-1.4062,-1.4084,-1.4063,-1.4138,-1.4419,-1.7989,-1.939,-1.8912,-1.5419,-1.6304,-1.9317,-1.938,-1.9341,-1.8731,-1.501,-1.5187,-1.6937,-1.6914,-1.6875,-1.7055,-1.7783,-1.746,-1.7042,-1.7827,-1.7976,-1.8071,-1.8385,-1.9568,-2.0599,-2.0566,-2.0604,-2.0579,-2.0605,-2.0581,-2.1901,-2.5829,-2.6537,-2.6212,-2.5493,-2.5384,-2.5377,-2.5335,-2.2604,-2.0567,-2.0564,-2.1094,-1.5619,-0.1221,0.4885,1.1868,2.1125,2.1727,2.1722,2.1732,2.0968,2.0596,2.0636,2.0556,2.0585,2.0623,1.708,1.2997,0.848,0.8406,0.6381,-3.9929,-3.8073,-3.7235,-4.1926,-4.3135,-4.2888,-4.2106,0.0,-3.7818,-3.5107,0.0,-3.4425,-3.3998,0.0,0.0,-3.3585,-3.1837,-2.931,-2.8102,-3.0979,-3.2277,-2.9761,-3.0689,-3.1496,-3.1518,-2.8804,-2.6875,-2.6503,-2.6517,-2.4952,-2.1484,-1.7209,-1.4803,-1.483,-1.4344,-1.4081,-1.4064,-1.4077,-1.4137,-1.4058,-1.4071,-1.1882,-0.7935,-0.7932,-0.7928,-0.81,-1.2318,-1.413,-1.4111,-1.4103,-1.4064,-1.4115,-1.4639,-1.4842,-1.4785,-1.4246,-1.4384,-1.4832,-1.4822,-1.4843,-1.4576,-1.2975,-1.2722,-1.2971,-1.2942,-1.2977,-1.3681,-1.7088,-1.5559,-1.3737,-1.714,-1.8003,-1.8405,-1.9912,-2.0458,-2.0625,-2.0603,-2.0613,-2.0605,-2.0634,-2.0589,-2.1838,-2.5801,-2.6518,-2.5333,-2.1764,-2.1272,-2.1248,-2.1278,-2.0906,-2.0635,-2.062,-1.0032,-0.2168,-0.0166,2.2436,3.3461,2.6294,2.5848,2.5807,2.5847,2.2491,2.0567,2.0631,2.0631,2.0599,2.06,2.0112,1.7614,1.3278,1.3304,1.304,-4.0307,-3.8993,-3.7936,-4.0163,-4.2136,-4.3513,-4.3472,-4.2774,-4.1353,-3.874,0.0,0.0,0.0,0.0,0.0,0.0,-3.5333,-3.395,-3.0572,-3.422,-3.6026,-3.2517,-3.1175,-3.0758,-3.1464,-3.0202,-2.8053,-2.4735,-2.361,-2.2348,-2.0692,-1.8834,-1.6716,-1.4145,-1.4131,-1.4122,-1.413,-1.1395,-1.0062,-1.0058,-1.0019,-0.9026,-0.7125,-0.7065,-0.7061,-0.7212,-0.9209,-1.0014,-1.0053,-1.0019,-1.1638,-1.4117,-1.4112,-1.4135,-1.4142,-1.4074,-1.4095,-1.4102,-1.4089,-1.362,-1.2982,-1.2485,-1.2284,-1.227,-1.227,-1.2288,-1.2648,-1.4255,-1.3539,-1.2785,-1.4702,-1.4946,-1.5023,-1.6467,-1.6839,-1.6838,-1.6798,-1.8789,-2.0604,-2.0589,-2.0632,-2.1115,-2.2772,-2.3069,-2.2531,-2.0811,-2.0594,-2.0586,-2.0636,-1.8372,-1.4692,-0.9201,-0.3443,0.4988,1.7238,3.2352,3.8508,3.2179,3.179,3.0186,2.6668,2.4885,2.5686,2.9204,2.9303,2.7581,2.4045,2.4045,2.4913,2.642,2.0565,1.789,-4.0255,-3.9637,-3.8553,-3.8002,-4.1079,-4.4265,-4.4281,-4.4274,-4.3804,-4.2131,-4.3134,0.0,0.0,0.0,-3.8336,-3.8333,0.0,-3.8619,-3.5279,-3.7585,-3.8385,-3.4988,-3.2214,-3.1455,-3.363,-3.3106,-3.0441,-2.5345,-2.3267,-2.1725,-2.0672,-2.0595,-1.9154,-1.5988,-1.471,-1.4122,-1.413,-0.9411,-0.7125,-0.7097,-0.7065,-0.7092,-0.7092,-0.7126,-0.7122,-0.7092,-0.7092,-0.7068,-0.7114,-0.7101,-0.9125,-1.2277,-1.3572,-1.4077,-1.4088,-1.4088,-1.4126,-1.4115,-1.4097,-1.3287,-1.228,-1.2282,-1.2305,-1.2305,-1.2305,-1.2311,-1.233,-1.2278,-1.2297,-1.2459,-1.3063,-1.2782,-1.2621,-1.3815,-1.4079,-1.4076,-1.4076,-1.6603,-1.885,-1.885,-1.885,-1.8778,-1.883,-1.8858,-1.9223,-2.0385,-1.9595,-1.8318,-1.707,-1.3028,-0.6182,0.447,0.5654,1.2957,3.1095,3.788,3.9845,3.6664,3.6431,3.4473,3.005,2.9831,3.164,3.5548,3.5583,3.3412,2.8971,2.8971,3.1263,3.5393,2.6375,2.2232,-4.0483,-3.9616,-3.8212,-3.6204,-4.1,-4.6208,-4.62,-4.6201,-4.6183,-4.6127,-4.6164,-4.6187,-4.611,-4.5647,-4.5282,-4.5266,-4.2415,0.0,0.0,-4.1131,-3.8647,-3.5811,-3.3675,-3.4455,-3.9347,-3.7086,-3.3747,-2.9904,-2.7543,-2.4636,-2.0803,-2.0592,-2.0556,-2.0395,-1.6281,-1.4122,-1.413,-0.9461,-0.7097,-0.7071,-0.7115,-0.7139,-0.7139,-0.7139,-0.7139,-0.7139,-0.7139,-0.7136,-0.7132,-0.7088,-0.7212,-0.7778,-1.2363,-1.4077,-1.4088,-1.4088,-1.4095,-1.4083,-1.4062,-1.3278,-1.2325,-1.2311,-1.2305,-1.2305,-1.2305,-1.2298,-1.2298,-1.2305,-1.2298,-1.2439,-1.3003,-1.2784,-1.2638,-1.3838,-1.4084,-1.4069,-1.4069,-1.4213,-1.4286,-1.4286,-1.4286,-1.4328,-1.4317,-1.4288,-1.5708,-1.9952,-1.6982,-1.2686,-0.8146,-0.3357,0.4811,1.8461,1.9928,2.4162,3.458,3.8981,4.0461,3.8702,3.8599,3.8496,3.8315,3.83,3.7468,3.5647,3.5592,3.5522,3.5326,3.5326,3.539,3.5464,2.9218,2.6334,-3.9309,-3.9593,-3.9806,-3.9406,-4.1131,-4.3517,-4.5768,-4.6312,-4.6312,-4.6312,-4.6052,-4.5935,-4.6236,-4.6162,-4.596,-4.5635,-4.4397,-4.3613,0.0,-4.2897,-4.1487,-4.0216,-3.7683,-3.6329,-3.697,-3.6094,-3.391,-3.0095,-2.7777,-2.5924,-2.4587,-2.1988,-2.0613,-2.0611,-1.633,-1.4103,-1.413,-1.2525,-1.0193,-0.7071,-0.7119,-0.7139,-0.7139,-0.7139,-0.7139,-0.7139,-0.7139,-0.7122,-0.7095,-0.7078,-0.7101,-0.7543,-1.2248,-1.4077,-1.4088,-1.4088,-1.4088,-1.3954,-1.3165,-1.2639,-1.2305,-1.2305,-1.2305,-1.2305,-1.2305,-1.2305,-1.2305,-1.2305,-1.2445,-1.2665,-1.2966,-1.3088,-1.3297,-1.3958,-1.4065,-1.4853,-1.7811,-1.6156,-1.4088,-1.4088,-1.4088,-1.3651,-1.2085,-1.309,-1.4587,-1.6079,-1.2415,-0.7762,-0.3007,0.4495,1.2222,1.9806,2.4912,2.9929,3.5179,3.9052,4.0486,3.8821,3.8703,3.9051,3.9855,3.9883,3.956,3.8859,3.884,3.883,3.8834,3.8834,3.8839,3.8723,3.4483,3.251,-3.8707,-3.9266,-3.9935,-4.0245,-4.0749,-4.2107,-4.5526,-4.6308,-4.5915,-4.4519,-4.5109,-4.5773,-4.5562,-4.5852,-4.602,-4.5726,-4.5361,-4.4938,0.0,-4.3823,-4.3268,-4.2831,-4.0707,-3.869,-3.7272,-3.7166,-3.6104,-3.3675,-3.1146,-2.8756,-2.6582,-2.4089,-2.2035,-2.0674,-1.6357,-1.4084,-1.4075,-1.4064,-1.1727,-0.7128,-0.7092,-0.7126,-0.7139,-0.7139,-0.7139,-0.7139,-0.7139,-0.7115,-0.725,-0.889,-0.962,-0.9928,-1.2894,-1.4077,-1.4088,-1.4088,-1.3834,-1.332,-1.2536,-1.2289,-1.2305,-1.2305,-1.2305,-1.2305,-1.2305,-1.2305,-1.2325,-1.2432,-1.2681,-1.3006,-1.3081,-1.3419,-1.381,-1.4021,-1.4126,-1.4867,-1.7717,-1.6072,-1.4099,-1.4075,-1.3444,-1.236,-1.0836,-1.1182,-1.1602,-1.1602,-0.9061,-0.4171,0.3982,1.0345,1.5746,2.0098,2.7118,3.2924,3.6408,3.9471,4.0739,3.9655,3.9587,3.9932,4.0713,4.0585,4.0581,4.0748,4.0596,4.0496,4.0492,4.0495,4.0497,4.0443,3.8339,3.7057]}]]